<?xml version="1.0" encoding="UTF-8" standalone="no" ?>
<gpx xmlns="http://www.topografix.com/GPX/1/1" xmlns:xsi="http://www.w3.org/2001/XMLSchema-instance" xsi:schemaLocation="http://www.topografix.com/GPX/1/1 http://www.topografix.com/GPX/1/1/gpx.xsd" version="1.1" creator="VisuGPX - https://www.visugpx.com">
  <metadata>
    <name>Rand\'eau nature Bourdeau14/05/2015</name>
    <desc><![CDATA[Rand\'eau nature Bourdeau]]></desc>
  </metadata>
  <trk>
    <name><![CDATA[Rand\'eau nature Bourdeau14/05/2015_1]]></name>
    <trkseg>
      <trkpt lat="45.68389" lon="5.85627">
        <ele>300</ele>
        <time>2015-05-14T07:09:14.000Z</time>
      </trkpt>
      <trkpt lat="45.68388" lon="5.85623">
        <ele>300</ele>
        <time>2015-05-14T07:09:22.000Z</time>
      </trkpt>
      <trkpt lat="45.68388" lon="5.85617">
        <ele>300</ele>
        <time>2015-05-14T07:09:28.000Z</time>
      </trkpt>
      <trkpt lat="45.68387" lon="5.85615">
        <ele>301</ele>
        <time>2015-05-14T07:09:38.000Z</time>
      </trkpt>
      <trkpt lat="45.68386" lon="5.85612">
        <ele>301</ele>
        <time>2015-05-14T07:09:43.000Z</time>
      </trkpt>
      <trkpt lat="45.68385" lon="5.85611">
        <ele>301</ele>
        <time>2015-05-14T07:09:48.000Z</time>
      </trkpt>
      <trkpt lat="45.68383" lon="5.85611">
        <ele>301</ele>
        <time>2015-05-14T07:09:54.000Z</time>
      </trkpt>
      <trkpt lat="45.6838" lon="5.85608">
        <ele>301</ele>
        <time>2015-05-14T07:10:00.000Z</time>
      </trkpt>
      <trkpt lat="45.68378" lon="5.85604">
        <ele>301</ele>
        <time>2015-05-14T07:10:06.000Z</time>
      </trkpt>
      <trkpt lat="45.68376" lon="5.85601">
        <ele>301</ele>
        <time>2015-05-14T07:10:11.000Z</time>
      </trkpt>
      <trkpt lat="45.68375" lon="5.85598">
        <ele>302</ele>
        <time>2015-05-14T07:10:15.000Z</time>
      </trkpt>
      <trkpt lat="45.68374" lon="5.85593">
        <ele>302</ele>
        <time>2015-05-14T07:10:22.000Z</time>
      </trkpt>
      <trkpt lat="45.68374" lon="5.85589">
        <ele>302</ele>
        <time>2015-05-14T07:10:27.000Z</time>
      </trkpt>
      <trkpt lat="45.68375" lon="5.85586">
        <ele>302</ele>
        <time>2015-05-14T07:10:32.000Z</time>
      </trkpt>
      <trkpt lat="45.68375" lon="5.85582">
        <ele>313</ele>
        <time>2015-05-14T07:10:38.000Z</time>
      </trkpt>
      <trkpt lat="45.68377" lon="5.85581">
        <ele>314</ele>
        <time>2015-05-14T07:10:43.000Z</time>
      </trkpt>
      <trkpt lat="45.68376" lon="5.85577">
        <ele>314</ele>
        <time>2015-05-14T07:10:50.000Z</time>
      </trkpt>
      <trkpt lat="45.68376" lon="5.8557">
        <ele>314</ele>
        <time>2015-05-14T07:10:56.000Z</time>
      </trkpt>
      <trkpt lat="45.68376" lon="5.85565">
        <ele>315</ele>
        <time>2015-05-14T07:11:03.000Z</time>
      </trkpt>
      <trkpt lat="45.68375" lon="5.85558">
        <ele>316</ele>
        <time>2015-05-14T07:11:27.000Z</time>
      </trkpt>
      <trkpt lat="45.68376" lon="5.85554">
        <ele>316</ele>
        <time>2015-05-14T07:11:33.000Z</time>
      </trkpt>
      <trkpt lat="45.68375" lon="5.85544">
        <ele>318</ele>
        <time>2015-05-14T07:11:41.000Z</time>
      </trkpt>
      <trkpt lat="45.68375" lon="5.85543">
        <ele>318</ele>
        <time>2015-05-14T07:11:48.000Z</time>
      </trkpt>
      <trkpt lat="45.68375" lon="5.85543">
        <ele>318</ele>
        <time>2015-05-14T07:11:59.000Z</time>
      </trkpt>
      <trkpt lat="45.68375" lon="5.85545">
        <ele>318</ele>
        <time>2015-05-14T07:12:17.000Z</time>
      </trkpt>
      <trkpt lat="45.68378" lon="5.85541">
        <ele>318</ele>
        <time>2015-05-14T07:12:43.000Z</time>
      </trkpt>
      <trkpt lat="45.68374" lon="5.85539">
        <ele>318</ele>
        <time>2015-05-14T07:12:49.000Z</time>
      </trkpt>
      <trkpt lat="45.68369" lon="5.85539">
        <ele>318</ele>
        <time>2015-05-14T07:12:56.000Z</time>
      </trkpt>
      <trkpt lat="45.68367" lon="5.85539">
        <ele>318</ele>
        <time>2015-05-14T07:13:01.000Z</time>
      </trkpt>
      <trkpt lat="45.68368" lon="5.85536">
        <ele>319</ele>
        <time>2015-05-14T07:13:06.000Z</time>
      </trkpt>
      <trkpt lat="45.6837" lon="5.85531">
        <ele>319</ele>
        <time>2015-05-14T07:13:12.000Z</time>
      </trkpt>
      <trkpt lat="45.68371" lon="5.85527">
        <ele>320</ele>
        <time>2015-05-14T07:13:18.000Z</time>
      </trkpt>
      <trkpt lat="45.68368" lon="5.85525">
        <ele>320</ele>
        <time>2015-05-14T07:13:24.000Z</time>
      </trkpt>
      <trkpt lat="45.68365" lon="5.85524">
        <ele>320</ele>
        <time>2015-05-14T07:13:30.000Z</time>
      </trkpt>
      <trkpt lat="45.68365" lon="5.85521">
        <ele>321</ele>
        <time>2015-05-14T07:13:35.000Z</time>
      </trkpt>
      <trkpt lat="45.68366" lon="5.85518">
        <ele>321</ele>
        <time>2015-05-14T07:13:42.000Z</time>
      </trkpt>
      <trkpt lat="45.68368" lon="5.85516">
        <ele>321</ele>
        <time>2015-05-14T07:13:50.000Z</time>
      </trkpt>
      <trkpt lat="45.68369" lon="5.85514">
        <ele>321</ele>
        <time>2015-05-14T07:13:55.000Z</time>
      </trkpt>
      <trkpt lat="45.68368" lon="5.85512">
        <ele>322</ele>
        <time>2015-05-14T07:14:04.000Z</time>
      </trkpt>
      <trkpt lat="45.68366" lon="5.8551">
        <ele>322</ele>
        <time>2015-05-14T07:14:26.000Z</time>
      </trkpt>
      <trkpt lat="45.68364" lon="5.85506">
        <ele>322</ele>
        <time>2015-05-14T07:14:31.000Z</time>
      </trkpt>
      <trkpt lat="45.68366" lon="5.85504">
        <ele>322</ele>
        <time>2015-05-14T07:14:38.000Z</time>
      </trkpt>
      <trkpt lat="45.68369" lon="5.85501">
        <ele>322</ele>
        <time>2015-05-14T07:14:45.000Z</time>
      </trkpt>
      <trkpt lat="45.68369" lon="5.85497">
        <ele>333</ele>
        <time>2015-05-14T07:14:50.000Z</time>
      </trkpt>
      <trkpt lat="45.68368" lon="5.85494">
        <ele>333</ele>
        <time>2015-05-14T07:14:55.000Z</time>
      </trkpt>
      <trkpt lat="45.68367" lon="5.85492">
        <ele>333</ele>
        <time>2015-05-14T07:14:59.000Z</time>
      </trkpt>
      <trkpt lat="45.68364" lon="5.85488">
        <ele>333</ele>
        <time>2015-05-14T07:15:06.000Z</time>
      </trkpt>
      <trkpt lat="45.68363" lon="5.85487">
        <ele>333</ele>
        <time>2015-05-14T07:15:11.000Z</time>
      </trkpt>
      <trkpt lat="45.68359" lon="5.85484">
        <ele>333</ele>
        <time>2015-05-14T07:15:22.000Z</time>
      </trkpt>
      <trkpt lat="45.68357" lon="5.85475">
        <ele>334</ele>
        <time>2015-05-14T07:15:30.000Z</time>
      </trkpt>
      <trkpt lat="45.68357" lon="5.85468">
        <ele>334</ele>
        <time>2015-05-14T07:15:38.000Z</time>
      </trkpt>
      <trkpt lat="45.68356" lon="5.85462">
        <ele>335</ele>
        <time>2015-05-14T07:15:45.000Z</time>
      </trkpt>
      <trkpt lat="45.68353" lon="5.85456">
        <ele>335</ele>
        <time>2015-05-14T07:15:54.000Z</time>
      </trkpt>
      <trkpt lat="45.68351" lon="5.85454">
        <ele>335</ele>
        <time>2015-05-14T07:16:01.000Z</time>
      </trkpt>
      <trkpt lat="45.6835" lon="5.85451">
        <ele>336</ele>
        <time>2015-05-14T07:16:06.000Z</time>
      </trkpt>
      <trkpt lat="45.68352" lon="5.85447">
        <ele>336</ele>
        <time>2015-05-14T07:16:11.000Z</time>
      </trkpt>
      <trkpt lat="45.68351" lon="5.85442">
        <ele>336</ele>
        <time>2015-05-14T07:16:17.000Z</time>
      </trkpt>
      <trkpt lat="45.68345" lon="5.85434">
        <ele>337</ele>
        <time>2015-05-14T07:16:25.000Z</time>
      </trkpt>
      <trkpt lat="45.68339" lon="5.85431">
        <ele>337</ele>
        <time>2015-05-14T07:16:31.000Z</time>
      </trkpt>
      <trkpt lat="45.68335" lon="5.85429">
        <ele>338</ele>
        <time>2015-05-14T07:16:35.000Z</time>
      </trkpt>
      <trkpt lat="45.68333" lon="5.85428">
        <ele>338</ele>
        <time>2015-05-14T07:16:37.000Z</time>
      </trkpt>
      <trkpt lat="45.68326" lon="5.85427">
        <ele>335</ele>
        <time>2015-05-14T07:16:44.000Z</time>
      </trkpt>
      <trkpt lat="45.68319" lon="5.85425">
        <ele>335</ele>
        <time>2015-05-14T07:16:50.000Z</time>
      </trkpt>
      <trkpt lat="45.68309" lon="5.85421">
        <ele>333</ele>
        <time>2015-05-14T07:16:58.000Z</time>
      </trkpt>
      <trkpt lat="45.68298" lon="5.85417">
        <ele>332</ele>
        <time>2015-05-14T07:17:07.000Z</time>
      </trkpt>
      <trkpt lat="45.68287" lon="5.85414">
        <ele>338</ele>
        <time>2015-05-14T07:17:17.000Z</time>
      </trkpt>
      <trkpt lat="45.68281" lon="5.85413">
        <ele>337</ele>
        <time>2015-05-14T07:17:23.000Z</time>
      </trkpt>
      <trkpt lat="45.6828" lon="5.85413">
        <ele>337</ele>
        <time>2015-05-14T07:17:24.000Z</time>
      </trkpt>
      <trkpt lat="45.68273" lon="5.85411">
        <ele>336</ele>
        <time>2015-05-14T07:17:30.000Z</time>
      </trkpt>
      <trkpt lat="45.68269" lon="5.85408">
        <ele>336</ele>
        <time>2015-05-14T07:17:34.000Z</time>
      </trkpt>
      <trkpt lat="45.68268" lon="5.85407">
        <ele>336</ele>
        <time>2015-05-14T07:17:36.000Z</time>
      </trkpt>
      <trkpt lat="45.68267" lon="5.85407">
        <ele>336</ele>
        <time>2015-05-14T07:17:37.000Z</time>
      </trkpt>
      <trkpt lat="45.68258" lon="5.85402">
        <ele>336</ele>
        <time>2015-05-14T07:17:45.000Z</time>
      </trkpt>
      <trkpt lat="45.6825" lon="5.85398">
        <ele>336</ele>
        <time>2015-05-14T07:17:52.000Z</time>
      </trkpt>
      <trkpt lat="45.68249" lon="5.85398">
        <ele>333</ele>
        <time>2015-05-14T07:17:53.000Z</time>
      </trkpt>
      <trkpt lat="45.68243" lon="5.85395">
        <ele>333</ele>
        <time>2015-05-14T07:17:59.000Z</time>
      </trkpt>
      <trkpt lat="45.68235" lon="5.85393">
        <ele>333</ele>
        <time>2015-05-14T07:18:06.000Z</time>
      </trkpt>
      <trkpt lat="45.68226" lon="5.85385">
        <ele>333</ele>
        <time>2015-05-14T07:18:15.000Z</time>
      </trkpt>
      <trkpt lat="45.6822" lon="5.85382">
        <ele>333</ele>
        <time>2015-05-14T07:18:21.000Z</time>
      </trkpt>
      <trkpt lat="45.6821" lon="5.8538">
        <ele>333</ele>
        <time>2015-05-14T07:18:30.000Z</time>
      </trkpt>
      <trkpt lat="45.68208" lon="5.85377">
        <ele>333</ele>
        <time>2015-05-14T07:18:36.000Z</time>
      </trkpt>
      <trkpt lat="45.68211" lon="5.8538">
        <ele>333</ele>
        <time>2015-05-14T07:19:02.000Z</time>
      </trkpt>
      <trkpt lat="45.6822" lon="5.85386">
        <ele>333</ele>
        <time>2015-05-14T07:19:11.000Z</time>
      </trkpt>
      <trkpt lat="45.68227" lon="5.85389">
        <ele>333</ele>
        <time>2015-05-14T07:19:17.000Z</time>
      </trkpt>
      <trkpt lat="45.68232" lon="5.85392">
        <ele>333</ele>
        <time>2015-05-14T07:19:23.000Z</time>
      </trkpt>
      <trkpt lat="45.68233" lon="5.85392">
        <ele>333</ele>
        <time>2015-05-14T07:19:24.000Z</time>
      </trkpt>
      <trkpt lat="45.68239" lon="5.85393">
        <ele>333</ele>
        <time>2015-05-14T07:19:30.000Z</time>
      </trkpt>
      <trkpt lat="45.68241" lon="5.85393">
        <ele>333</ele>
        <time>2015-05-14T07:19:32.000Z</time>
      </trkpt>
      <trkpt lat="45.68241" lon="5.85393">
        <ele>333</ele>
        <time>2015-05-14T07:19:33.000Z</time>
      </trkpt>
      <trkpt lat="45.68243" lon="5.85393">
        <ele>333</ele>
        <time>2015-05-14T07:19:35.000Z</time>
      </trkpt>
      <trkpt lat="45.6825" lon="5.85395">
        <ele>336</ele>
        <time>2015-05-14T07:19:42.000Z</time>
      </trkpt>
      <trkpt lat="45.68258" lon="5.85398">
        <ele>336</ele>
        <time>2015-05-14T07:19:49.000Z</time>
      </trkpt>
      <trkpt lat="45.68268" lon="5.85403">
        <ele>336</ele>
        <time>2015-05-14T07:19:57.000Z</time>
      </trkpt>
      <trkpt lat="45.68272" lon="5.85405">
        <ele>337</ele>
        <time>2015-05-14T07:20:01.000Z</time>
      </trkpt>
      <trkpt lat="45.68275" lon="5.85406">
        <ele>337</ele>
        <time>2015-05-14T07:20:04.000Z</time>
      </trkpt>
      <trkpt lat="45.68277" lon="5.85407">
        <ele>337</ele>
        <time>2015-05-14T07:20:06.000Z</time>
      </trkpt>
      <trkpt lat="45.68283" lon="5.85408">
        <ele>337</ele>
        <time>2015-05-14T07:20:12.000Z</time>
      </trkpt>
      <trkpt lat="45.68285" lon="5.85409">
        <ele>338</ele>
        <time>2015-05-14T07:20:14.000Z</time>
      </trkpt>
      <trkpt lat="45.68288" lon="5.8541">
        <ele>338</ele>
        <time>2015-05-14T07:20:18.000Z</time>
      </trkpt>
      <trkpt lat="45.68289" lon="5.85411">
        <ele>338</ele>
        <time>2015-05-14T07:20:19.000Z</time>
      </trkpt>
      <trkpt lat="45.68289" lon="5.85415">
        <ele>338</ele>
        <time>2015-05-14T07:20:25.000Z</time>
      </trkpt>
      <trkpt lat="45.6829" lon="5.85412">
        <ele>338</ele>
        <time>2015-05-14T07:20:29.000Z</time>
      </trkpt>
      <trkpt lat="45.68291" lon="5.85412">
        <ele>338</ele>
        <time>2015-05-14T07:20:30.000Z</time>
      </trkpt>
      <trkpt lat="45.68302" lon="5.85414">
        <ele>338</ele>
        <time>2015-05-14T07:20:39.000Z</time>
      </trkpt>
      <trkpt lat="45.68309" lon="5.85417">
        <ele>334</ele>
        <time>2015-05-14T07:20:45.000Z</time>
      </trkpt>
      <trkpt lat="45.68314" lon="5.85418">
        <ele>334</ele>
        <time>2015-05-14T07:20:51.000Z</time>
      </trkpt>
      <trkpt lat="45.68317" lon="5.85417">
        <ele>335</ele>
        <time>2015-05-14T07:20:53.000Z</time>
      </trkpt>
      <trkpt lat="45.68319" lon="5.85415">
        <ele>339</ele>
        <time>2015-05-14T07:20:56.000Z</time>
      </trkpt>
      <trkpt lat="45.68319" lon="5.85414">
        <ele>339</ele>
        <time>2015-05-14T07:20:57.000Z</time>
      </trkpt>
      <trkpt lat="45.68321" lon="5.8541">
        <ele>339</ele>
        <time>2015-05-14T07:21:01.000Z</time>
      </trkpt>
      <trkpt lat="45.68324" lon="5.85402">
        <ele>339</ele>
        <time>2015-05-14T07:21:07.000Z</time>
      </trkpt>
      <trkpt lat="45.68328" lon="5.85396">
        <ele>339</ele>
        <time>2015-05-14T07:21:13.000Z</time>
      </trkpt>
      <trkpt lat="45.68328" lon="5.85394">
        <ele>339</ele>
        <time>2015-05-14T07:21:14.000Z</time>
      </trkpt>
      <trkpt lat="45.68332" lon="5.85388">
        <ele>340</ele>
        <time>2015-05-14T07:21:19.000Z</time>
      </trkpt>
      <trkpt lat="45.68332" lon="5.85387">
        <ele>340</ele>
        <time>2015-05-14T07:21:20.000Z</time>
      </trkpt>
      <trkpt lat="45.68333" lon="5.85383">
        <ele>340</ele>
        <time>2015-05-14T07:21:23.000Z</time>
      </trkpt>
      <trkpt lat="45.68334" lon="5.8538">
        <ele>345</ele>
        <time>2015-05-14T07:21:26.000Z</time>
      </trkpt>
      <trkpt lat="45.68334" lon="5.85371">
        <ele>345</ele>
        <time>2015-05-14T07:21:32.000Z</time>
      </trkpt>
      <trkpt lat="45.68334" lon="5.8537">
        <ele>345</ele>
        <time>2015-05-14T07:21:33.000Z</time>
      </trkpt>
      <trkpt lat="45.68329" lon="5.85362">
        <ele>341</ele>
        <time>2015-05-14T07:21:40.000Z</time>
      </trkpt>
      <trkpt lat="45.68328" lon="5.85362">
        <ele>341</ele>
        <time>2015-05-14T07:21:41.000Z</time>
      </trkpt>
      <trkpt lat="45.68323" lon="5.85358">
        <ele>342</ele>
        <time>2015-05-14T07:21:47.000Z</time>
      </trkpt>
      <trkpt lat="45.68323" lon="5.85357">
        <ele>342</ele>
        <time>2015-05-14T07:21:48.000Z</time>
      </trkpt>
      <trkpt lat="45.68321" lon="5.85355">
        <ele>342</ele>
        <time>2015-05-14T07:21:51.000Z</time>
      </trkpt>
      <trkpt lat="45.6832" lon="5.85354">
        <ele>342</ele>
        <time>2015-05-14T07:21:53.000Z</time>
      </trkpt>
      <trkpt lat="45.68318" lon="5.8535">
        <ele>342</ele>
        <time>2015-05-14T07:21:59.000Z</time>
      </trkpt>
      <trkpt lat="45.68315" lon="5.85346">
        <ele>342</ele>
        <time>2015-05-14T07:22:05.000Z</time>
      </trkpt>
      <trkpt lat="45.68311" lon="5.85341">
        <ele>342</ele>
        <time>2015-05-14T07:22:12.000Z</time>
      </trkpt>
      <trkpt lat="45.68308" lon="5.85333">
        <ele>344</ele>
        <time>2015-05-14T07:22:19.000Z</time>
      </trkpt>
      <trkpt lat="45.68308" lon="5.8533">
        <ele>344</ele>
        <time>2015-05-14T07:22:22.000Z</time>
      </trkpt>
      <trkpt lat="45.68308" lon="5.85328">
        <ele>344</ele>
        <time>2015-05-14T07:22:24.000Z</time>
      </trkpt>
      <trkpt lat="45.68305" lon="5.8532">
        <ele>344</ele>
        <time>2015-05-14T07:22:31.000Z</time>
      </trkpt>
      <trkpt lat="45.68303" lon="5.85317">
        <ele>344</ele>
        <time>2015-05-14T07:22:33.000Z</time>
      </trkpt>
      <trkpt lat="45.68301" lon="5.85313">
        <ele>344</ele>
        <time>2015-05-14T07:22:37.000Z</time>
      </trkpt>
      <trkpt lat="45.68293" lon="5.85307">
        <ele>344</ele>
        <time>2015-05-14T07:22:50.000Z</time>
      </trkpt>
      <trkpt lat="45.6829" lon="5.85303">
        <ele>344</ele>
        <time>2015-05-14T07:22:56.000Z</time>
      </trkpt>
      <trkpt lat="45.68289" lon="5.85302">
        <ele>344</ele>
        <time>2015-05-14T07:22:57.000Z</time>
      </trkpt>
      <trkpt lat="45.68286" lon="5.853">
        <ele>344</ele>
        <time>2015-05-14T07:23:00.000Z</time>
      </trkpt>
      <trkpt lat="45.68283" lon="5.85299">
        <ele>344</ele>
        <time>2015-05-14T07:23:03.000Z</time>
      </trkpt>
      <trkpt lat="45.68279" lon="5.85298">
        <ele>343</ele>
        <time>2015-05-14T07:23:07.000Z</time>
      </trkpt>
      <trkpt lat="45.68269" lon="5.85294">
        <ele>343</ele>
        <time>2015-05-14T07:23:16.000Z</time>
      </trkpt>
      <trkpt lat="45.6826" lon="5.85293">
        <ele>343</ele>
        <time>2015-05-14T07:23:24.000Z</time>
      </trkpt>
      <trkpt lat="45.68253" lon="5.85291">
        <ele>343</ele>
        <time>2015-05-14T07:23:30.000Z</time>
      </trkpt>
      <trkpt lat="45.68252" lon="5.85291">
        <ele>343</ele>
        <time>2015-05-14T07:23:31.000Z</time>
      </trkpt>
      <trkpt lat="45.68241" lon="5.8529">
        <ele>339</ele>
        <time>2015-05-14T07:23:40.000Z</time>
      </trkpt>
      <trkpt lat="45.68235" lon="5.85291">
        <ele>339</ele>
        <time>2015-05-14T07:23:47.000Z</time>
      </trkpt>
      <trkpt lat="45.6823" lon="5.85292">
        <ele>338</ele>
        <time>2015-05-14T07:23:53.000Z</time>
      </trkpt>
      <trkpt lat="45.68226" lon="5.85291">
        <ele>338</ele>
        <time>2015-05-14T07:23:57.000Z</time>
      </trkpt>
      <trkpt lat="45.68225" lon="5.85291">
        <ele>338</ele>
        <time>2015-05-14T07:23:59.000Z</time>
      </trkpt>
      <trkpt lat="45.68219" lon="5.85293">
        <ele>338</ele>
        <time>2015-05-14T07:24:06.000Z</time>
      </trkpt>
      <trkpt lat="45.68216" lon="5.85293">
        <ele>338</ele>
        <time>2015-05-14T07:24:12.000Z</time>
      </trkpt>
      <trkpt lat="45.68209" lon="5.85293">
        <ele>338</ele>
        <time>2015-05-14T07:24:44.000Z</time>
      </trkpt>
      <trkpt lat="45.68202" lon="5.8529">
        <ele>337</ele>
        <time>2015-05-14T07:24:52.000Z</time>
      </trkpt>
      <trkpt lat="45.68195" lon="5.85283">
        <ele>337</ele>
        <time>2015-05-14T07:25:01.000Z</time>
      </trkpt>
      <trkpt lat="45.68193" lon="5.8528">
        <ele>337</ele>
        <time>2015-05-14T07:25:05.000Z</time>
      </trkpt>
      <trkpt lat="45.68191" lon="5.85279">
        <ele>337</ele>
        <time>2015-05-14T07:25:07.000Z</time>
      </trkpt>
      <trkpt lat="45.68187" lon="5.85275">
        <ele>337</ele>
        <time>2015-05-14T07:25:22.000Z</time>
      </trkpt>
      <trkpt lat="45.68175" lon="5.85267">
        <ele>336</ele>
        <time>2015-05-14T07:25:32.000Z</time>
      </trkpt>
      <trkpt lat="45.68167" lon="5.85261">
        <ele>334</ele>
        <time>2015-05-14T07:25:39.000Z</time>
      </trkpt>
      <trkpt lat="45.68158" lon="5.85255">
        <ele>334</ele>
        <time>2015-05-14T07:25:47.000Z</time>
      </trkpt>
      <trkpt lat="45.68148" lon="5.85252">
        <ele>334</ele>
        <time>2015-05-14T07:25:55.000Z</time>
      </trkpt>
      <trkpt lat="45.68148" lon="5.85251">
        <ele>334</ele>
        <time>2015-05-14T07:25:56.000Z</time>
      </trkpt>
      <trkpt lat="45.68144" lon="5.85248">
        <ele>339</ele>
        <time>2015-05-14T07:26:01.000Z</time>
      </trkpt>
      <trkpt lat="45.68143" lon="5.85248">
        <ele>339</ele>
        <time>2015-05-14T07:26:02.000Z</time>
      </trkpt>
      <trkpt lat="45.68139" lon="5.85242">
        <ele>340</ele>
        <time>2015-05-14T07:26:08.000Z</time>
      </trkpt>
      <trkpt lat="45.68138" lon="5.85234">
        <ele>341</ele>
        <time>2015-05-14T07:26:14.000Z</time>
      </trkpt>
      <trkpt lat="45.68137" lon="5.85226">
        <ele>341</ele>
        <time>2015-05-14T07:26:22.000Z</time>
      </trkpt>
      <trkpt lat="45.68137" lon="5.85224">
        <ele>341</ele>
        <time>2015-05-14T07:26:31.000Z</time>
      </trkpt>
      <trkpt lat="45.68139" lon="5.85211">
        <ele>343</ele>
        <time>2015-05-14T07:26:41.000Z</time>
      </trkpt>
      <trkpt lat="45.6814" lon="5.85208">
        <ele>343</ele>
        <time>2015-05-14T07:26:43.000Z</time>
      </trkpt>
      <trkpt lat="45.68141" lon="5.85204">
        <ele>344</ele>
        <time>2015-05-14T07:26:47.000Z</time>
      </trkpt>
      <trkpt lat="45.68143" lon="5.85195">
        <ele>345</ele>
        <time>2015-05-14T07:26:54.000Z</time>
      </trkpt>
      <trkpt lat="45.68143" lon="5.85186">
        <ele>346</ele>
        <time>2015-05-14T07:27:01.000Z</time>
      </trkpt>
      <trkpt lat="45.68139" lon="5.8518">
        <ele>346</ele>
        <time>2015-05-14T07:27:08.000Z</time>
      </trkpt>
      <trkpt lat="45.68137" lon="5.85178">
        <ele>346</ele>
        <time>2015-05-14T07:27:11.000Z</time>
      </trkpt>
      <trkpt lat="45.68135" lon="5.85176">
        <ele>346</ele>
        <time>2015-05-14T07:27:14.000Z</time>
      </trkpt>
      <trkpt lat="45.68132" lon="5.85175">
        <ele>346</ele>
        <time>2015-05-14T07:27:19.000Z</time>
      </trkpt>
      <trkpt lat="45.68124" lon="5.85173">
        <ele>346</ele>
        <time>2015-05-14T07:27:27.000Z</time>
      </trkpt>
      <trkpt lat="45.68116" lon="5.85172">
        <ele>346</ele>
        <time>2015-05-14T07:27:35.000Z</time>
      </trkpt>
      <trkpt lat="45.68107" lon="5.85174">
        <ele>346</ele>
        <time>2015-05-14T07:27:44.000Z</time>
      </trkpt>
      <trkpt lat="45.68096" lon="5.85178">
        <ele>347</ele>
        <time>2015-05-14T07:27:54.000Z</time>
      </trkpt>
      <trkpt lat="45.68088" lon="5.8518">
        <ele>347</ele>
        <time>2015-05-14T07:28:03.000Z</time>
      </trkpt>
      <trkpt lat="45.68077" lon="5.85186">
        <ele>346</ele>
        <time>2015-05-14T07:28:14.000Z</time>
      </trkpt>
      <trkpt lat="45.68076" lon="5.85187">
        <ele>345</ele>
        <time>2015-05-14T07:28:21.000Z</time>
      </trkpt>
      <trkpt lat="45.68069" lon="5.85187">
        <ele>345</ele>
        <time>2015-05-14T07:28:56.000Z</time>
      </trkpt>
      <trkpt lat="45.68065" lon="5.85187">
        <ele>345</ele>
        <time>2015-05-14T07:29:02.000Z</time>
      </trkpt>
      <trkpt lat="45.6806" lon="5.85191">
        <ele>344</ele>
        <time>2015-05-14T07:29:15.000Z</time>
      </trkpt>
      <trkpt lat="45.68053" lon="5.85195">
        <ele>344</ele>
        <time>2015-05-14T07:29:21.000Z</time>
      </trkpt>
      <trkpt lat="45.68044" lon="5.85198">
        <ele>343</ele>
        <time>2015-05-14T07:29:28.000Z</time>
      </trkpt>
      <trkpt lat="45.68031" lon="5.85203">
        <ele>343</ele>
        <time>2015-05-14T07:29:39.000Z</time>
      </trkpt>
      <trkpt lat="45.68017" lon="5.85202">
        <ele>343</ele>
        <time>2015-05-14T07:29:50.000Z</time>
      </trkpt>
      <trkpt lat="45.68008" lon="5.852">
        <ele>343</ele>
        <time>2015-05-14T07:29:57.000Z</time>
      </trkpt>
      <trkpt lat="45.67994" lon="5.85195">
        <ele>342</ele>
        <time>2015-05-14T07:30:09.000Z</time>
      </trkpt>
      <trkpt lat="45.67981" lon="5.8519">
        <ele>341</ele>
        <time>2015-05-14T07:30:19.000Z</time>
      </trkpt>
      <trkpt lat="45.67967" lon="5.85184">
        <ele>341</ele>
        <time>2015-05-14T07:30:31.000Z</time>
      </trkpt>
      <trkpt lat="45.67957" lon="5.85178">
        <ele>340</ele>
        <time>2015-05-14T07:30:41.000Z</time>
      </trkpt>
      <trkpt lat="45.67955" lon="5.85177">
        <ele>340</ele>
        <time>2015-05-14T07:30:42.000Z</time>
      </trkpt>
      <trkpt lat="45.67945" lon="5.85172">
        <ele>339</ele>
        <time>2015-05-14T07:30:51.000Z</time>
      </trkpt>
      <trkpt lat="45.67934" lon="5.85165">
        <ele>345</ele>
        <time>2015-05-14T07:31:00.000Z</time>
      </trkpt>
      <trkpt lat="45.67925" lon="5.85158">
        <ele>344</ele>
        <time>2015-05-14T07:31:09.000Z</time>
      </trkpt>
      <trkpt lat="45.67915" lon="5.85148">
        <ele>341</ele>
        <time>2015-05-14T07:31:18.000Z</time>
      </trkpt>
      <trkpt lat="45.67903" lon="5.85134">
        <ele>343</ele>
        <time>2015-05-14T07:31:30.000Z</time>
      </trkpt>
      <trkpt lat="45.67895" lon="5.85124">
        <ele>344</ele>
        <time>2015-05-14T07:31:38.000Z</time>
      </trkpt>
      <trkpt lat="45.67887" lon="5.85117">
        <ele>345</ele>
        <time>2015-05-14T07:31:45.000Z</time>
      </trkpt>
      <trkpt lat="45.67877" lon="5.85112">
        <ele>345</ele>
        <time>2015-05-14T07:31:54.000Z</time>
      </trkpt>
      <trkpt lat="45.67865" lon="5.85111">
        <ele>345</ele>
        <time>2015-05-14T07:32:03.000Z</time>
      </trkpt>
      <trkpt lat="45.67855" lon="5.85112">
        <ele>345</ele>
        <time>2015-05-14T07:32:12.000Z</time>
      </trkpt>
      <trkpt lat="45.67844" lon="5.85115">
        <ele>344</ele>
        <time>2015-05-14T07:32:21.000Z</time>
      </trkpt>
      <trkpt lat="45.67831" lon="5.85119">
        <ele>344</ele>
        <time>2015-05-14T07:32:32.000Z</time>
      </trkpt>
      <trkpt lat="45.67818" lon="5.85123">
        <ele>343</ele>
        <time>2015-05-14T07:32:43.000Z</time>
      </trkpt>
      <trkpt lat="45.67806" lon="5.85123">
        <ele>344</ele>
        <time>2015-05-14T07:32:53.000Z</time>
      </trkpt>
      <trkpt lat="45.67801" lon="5.85123">
        <ele>344</ele>
        <time>2015-05-14T07:32:59.000Z</time>
      </trkpt>
      <trkpt lat="45.67801" lon="5.85123">
        <ele>344</ele>
        <time>2015-05-14T07:33:00.000Z</time>
      </trkpt>
      <trkpt lat="45.678" lon="5.85126">
        <ele>343</ele>
        <time>2015-05-14T07:33:06.000Z</time>
      </trkpt>
      <trkpt lat="45.67798" lon="5.85123">
        <ele>344</ele>
        <time>2015-05-14T07:33:32.000Z</time>
      </trkpt>
      <trkpt lat="45.67796" lon="5.8512">
        <ele>344</ele>
        <time>2015-05-14T07:33:38.000Z</time>
      </trkpt>
      <trkpt lat="45.67791" lon="5.85121">
        <ele>344</ele>
        <time>2015-05-14T07:33:46.000Z</time>
      </trkpt>
      <trkpt lat="45.67789" lon="5.85123">
        <ele>344</ele>
        <time>2015-05-14T07:33:52.000Z</time>
      </trkpt>
      <trkpt lat="45.6778" lon="5.85126">
        <ele>344</ele>
        <time>2015-05-14T07:34:00.000Z</time>
      </trkpt>
      <trkpt lat="45.67772" lon="5.85128">
        <ele>344</ele>
        <time>2015-05-14T07:34:07.000Z</time>
      </trkpt>
      <trkpt lat="45.67769" lon="5.85131">
        <ele>344</ele>
        <time>2015-05-14T07:34:10.000Z</time>
      </trkpt>
      <trkpt lat="45.67766" lon="5.85132">
        <ele>343</ele>
        <time>2015-05-14T07:34:13.000Z</time>
      </trkpt>
      <trkpt lat="45.67765" lon="5.85133">
        <ele>343</ele>
        <time>2015-05-14T07:34:14.000Z</time>
      </trkpt>
      <trkpt lat="45.67757" lon="5.85137">
        <ele>343</ele>
        <time>2015-05-14T07:34:21.000Z</time>
      </trkpt>
      <trkpt lat="45.67756" lon="5.85137">
        <ele>343</ele>
        <time>2015-05-14T07:34:22.000Z</time>
      </trkpt>
      <trkpt lat="45.67754" lon="5.85138">
        <ele>343</ele>
        <time>2015-05-14T07:34:28.000Z</time>
      </trkpt>
      <trkpt lat="45.6775" lon="5.8514">
        <ele>342</ele>
        <time>2015-05-14T07:34:32.000Z</time>
      </trkpt>
      <trkpt lat="45.67749" lon="5.85141">
        <ele>346</ele>
        <time>2015-05-14T07:34:33.000Z</time>
      </trkpt>
      <trkpt lat="45.67743" lon="5.85143">
        <ele>345</ele>
        <time>2015-05-14T07:34:39.000Z</time>
      </trkpt>
      <trkpt lat="45.67738" lon="5.85147">
        <ele>345</ele>
        <time>2015-05-14T07:34:44.000Z</time>
      </trkpt>
      <trkpt lat="45.67736" lon="5.85148">
        <ele>345</ele>
        <time>2015-05-14T07:34:47.000Z</time>
      </trkpt>
      <trkpt lat="45.6773" lon="5.85151">
        <ele>346</ele>
        <time>2015-05-14T07:34:52.000Z</time>
      </trkpt>
      <trkpt lat="45.67728" lon="5.85152">
        <ele>346</ele>
        <time>2015-05-14T07:34:54.000Z</time>
      </trkpt>
      <trkpt lat="45.67727" lon="5.85153">
        <ele>346</ele>
        <time>2015-05-14T07:34:55.000Z</time>
      </trkpt>
      <trkpt lat="45.67724" lon="5.85155">
        <ele>346</ele>
        <time>2015-05-14T07:35:00.000Z</time>
      </trkpt>
      <trkpt lat="45.6772" lon="5.85156">
        <ele>346</ele>
        <time>2015-05-14T07:35:06.000Z</time>
      </trkpt>
      <trkpt lat="45.67714" lon="5.85161">
        <ele>347</ele>
        <time>2015-05-14T07:35:13.000Z</time>
      </trkpt>
      <trkpt lat="45.67707" lon="5.85166">
        <ele>347</ele>
        <time>2015-05-14T07:35:21.000Z</time>
      </trkpt>
      <trkpt lat="45.67701" lon="5.85165">
        <ele>348</ele>
        <time>2015-05-14T07:35:28.000Z</time>
      </trkpt>
      <trkpt lat="45.677" lon="5.85164">
        <ele>348</ele>
        <time>2015-05-14T07:35:29.000Z</time>
      </trkpt>
      <trkpt lat="45.677" lon="5.85156">
        <ele>348</ele>
        <time>2015-05-14T07:35:35.000Z</time>
      </trkpt>
      <trkpt lat="45.67697" lon="5.85148">
        <ele>348</ele>
        <time>2015-05-14T07:35:41.000Z</time>
      </trkpt>
      <trkpt lat="45.67693" lon="5.85141">
        <ele>349</ele>
        <time>2015-05-14T07:35:47.000Z</time>
      </trkpt>
      <trkpt lat="45.67691" lon="5.85141">
        <ele>349</ele>
        <time>2015-05-14T07:35:49.000Z</time>
      </trkpt>
      <trkpt lat="45.67688" lon="5.8514">
        <ele>349</ele>
        <time>2015-05-14T07:35:53.000Z</time>
      </trkpt>
      <trkpt lat="45.67686" lon="5.85141">
        <ele>349</ele>
        <time>2015-05-14T07:36:02.000Z</time>
      </trkpt>
      <trkpt lat="45.67681" lon="5.85144">
        <ele>349</ele>
        <time>2015-05-14T07:36:09.000Z</time>
      </trkpt>
      <trkpt lat="45.67667" lon="5.85145">
        <ele>349</ele>
        <time>2015-05-14T07:36:20.000Z</time>
      </trkpt>
      <trkpt lat="45.6766" lon="5.85141">
        <ele>355</ele>
        <time>2015-05-14T07:36:27.000Z</time>
      </trkpt>
      <trkpt lat="45.67659" lon="5.8514">
        <ele>355</ele>
        <time>2015-05-14T07:36:28.000Z</time>
      </trkpt>
      <trkpt lat="45.67654" lon="5.85141">
        <ele>355</ele>
        <time>2015-05-14T07:36:34.000Z</time>
      </trkpt>
      <trkpt lat="45.67647" lon="5.85147">
        <ele>355</ele>
        <time>2015-05-14T07:36:42.000Z</time>
      </trkpt>
      <trkpt lat="45.67645" lon="5.85152">
        <ele>355</ele>
        <time>2015-05-14T07:36:47.000Z</time>
      </trkpt>
      <trkpt lat="45.67645" lon="5.85153">
        <ele>355</ele>
        <time>2015-05-14T07:36:49.000Z</time>
      </trkpt>
      <trkpt lat="45.67644" lon="5.85154">
        <ele>355</ele>
        <time>2015-05-14T07:36:53.000Z</time>
      </trkpt>
      <trkpt lat="45.67644" lon="5.85157">
        <ele>354</ele>
        <time>2015-05-14T07:37:01.000Z</time>
      </trkpt>
      <trkpt lat="45.67641" lon="5.85164">
        <ele>355</ele>
        <time>2015-05-14T07:37:06.000Z</time>
      </trkpt>
      <trkpt lat="45.67635" lon="5.85164">
        <ele>355</ele>
        <time>2015-05-14T07:37:11.000Z</time>
      </trkpt>
      <trkpt lat="45.67633" lon="5.85162">
        <ele>356</ele>
        <time>2015-05-14T07:37:13.000Z</time>
      </trkpt>
      <trkpt lat="45.67627" lon="5.85153">
        <ele>357</ele>
        <time>2015-05-14T07:37:23.000Z</time>
      </trkpt>
      <trkpt lat="45.67624" lon="5.85146">
        <ele>357</ele>
        <time>2015-05-14T07:37:29.000Z</time>
      </trkpt>
      <trkpt lat="45.67624" lon="5.85146">
        <ele>357</ele>
        <time>2015-05-14T07:37:30.000Z</time>
      </trkpt>
      <trkpt lat="45.67621" lon="5.85142">
        <ele>358</ele>
        <time>2015-05-14T07:37:36.000Z</time>
      </trkpt>
      <trkpt lat="45.67619" lon="5.85139">
        <ele>358</ele>
        <time>2015-05-14T07:37:40.000Z</time>
      </trkpt>
      <trkpt lat="45.67618" lon="5.85135">
        <ele>358</ele>
        <time>2015-05-14T07:37:43.000Z</time>
      </trkpt>
      <trkpt lat="45.67618" lon="5.85134">
        <ele>358</ele>
        <time>2015-05-14T07:37:48.000Z</time>
      </trkpt>
      <trkpt lat="45.67613" lon="5.85132">
        <ele>359</ele>
        <time>2015-05-14T07:37:58.000Z</time>
      </trkpt>
      <trkpt lat="45.67606" lon="5.85133">
        <ele>359</ele>
        <time>2015-05-14T07:38:05.000Z</time>
      </trkpt>
      <trkpt lat="45.67598" lon="5.85137">
        <ele>359</ele>
        <time>2015-05-14T07:38:13.000Z</time>
      </trkpt>
      <trkpt lat="45.6759" lon="5.85142">
        <ele>359</ele>
        <time>2015-05-14T07:38:21.000Z</time>
      </trkpt>
      <trkpt lat="45.67582" lon="5.85147">
        <ele>364</ele>
        <time>2015-05-14T07:38:30.000Z</time>
      </trkpt>
      <trkpt lat="45.67575" lon="5.85149">
        <ele>365</ele>
        <time>2015-05-14T07:38:37.000Z</time>
      </trkpt>
      <trkpt lat="45.67567" lon="5.8515">
        <ele>366</ele>
        <time>2015-05-14T07:38:45.000Z</time>
      </trkpt>
      <trkpt lat="45.67556" lon="5.85146">
        <ele>368</ele>
        <time>2015-05-14T07:38:56.000Z</time>
      </trkpt>
      <trkpt lat="45.67554" lon="5.85145">
        <ele>368</ele>
        <time>2015-05-14T07:38:59.000Z</time>
      </trkpt>
      <trkpt lat="45.67551" lon="5.85144">
        <ele>369</ele>
        <time>2015-05-14T07:39:03.000Z</time>
      </trkpt>
      <trkpt lat="45.67549" lon="5.85142">
        <ele>369</ele>
        <time>2015-05-14T07:39:05.000Z</time>
      </trkpt>
      <trkpt lat="45.67546" lon="5.85139">
        <ele>370</ele>
        <time>2015-05-14T07:39:10.000Z</time>
      </trkpt>
      <trkpt lat="45.67541" lon="5.85138">
        <ele>370</ele>
        <time>2015-05-14T07:39:16.000Z</time>
      </trkpt>
      <trkpt lat="45.6754" lon="5.85138">
        <ele>370</ele>
        <time>2015-05-14T07:39:17.000Z</time>
      </trkpt>
      <trkpt lat="45.67534" lon="5.85136">
        <ele>371</ele>
        <time>2015-05-14T07:39:24.000Z</time>
      </trkpt>
      <trkpt lat="45.67528" lon="5.85136">
        <ele>371</ele>
        <time>2015-05-14T07:39:30.000Z</time>
      </trkpt>
      <trkpt lat="45.67525" lon="5.85135">
        <ele>371</ele>
        <time>2015-05-14T07:39:33.000Z</time>
      </trkpt>
      <trkpt lat="45.67517" lon="5.85135">
        <ele>372</ele>
        <time>2015-05-14T07:39:42.000Z</time>
      </trkpt>
      <trkpt lat="45.67514" lon="5.85136">
        <ele>372</ele>
        <time>2015-05-14T07:39:45.000Z</time>
      </trkpt>
      <trkpt lat="45.67511" lon="5.85135">
        <ele>372</ele>
        <time>2015-05-14T07:39:48.000Z</time>
      </trkpt>
      <trkpt lat="45.6751" lon="5.85136">
        <ele>372</ele>
        <time>2015-05-14T07:39:49.000Z</time>
      </trkpt>
      <trkpt lat="45.67506" lon="5.85136">
        <ele>372</ele>
        <time>2015-05-14T07:39:53.000Z</time>
      </trkpt>
      <trkpt lat="45.67504" lon="5.85136">
        <ele>372</ele>
        <time>2015-05-14T07:39:56.000Z</time>
      </trkpt>
      <trkpt lat="45.67497" lon="5.85137">
        <ele>379</ele>
        <time>2015-05-14T07:40:03.000Z</time>
      </trkpt>
      <trkpt lat="45.67494" lon="5.85137">
        <ele>379</ele>
        <time>2015-05-14T07:40:06.000Z</time>
      </trkpt>
      <trkpt lat="45.67493" lon="5.85137">
        <ele>379</ele>
        <time>2015-05-14T07:40:08.000Z</time>
      </trkpt>
      <trkpt lat="45.67489" lon="5.85137">
        <ele>379</ele>
        <time>2015-05-14T07:40:12.000Z</time>
      </trkpt>
      <trkpt lat="45.67486" lon="5.85137">
        <ele>380</ele>
        <time>2015-05-14T07:40:15.000Z</time>
      </trkpt>
      <trkpt lat="45.67485" lon="5.85137">
        <ele>380</ele>
        <time>2015-05-14T07:40:17.000Z</time>
      </trkpt>
      <trkpt lat="45.6748" lon="5.85137">
        <ele>380</ele>
        <time>2015-05-14T07:40:22.000Z</time>
      </trkpt>
      <trkpt lat="45.67475" lon="5.85137">
        <ele>381</ele>
        <time>2015-05-14T07:40:28.000Z</time>
      </trkpt>
      <trkpt lat="45.67469" lon="5.85136">
        <ele>381</ele>
        <time>2015-05-14T07:40:35.000Z</time>
      </trkpt>
      <trkpt lat="45.67462" lon="5.85134">
        <ele>382</ele>
        <time>2015-05-14T07:40:42.000Z</time>
      </trkpt>
      <trkpt lat="45.67457" lon="5.85131">
        <ele>382</ele>
        <time>2015-05-14T07:40:48.000Z</time>
      </trkpt>
      <trkpt lat="45.67452" lon="5.85128">
        <ele>383</ele>
        <time>2015-05-14T07:40:54.000Z</time>
      </trkpt>
      <trkpt lat="45.67448" lon="5.85125">
        <ele>384</ele>
        <time>2015-05-14T07:41:00.000Z</time>
      </trkpt>
      <trkpt lat="45.67445" lon="5.85123">
        <ele>384</ele>
        <time>2015-05-14T07:41:07.000Z</time>
      </trkpt>
      <trkpt lat="45.6744" lon="5.85127">
        <ele>384</ele>
        <time>2015-05-14T07:41:28.000Z</time>
      </trkpt>
      <trkpt lat="45.67433" lon="5.85128">
        <ele>384</ele>
        <time>2015-05-14T07:41:34.000Z</time>
      </trkpt>
      <trkpt lat="45.67433" lon="5.85127">
        <ele>384</ele>
        <time>2015-05-14T07:41:35.000Z</time>
      </trkpt>
      <trkpt lat="45.67425" lon="5.85127">
        <ele>384</ele>
        <time>2015-05-14T07:41:44.000Z</time>
      </trkpt>
      <trkpt lat="45.67424" lon="5.85127">
        <ele>384</ele>
        <time>2015-05-14T07:41:45.000Z</time>
      </trkpt>
      <trkpt lat="45.67421" lon="5.85125">
        <ele>385</ele>
        <time>2015-05-14T07:41:49.000Z</time>
      </trkpt>
      <trkpt lat="45.6742" lon="5.85125">
        <ele>385</ele>
        <time>2015-05-14T07:41:50.000Z</time>
      </trkpt>
      <trkpt lat="45.67417" lon="5.85123">
        <ele>385</ele>
        <time>2015-05-14T07:41:54.000Z</time>
      </trkpt>
      <trkpt lat="45.67416" lon="5.85122">
        <ele>388</ele>
        <time>2015-05-14T07:41:58.000Z</time>
      </trkpt>
      <trkpt lat="45.67413" lon="5.85119">
        <ele>389</ele>
        <time>2015-05-14T07:42:04.000Z</time>
      </trkpt>
      <trkpt lat="45.6741" lon="5.85116">
        <ele>389</ele>
        <time>2015-05-14T07:42:10.000Z</time>
      </trkpt>
      <trkpt lat="45.67407" lon="5.85113">
        <ele>390</ele>
        <time>2015-05-14T07:42:16.000Z</time>
      </trkpt>
      <trkpt lat="45.67405" lon="5.85111">
        <ele>390</ele>
        <time>2015-05-14T07:42:21.000Z</time>
      </trkpt>
      <trkpt lat="45.67402" lon="5.85108">
        <ele>390</ele>
        <time>2015-05-14T07:42:27.000Z</time>
      </trkpt>
      <trkpt lat="45.67398" lon="5.85105">
        <ele>391</ele>
        <time>2015-05-14T07:42:32.000Z</time>
      </trkpt>
      <trkpt lat="45.67393" lon="5.85101">
        <ele>391</ele>
        <time>2015-05-14T07:42:38.000Z</time>
      </trkpt>
      <trkpt lat="45.67389" lon="5.85099">
        <ele>391</ele>
        <time>2015-05-14T07:42:44.000Z</time>
      </trkpt>
      <trkpt lat="45.67385" lon="5.85094">
        <ele>391</ele>
        <time>2015-05-14T07:42:50.000Z</time>
      </trkpt>
      <trkpt lat="45.67381" lon="5.85091">
        <ele>391</ele>
        <time>2015-05-14T07:42:56.000Z</time>
      </trkpt>
      <trkpt lat="45.67379" lon="5.85089">
        <ele>391</ele>
        <time>2015-05-14T07:43:01.000Z</time>
      </trkpt>
      <trkpt lat="45.67376" lon="5.85085">
        <ele>391</ele>
        <time>2015-05-14T07:43:07.000Z</time>
      </trkpt>
      <trkpt lat="45.67377" lon="5.8508">
        <ele>407</ele>
        <time>2015-05-14T07:43:14.000Z</time>
      </trkpt>
      <trkpt lat="45.6738" lon="5.85076">
        <ele>408</ele>
        <time>2015-05-14T07:43:21.000Z</time>
      </trkpt>
      <trkpt lat="45.67382" lon="5.85075">
        <ele>408</ele>
        <time>2015-05-14T07:43:26.000Z</time>
      </trkpt>
      <trkpt lat="45.67385" lon="5.85074">
        <ele>407</ele>
        <time>2015-05-14T07:43:31.000Z</time>
      </trkpt>
      <trkpt lat="45.67387" lon="5.85072">
        <ele>407</ele>
        <time>2015-05-14T07:43:36.000Z</time>
      </trkpt>
      <trkpt lat="45.67388" lon="5.85071">
        <ele>407</ele>
        <time>2015-05-14T07:43:43.000Z</time>
      </trkpt>
      <trkpt lat="45.67388" lon="5.85064">
        <ele>408</ele>
        <time>2015-05-14T07:44:33.000Z</time>
      </trkpt>
      <trkpt lat="45.67389" lon="5.85061">
        <ele>409</ele>
        <time>2015-05-14T07:44:38.000Z</time>
      </trkpt>
      <trkpt lat="45.67392" lon="5.85056">
        <ele>409</ele>
        <time>2015-05-14T07:44:44.000Z</time>
      </trkpt>
      <trkpt lat="45.67395" lon="5.85052">
        <ele>410</ele>
        <time>2015-05-14T07:44:50.000Z</time>
      </trkpt>
      <trkpt lat="45.67396" lon="5.85047">
        <ele>411</ele>
        <time>2015-05-14T07:44:56.000Z</time>
      </trkpt>
      <trkpt lat="45.67398" lon="5.85044">
        <ele>411</ele>
        <time>2015-05-14T07:45:00.000Z</time>
      </trkpt>
      <trkpt lat="45.67401" lon="5.85037">
        <ele>412</ele>
        <time>2015-05-14T07:45:08.000Z</time>
      </trkpt>
      <trkpt lat="45.67403" lon="5.85031">
        <ele>413</ele>
        <time>2015-05-14T07:45:14.000Z</time>
      </trkpt>
      <trkpt lat="45.67405" lon="5.85027">
        <ele>413</ele>
        <time>2015-05-14T07:45:18.000Z</time>
      </trkpt>
      <trkpt lat="45.67407" lon="5.85025">
        <ele>414</ele>
        <time>2015-05-14T07:45:20.000Z</time>
      </trkpt>
      <trkpt lat="45.6741" lon="5.85022">
        <ele>414</ele>
        <time>2015-05-14T07:45:25.000Z</time>
      </trkpt>
      <trkpt lat="45.6741" lon="5.85021">
        <ele>414</ele>
        <time>2015-05-14T07:45:26.000Z</time>
      </trkpt>
      <trkpt lat="45.67412" lon="5.85019">
        <ele>414</ele>
        <time>2015-05-14T07:45:30.000Z</time>
      </trkpt>
      <trkpt lat="45.67414" lon="5.85019">
        <ele>414</ele>
        <time>2015-05-14T07:45:35.000Z</time>
      </trkpt>
      <trkpt lat="45.67417" lon="5.85019">
        <ele>409</ele>
        <time>2015-05-14T07:45:40.000Z</time>
      </trkpt>
      <trkpt lat="45.67422" lon="5.85018">
        <ele>409</ele>
        <time>2015-05-14T07:45:47.000Z</time>
      </trkpt>
      <trkpt lat="45.67427" lon="5.85014">
        <ele>409</ele>
        <time>2015-05-14T07:45:54.000Z</time>
      </trkpt>
      <trkpt lat="45.6743" lon="5.85008">
        <ele>410</ele>
        <time>2015-05-14T07:46:00.000Z</time>
      </trkpt>
      <trkpt lat="45.67431" lon="5.85004">
        <ele>410</ele>
        <time>2015-05-14T07:46:04.000Z</time>
      </trkpt>
      <trkpt lat="45.67431" lon="5.85003">
        <ele>410</ele>
        <time>2015-05-14T07:46:05.000Z</time>
      </trkpt>
      <trkpt lat="45.67431" lon="5.84994">
        <ele>418</ele>
        <time>2015-05-14T07:46:13.000Z</time>
      </trkpt>
      <trkpt lat="45.67431" lon="5.84986">
        <ele>418</ele>
        <time>2015-05-14T07:46:20.000Z</time>
      </trkpt>
      <trkpt lat="45.67431" lon="5.84979">
        <ele>419</ele>
        <time>2015-05-14T07:46:26.000Z</time>
      </trkpt>
      <trkpt lat="45.67431" lon="5.84977">
        <ele>419</ele>
        <time>2015-05-14T07:46:28.000Z</time>
      </trkpt>
      <trkpt lat="45.67431" lon="5.84974">
        <ele>420</ele>
        <time>2015-05-14T07:46:30.000Z</time>
      </trkpt>
      <trkpt lat="45.67432" lon="5.84969">
        <ele>420</ele>
        <time>2015-05-14T07:46:35.000Z</time>
      </trkpt>
      <trkpt lat="45.67432" lon="5.84966">
        <ele>421</ele>
        <time>2015-05-14T07:46:37.000Z</time>
      </trkpt>
      <trkpt lat="45.67432" lon="5.84962">
        <ele>421</ele>
        <time>2015-05-14T07:46:41.000Z</time>
      </trkpt>
      <trkpt lat="45.67432" lon="5.84962">
        <ele>421</ele>
        <time>2015-05-14T07:46:42.000Z</time>
      </trkpt>
      <trkpt lat="45.67435" lon="5.84956">
        <ele>422</ele>
        <time>2015-05-14T07:46:49.000Z</time>
      </trkpt>
      <trkpt lat="45.67437" lon="5.84952">
        <ele>422</ele>
        <time>2015-05-14T07:46:55.000Z</time>
      </trkpt>
      <trkpt lat="45.67439" lon="5.8495">
        <ele>422</ele>
        <time>2015-05-14T07:46:57.000Z</time>
      </trkpt>
      <trkpt lat="45.6744" lon="5.84949">
        <ele>423</ele>
        <time>2015-05-14T07:47:01.000Z</time>
      </trkpt>
      <trkpt lat="45.67443" lon="5.84942">
        <ele>423</ele>
        <time>2015-05-14T07:47:09.000Z</time>
      </trkpt>
      <trkpt lat="45.67445" lon="5.84937">
        <ele>424</ele>
        <time>2015-05-14T07:47:16.000Z</time>
      </trkpt>
      <trkpt lat="45.67449" lon="5.84929">
        <ele>424</ele>
        <time>2015-05-14T07:47:25.000Z</time>
      </trkpt>
      <trkpt lat="45.67453" lon="5.84923">
        <ele>424</ele>
        <time>2015-05-14T07:47:32.000Z</time>
      </trkpt>
      <trkpt lat="45.67455" lon="5.84917">
        <ele>438</ele>
        <time>2015-05-14T07:47:39.000Z</time>
      </trkpt>
      <trkpt lat="45.67458" lon="5.84913">
        <ele>438</ele>
        <time>2015-05-14T07:47:45.000Z</time>
      </trkpt>
      <trkpt lat="45.67461" lon="5.84909">
        <ele>438</ele>
        <time>2015-05-14T07:47:50.000Z</time>
      </trkpt>
      <trkpt lat="45.67465" lon="5.84902">
        <ele>438</ele>
        <time>2015-05-14T07:47:58.000Z</time>
      </trkpt>
      <trkpt lat="45.67467" lon="5.84898">
        <ele>438</ele>
        <time>2015-05-14T07:48:02.000Z</time>
      </trkpt>
      <trkpt lat="45.6747" lon="5.84896">
        <ele>438</ele>
        <time>2015-05-14T07:48:05.000Z</time>
      </trkpt>
      <trkpt lat="45.6747" lon="5.84895">
        <ele>438</ele>
        <time>2015-05-14T07:48:06.000Z</time>
      </trkpt>
      <trkpt lat="45.67473" lon="5.84894">
        <ele>438</ele>
        <time>2015-05-14T07:48:10.000Z</time>
      </trkpt>
      <trkpt lat="45.67475" lon="5.84894">
        <ele>438</ele>
        <time>2015-05-14T07:48:12.000Z</time>
      </trkpt>
      <trkpt lat="45.67481" lon="5.84895">
        <ele>437</ele>
        <time>2015-05-14T07:48:20.000Z</time>
      </trkpt>
      <trkpt lat="45.67485" lon="5.84896">
        <ele>436</ele>
        <time>2015-05-14T07:48:26.000Z</time>
      </trkpt>
      <trkpt lat="45.67489" lon="5.84897">
        <ele>435</ele>
        <time>2015-05-14T07:48:32.000Z</time>
      </trkpt>
      <trkpt lat="45.67494" lon="5.84897">
        <ele>434</ele>
        <time>2015-05-14T07:48:39.000Z</time>
      </trkpt>
      <trkpt lat="45.675" lon="5.84895">
        <ele>434</ele>
        <time>2015-05-14T07:48:46.000Z</time>
      </trkpt>
      <trkpt lat="45.67502" lon="5.84894">
        <ele>431</ele>
        <time>2015-05-14T07:48:49.000Z</time>
      </trkpt>
      <trkpt lat="45.67504" lon="5.84891">
        <ele>432</ele>
        <time>2015-05-14T07:48:53.000Z</time>
      </trkpt>
      <trkpt lat="45.67504" lon="5.84886">
        <ele>433</ele>
        <time>2015-05-14T07:48:59.000Z</time>
      </trkpt>
      <trkpt lat="45.67501" lon="5.84881">
        <ele>435</ele>
        <time>2015-05-14T07:49:06.000Z</time>
      </trkpt>
      <trkpt lat="45.67496" lon="5.84878">
        <ele>440</ele>
        <time>2015-05-14T07:49:14.000Z</time>
      </trkpt>
      <trkpt lat="45.67491" lon="5.84873">
        <ele>441</ele>
        <time>2015-05-14T07:49:23.000Z</time>
      </trkpt>
      <trkpt lat="45.67489" lon="5.84869">
        <ele>442</ele>
        <time>2015-05-14T07:49:30.000Z</time>
      </trkpt>
      <trkpt lat="45.67486" lon="5.84865">
        <ele>443</ele>
        <time>2015-05-14T07:49:38.000Z</time>
      </trkpt>
      <trkpt lat="45.67482" lon="5.8486">
        <ele>444</ele>
        <time>2015-05-14T07:49:45.000Z</time>
      </trkpt>
      <trkpt lat="45.67477" lon="5.84855">
        <ele>445</ele>
        <time>2015-05-14T07:49:54.000Z</time>
      </trkpt>
      <trkpt lat="45.67471" lon="5.8485">
        <ele>446</ele>
        <time>2015-05-14T07:50:04.000Z</time>
      </trkpt>
      <trkpt lat="45.67466" lon="5.84846">
        <ele>446</ele>
        <time>2015-05-14T07:50:12.000Z</time>
      </trkpt>
      <trkpt lat="45.67462" lon="5.84844">
        <ele>446</ele>
        <time>2015-05-14T07:50:19.000Z</time>
      </trkpt>
      <trkpt lat="45.67458" lon="5.84842">
        <ele>447</ele>
        <time>2015-05-14T07:50:25.000Z</time>
      </trkpt>
      <trkpt lat="45.67454" lon="5.84839">
        <ele>447</ele>
        <time>2015-05-14T07:50:32.000Z</time>
      </trkpt>
      <trkpt lat="45.67451" lon="5.84837">
        <ele>447</ele>
        <time>2015-05-14T07:50:37.000Z</time>
      </trkpt>
      <trkpt lat="45.67448" lon="5.84836">
        <ele>448</ele>
        <time>2015-05-14T07:50:43.000Z</time>
      </trkpt>
      <trkpt lat="45.67444" lon="5.84833">
        <ele>448</ele>
        <time>2015-05-14T07:50:49.000Z</time>
      </trkpt>
      <trkpt lat="45.67439" lon="5.84831">
        <ele>464</ele>
        <time>2015-05-14T07:50:56.000Z</time>
      </trkpt>
      <trkpt lat="45.67435" lon="5.8483">
        <ele>464</ele>
        <time>2015-05-14T07:51:04.000Z</time>
      </trkpt>
      <trkpt lat="45.6743" lon="5.8483">
        <ele>463</ele>
        <time>2015-05-14T07:51:11.000Z</time>
      </trkpt>
      <trkpt lat="45.67426" lon="5.84829">
        <ele>462</ele>
        <time>2015-05-14T07:51:18.000Z</time>
      </trkpt>
      <trkpt lat="45.6742" lon="5.84831">
        <ele>459</ele>
        <time>2015-05-14T07:51:26.000Z</time>
      </trkpt>
      <trkpt lat="45.67415" lon="5.84833">
        <ele>459</ele>
        <time>2015-05-14T07:51:33.000Z</time>
      </trkpt>
      <trkpt lat="45.67412" lon="5.84834">
        <ele>458</ele>
        <time>2015-05-14T07:51:38.000Z</time>
      </trkpt>
      <trkpt lat="45.67406" lon="5.84832">
        <ele>466</ele>
        <time>2015-05-14T07:51:45.000Z</time>
      </trkpt>
      <trkpt lat="45.67402" lon="5.84831">
        <ele>468</ele>
        <time>2015-05-14T07:51:51.000Z</time>
      </trkpt>
      <trkpt lat="45.67397" lon="5.84831">
        <ele>471</ele>
        <time>2015-05-14T07:51:58.000Z</time>
      </trkpt>
      <trkpt lat="45.67393" lon="5.84831">
        <ele>473</ele>
        <time>2015-05-14T07:52:03.000Z</time>
      </trkpt>
      <trkpt lat="45.67387" lon="5.8483">
        <ele>475</ele>
        <time>2015-05-14T07:52:10.000Z</time>
      </trkpt>
      <trkpt lat="45.67383" lon="5.8483">
        <ele>476</ele>
        <time>2015-05-14T07:52:15.000Z</time>
      </trkpt>
      <trkpt lat="45.67381" lon="5.8483">
        <ele>476</ele>
        <time>2015-05-14T07:52:17.000Z</time>
      </trkpt>
      <trkpt lat="45.67381" lon="5.8483">
        <ele>477</ele>
        <time>2015-05-14T07:52:18.000Z</time>
      </trkpt>
      <trkpt lat="45.67379" lon="5.84831">
        <ele>477</ele>
        <time>2015-05-14T07:52:21.000Z</time>
      </trkpt>
      <trkpt lat="45.67374" lon="5.84833">
        <ele>478</ele>
        <time>2015-05-14T07:52:28.000Z</time>
      </trkpt>
      <trkpt lat="45.6737" lon="5.84837">
        <ele>466</ele>
        <time>2015-05-14T07:52:35.000Z</time>
      </trkpt>
      <trkpt lat="45.67371" lon="5.8484">
        <ele>465</ele>
        <time>2015-05-14T07:52:41.000Z</time>
      </trkpt>
      <trkpt lat="45.67369" lon="5.84844">
        <ele>466</ele>
        <time>2015-05-14T07:52:45.000Z</time>
      </trkpt>
      <trkpt lat="45.67369" lon="5.84851">
        <ele>465</ele>
        <time>2015-05-14T07:52:52.000Z</time>
      </trkpt>
      <trkpt lat="45.67369" lon="5.84855">
        <ele>465</ele>
        <time>2015-05-14T07:52:57.000Z</time>
      </trkpt>
      <trkpt lat="45.6737" lon="5.84858">
        <ele>464</ele>
        <time>2015-05-14T07:53:02.000Z</time>
      </trkpt>
      <trkpt lat="45.67369" lon="5.84861">
        <ele>464</ele>
        <time>2015-05-14T07:53:11.000Z</time>
      </trkpt>
      <trkpt lat="45.67365" lon="5.84874">
        <ele>463</ele>
        <time>2015-05-14T07:54:51.000Z</time>
      </trkpt>
      <trkpt lat="45.67362" lon="5.8488">
        <ele>463</ele>
        <time>2015-05-14T07:54:56.000Z</time>
      </trkpt>
      <trkpt lat="45.67361" lon="5.84889">
        <ele>462</ele>
        <time>2015-05-14T07:55:05.000Z</time>
      </trkpt>
      <trkpt lat="45.6736" lon="5.84897">
        <ele>462</ele>
        <time>2015-05-14T07:55:13.000Z</time>
      </trkpt>
      <trkpt lat="45.67356" lon="5.84902">
        <ele>463</ele>
        <time>2015-05-14T07:55:19.000Z</time>
      </trkpt>
      <trkpt lat="45.67354" lon="5.84907">
        <ele>463</ele>
        <time>2015-05-14T07:55:24.000Z</time>
      </trkpt>
      <trkpt lat="45.67352" lon="5.8491">
        <ele>463</ele>
        <time>2015-05-14T07:55:27.000Z</time>
      </trkpt>
      <trkpt lat="45.6735" lon="5.84913">
        <ele>464</ele>
        <time>2015-05-14T07:55:32.000Z</time>
      </trkpt>
      <trkpt lat="45.67345" lon="5.84915">
        <ele>465</ele>
        <time>2015-05-14T07:55:38.000Z</time>
      </trkpt>
      <trkpt lat="45.67341" lon="5.84916">
        <ele>466</ele>
        <time>2015-05-14T07:55:44.000Z</time>
      </trkpt>
      <trkpt lat="45.67337" lon="5.84916">
        <ele>467</ele>
        <time>2015-05-14T07:55:50.000Z</time>
      </trkpt>
      <trkpt lat="45.67333" lon="5.84916">
        <ele>469</ele>
        <time>2015-05-14T07:55:56.000Z</time>
      </trkpt>
      <trkpt lat="45.67327" lon="5.84917">
        <ele>466</ele>
        <time>2015-05-14T07:56:04.000Z</time>
      </trkpt>
      <trkpt lat="45.67321" lon="5.84918">
        <ele>465</ele>
        <time>2015-05-14T07:56:12.000Z</time>
      </trkpt>
      <trkpt lat="45.67316" lon="5.8492">
        <ele>464</ele>
        <time>2015-05-14T07:56:20.000Z</time>
      </trkpt>
      <trkpt lat="45.67311" lon="5.84923">
        <ele>463</ele>
        <time>2015-05-14T07:56:28.000Z</time>
      </trkpt>
      <trkpt lat="45.67307" lon="5.84926">
        <ele>463</ele>
        <time>2015-05-14T07:56:34.000Z</time>
      </trkpt>
      <trkpt lat="45.67302" lon="5.84928">
        <ele>463</ele>
        <time>2015-05-14T07:56:41.000Z</time>
      </trkpt>
      <trkpt lat="45.67298" lon="5.8493">
        <ele>463</ele>
        <time>2015-05-14T07:56:47.000Z</time>
      </trkpt>
      <trkpt lat="45.67292" lon="5.84933">
        <ele>463</ele>
        <time>2015-05-14T07:56:54.000Z</time>
      </trkpt>
      <trkpt lat="45.67289" lon="5.84934">
        <ele>463</ele>
        <time>2015-05-14T07:57:01.000Z</time>
      </trkpt>
      <trkpt lat="45.67285" lon="5.84933">
        <ele>464</ele>
        <time>2015-05-14T07:57:08.000Z</time>
      </trkpt>
      <trkpt lat="45.67278" lon="5.84927">
        <ele>466</ele>
        <time>2015-05-14T07:57:15.000Z</time>
      </trkpt>
      <trkpt lat="45.67277" lon="5.84923">
        <ele>467</ele>
        <time>2015-05-14T07:57:18.000Z</time>
      </trkpt>
      <trkpt lat="45.67278" lon="5.84919">
        <ele>468</ele>
        <time>2015-05-14T07:57:21.000Z</time>
      </trkpt>
      <trkpt lat="45.67279" lon="5.84918">
        <ele>468</ele>
        <time>2015-05-14T07:57:22.000Z</time>
      </trkpt>
      <trkpt lat="45.67283" lon="5.84913">
        <ele>484</ele>
        <time>2015-05-14T07:57:28.000Z</time>
      </trkpt>
      <trkpt lat="45.67283" lon="5.84912">
        <ele>484</ele>
        <time>2015-05-14T07:57:29.000Z</time>
      </trkpt>
      <trkpt lat="45.67288" lon="5.84911">
        <ele>484</ele>
        <time>2015-05-14T07:57:35.000Z</time>
      </trkpt>
      <trkpt lat="45.67293" lon="5.84907">
        <ele>484</ele>
        <time>2015-05-14T07:57:42.000Z</time>
      </trkpt>
      <trkpt lat="45.67295" lon="5.84904">
        <ele>483</ele>
        <time>2015-05-14T07:57:47.000Z</time>
      </trkpt>
      <trkpt lat="45.67298" lon="5.849">
        <ele>483</ele>
        <time>2015-05-14T07:57:52.000Z</time>
      </trkpt>
      <trkpt lat="45.67302" lon="5.84894">
        <ele>484</ele>
        <time>2015-05-14T07:58:00.000Z</time>
      </trkpt>
      <trkpt lat="45.67304" lon="5.84891">
        <ele>484</ele>
        <time>2015-05-14T07:58:05.000Z</time>
      </trkpt>
      <trkpt lat="45.67306" lon="5.84881">
        <ele>485</ele>
        <time>2015-05-14T07:58:15.000Z</time>
      </trkpt>
      <trkpt lat="45.67303" lon="5.84877">
        <ele>486</ele>
        <time>2015-05-14T07:58:21.000Z</time>
      </trkpt>
      <trkpt lat="45.673" lon="5.84876">
        <ele>486</ele>
        <time>2015-05-14T07:58:32.000Z</time>
      </trkpt>
      <trkpt lat="45.67296" lon="5.84878">
        <ele>487</ele>
        <time>2015-05-14T07:58:39.000Z</time>
      </trkpt>
      <trkpt lat="45.67293" lon="5.84878">
        <ele>487</ele>
        <time>2015-05-14T07:58:45.000Z</time>
      </trkpt>
      <trkpt lat="45.67288" lon="5.84878">
        <ele>488</ele>
        <time>2015-05-14T07:58:51.000Z</time>
      </trkpt>
      <trkpt lat="45.67284" lon="5.84877">
        <ele>488</ele>
        <time>2015-05-14T07:58:58.000Z</time>
      </trkpt>
      <trkpt lat="45.67279" lon="5.84876">
        <ele>489</ele>
        <time>2015-05-14T07:59:05.000Z</time>
      </trkpt>
      <trkpt lat="45.67276" lon="5.84877">
        <ele>489</ele>
        <time>2015-05-14T07:59:10.000Z</time>
      </trkpt>
      <trkpt lat="45.67271" lon="5.84877">
        <ele>490</ele>
        <time>2015-05-14T07:59:18.000Z</time>
      </trkpt>
      <trkpt lat="45.67265" lon="5.84877">
        <ele>490</ele>
        <time>2015-05-14T07:59:26.000Z</time>
      </trkpt>
      <trkpt lat="45.67259" lon="5.84876">
        <ele>491</ele>
        <time>2015-05-14T07:59:34.000Z</time>
      </trkpt>
      <trkpt lat="45.67255" lon="5.84875">
        <ele>492</ele>
        <time>2015-05-14T07:59:40.000Z</time>
      </trkpt>
      <trkpt lat="45.6725" lon="5.84875">
        <ele>497</ele>
        <time>2015-05-14T07:59:54.000Z</time>
      </trkpt>
      <trkpt lat="45.67245" lon="5.84873">
        <ele>498</ele>
        <time>2015-05-14T08:00:00.000Z</time>
      </trkpt>
      <trkpt lat="45.67242" lon="5.84871">
        <ele>498</ele>
        <time>2015-05-14T08:00:05.000Z</time>
      </trkpt>
      <trkpt lat="45.67238" lon="5.84869">
        <ele>499</ele>
        <time>2015-05-14T08:00:12.000Z</time>
      </trkpt>
      <trkpt lat="45.67235" lon="5.84867">
        <ele>499</ele>
        <time>2015-05-14T08:00:17.000Z</time>
      </trkpt>
      <trkpt lat="45.67231" lon="5.84865">
        <ele>499</ele>
        <time>2015-05-14T08:00:24.000Z</time>
      </trkpt>
      <trkpt lat="45.67228" lon="5.84864">
        <ele>499</ele>
        <time>2015-05-14T08:00:28.000Z</time>
      </trkpt>
      <trkpt lat="45.67224" lon="5.84862">
        <ele>500</ele>
        <time>2015-05-14T08:00:34.000Z</time>
      </trkpt>
      <trkpt lat="45.6722" lon="5.84859">
        <ele>500</ele>
        <time>2015-05-14T08:00:40.000Z</time>
      </trkpt>
      <trkpt lat="45.67216" lon="5.84856">
        <ele>500</ele>
        <time>2015-05-14T08:00:47.000Z</time>
      </trkpt>
      <trkpt lat="45.67212" lon="5.84853">
        <ele>500</ele>
        <time>2015-05-14T08:00:53.000Z</time>
      </trkpt>
      <trkpt lat="45.67211" lon="5.84851">
        <ele>501</ele>
        <time>2015-05-14T08:00:55.000Z</time>
      </trkpt>
      <trkpt lat="45.67208" lon="5.84847">
        <ele>501</ele>
        <time>2015-05-14T08:01:00.000Z</time>
      </trkpt>
      <trkpt lat="45.67203" lon="5.84842">
        <ele>502</ele>
        <time>2015-05-14T08:01:07.000Z</time>
      </trkpt>
      <trkpt lat="45.67201" lon="5.8484">
        <ele>502</ele>
        <time>2015-05-14T08:01:11.000Z</time>
      </trkpt>
      <trkpt lat="45.67199" lon="5.84838">
        <ele>503</ele>
        <time>2015-05-14T08:01:14.000Z</time>
      </trkpt>
      <trkpt lat="45.67196" lon="5.84834">
        <ele>503</ele>
        <time>2015-05-14T08:01:20.000Z</time>
      </trkpt>
      <trkpt lat="45.67193" lon="5.84833">
        <ele>520</ele>
        <time>2015-05-14T08:01:29.000Z</time>
      </trkpt>
      <trkpt lat="45.67189" lon="5.8483">
        <ele>520</ele>
        <time>2015-05-14T08:01:35.000Z</time>
      </trkpt>
      <trkpt lat="45.67185" lon="5.84827">
        <ele>519</ele>
        <time>2015-05-14T08:01:41.000Z</time>
      </trkpt>
      <trkpt lat="45.67182" lon="5.84826">
        <ele>519</ele>
        <time>2015-05-14T08:01:47.000Z</time>
      </trkpt>
      <trkpt lat="45.67179" lon="5.84823">
        <ele>519</ele>
        <time>2015-05-14T08:01:53.000Z</time>
      </trkpt>
      <trkpt lat="45.67176" lon="5.84822">
        <ele>519</ele>
        <time>2015-05-14T08:02:02.000Z</time>
      </trkpt>
      <trkpt lat="45.67173" lon="5.8482">
        <ele>519</ele>
        <time>2015-05-14T08:02:07.000Z</time>
      </trkpt>
      <trkpt lat="45.67171" lon="5.84818">
        <ele>519</ele>
        <time>2015-05-14T08:02:12.000Z</time>
      </trkpt>
      <trkpt lat="45.67168" lon="5.84816">
        <ele>520</ele>
        <time>2015-05-14T08:02:18.000Z</time>
      </trkpt>
      <trkpt lat="45.67161" lon="5.84814">
        <ele>519</ele>
        <time>2015-05-14T08:02:27.000Z</time>
      </trkpt>
      <trkpt lat="45.67155" lon="5.84812">
        <ele>520</ele>
        <time>2015-05-14T08:02:36.000Z</time>
      </trkpt>
      <trkpt lat="45.67148" lon="5.8481">
        <ele>520</ele>
        <time>2015-05-14T08:02:44.000Z</time>
      </trkpt>
      <trkpt lat="45.67143" lon="5.84808">
        <ele>521</ele>
        <time>2015-05-14T08:02:51.000Z</time>
      </trkpt>
      <trkpt lat="45.67142" lon="5.84807">
        <ele>521</ele>
        <time>2015-05-14T08:02:52.000Z</time>
      </trkpt>
      <trkpt lat="45.67137" lon="5.84803">
        <ele>521</ele>
        <time>2015-05-14T08:02:59.000Z</time>
      </trkpt>
      <trkpt lat="45.67133" lon="5.84799">
        <ele>522</ele>
        <time>2015-05-14T08:03:05.000Z</time>
      </trkpt>
      <trkpt lat="45.6713" lon="5.84795">
        <ele>523</ele>
        <time>2015-05-14T08:03:10.000Z</time>
      </trkpt>
      <trkpt lat="45.6713" lon="5.84794">
        <ele>523</ele>
        <time>2015-05-14T08:03:11.000Z</time>
      </trkpt>
      <trkpt lat="45.67128" lon="5.84792">
        <ele>523</ele>
        <time>2015-05-14T08:03:17.000Z</time>
      </trkpt>
      <trkpt lat="45.67127" lon="5.84794">
        <ele>523</ele>
        <time>2015-05-14T08:03:26.000Z</time>
      </trkpt>
      <trkpt lat="45.67127" lon="5.8479">
        <ele>523</ele>
        <time>2015-05-14T08:03:38.000Z</time>
      </trkpt>
      <trkpt lat="45.67126" lon="5.84785">
        <ele>524</ele>
        <time>2015-05-14T08:03:45.000Z</time>
      </trkpt>
      <trkpt lat="45.67127" lon="5.84784">
        <ele>524</ele>
        <time>2015-05-14T08:03:56.000Z</time>
      </trkpt>
      <trkpt lat="45.67128" lon="5.84783">
        <ele>525</ele>
        <time>2015-05-14T08:04:01.000Z</time>
      </trkpt>
      <trkpt lat="45.67133" lon="5.84778">
        <ele>526</ele>
        <time>2015-05-14T08:04:10.000Z</time>
      </trkpt>
      <trkpt lat="45.67136" lon="5.84774">
        <ele>527</ele>
        <time>2015-05-14T08:04:17.000Z</time>
      </trkpt>
      <trkpt lat="45.6714" lon="5.84771">
        <ele>528</ele>
        <time>2015-05-14T08:04:24.000Z</time>
      </trkpt>
      <trkpt lat="45.67143" lon="5.84766">
        <ele>529</ele>
        <time>2015-05-14T08:04:31.000Z</time>
      </trkpt>
      <trkpt lat="45.67146" lon="5.84762">
        <ele>530</ele>
        <time>2015-05-14T08:04:38.000Z</time>
      </trkpt>
      <trkpt lat="45.67149" lon="5.84759">
        <ele>531</ele>
        <time>2015-05-14T08:04:43.000Z</time>
      </trkpt>
      <trkpt lat="45.67152" lon="5.84755">
        <ele>533</ele>
        <time>2015-05-14T08:04:49.000Z</time>
      </trkpt>
      <trkpt lat="45.67156" lon="5.84751">
        <ele>535</ele>
        <time>2015-05-14T08:04:58.000Z</time>
      </trkpt>
      <trkpt lat="45.67154" lon="5.84747">
        <ele>545</ele>
        <time>2015-05-14T08:05:05.000Z</time>
      </trkpt>
      <trkpt lat="45.6715" lon="5.84745">
        <ele>547</ele>
        <time>2015-05-14T08:05:12.000Z</time>
      </trkpt>
      <trkpt lat="45.67146" lon="5.84743">
        <ele>548</ele>
        <time>2015-05-14T08:05:19.000Z</time>
      </trkpt>
      <trkpt lat="45.67142" lon="5.84741">
        <ele>549</ele>
        <time>2015-05-14T08:05:26.000Z</time>
      </trkpt>
      <trkpt lat="45.6714" lon="5.84739">
        <ele>549</ele>
        <time>2015-05-14T08:05:34.000Z</time>
      </trkpt>
      <trkpt lat="45.67137" lon="5.84736">
        <ele>550</ele>
        <time>2015-05-14T08:05:45.000Z</time>
      </trkpt>
      <trkpt lat="45.67133" lon="5.84735">
        <ele>550</ele>
        <time>2015-05-14T08:05:52.000Z</time>
      </trkpt>
      <trkpt lat="45.67128" lon="5.84734">
        <ele>550</ele>
        <time>2015-05-14T08:06:00.000Z</time>
      </trkpt>
      <trkpt lat="45.67125" lon="5.84733">
        <ele>550</ele>
        <time>2015-05-14T08:06:06.000Z</time>
      </trkpt>
      <trkpt lat="45.67122" lon="5.84732">
        <ele>550</ele>
        <time>2015-05-14T08:06:12.000Z</time>
      </trkpt>
      <trkpt lat="45.67118" lon="5.84732">
        <ele>550</ele>
        <time>2015-05-14T08:06:19.000Z</time>
      </trkpt>
      <trkpt lat="45.67115" lon="5.84734">
        <ele>550</ele>
        <time>2015-05-14T08:06:25.000Z</time>
      </trkpt>
      <trkpt lat="45.67112" lon="5.84734">
        <ele>549</ele>
        <time>2015-05-14T08:06:31.000Z</time>
      </trkpt>
      <trkpt lat="45.67109" lon="5.84736">
        <ele>548</ele>
        <time>2015-05-14T08:06:36.000Z</time>
      </trkpt>
      <trkpt lat="45.67106" lon="5.84737">
        <ele>548</ele>
        <time>2015-05-14T08:06:41.000Z</time>
      </trkpt>
      <trkpt lat="45.67102" lon="5.84738">
        <ele>547</ele>
        <time>2015-05-14T08:06:47.000Z</time>
      </trkpt>
      <trkpt lat="45.67099" lon="5.84737">
        <ele>546</ele>
        <time>2015-05-14T08:06:56.000Z</time>
      </trkpt>
      <trkpt lat="45.67101" lon="5.84732">
        <ele>548</ele>
        <time>2015-05-14T08:07:03.000Z</time>
      </trkpt>
      <trkpt lat="45.67099" lon="5.84731">
        <ele>548</ele>
        <time>2015-05-14T08:07:12.000Z</time>
      </trkpt>
      <trkpt lat="45.67098" lon="5.84728">
        <ele>549</ele>
        <time>2015-05-14T08:07:17.000Z</time>
      </trkpt>
      <trkpt lat="45.67098" lon="5.84725">
        <ele>550</ele>
        <time>2015-05-14T08:07:22.000Z</time>
      </trkpt>
      <trkpt lat="45.67098" lon="5.84723">
        <ele>550</ele>
        <time>2015-05-14T08:07:28.000Z</time>
      </trkpt>
      <trkpt lat="45.67095" lon="5.84724">
        <ele>550</ele>
        <time>2015-05-14T08:07:38.000Z</time>
      </trkpt>
      <trkpt lat="45.67092" lon="5.84725">
        <ele>549</ele>
        <time>2015-05-14T08:07:46.000Z</time>
      </trkpt>
      <trkpt lat="45.67092" lon="5.84722">
        <ele>550</ele>
        <time>2015-05-14T08:07:52.000Z</time>
      </trkpt>
      <trkpt lat="45.67094" lon="5.84718">
        <ele>551</ele>
        <time>2015-05-14T08:07:57.000Z</time>
      </trkpt>
      <trkpt lat="45.67094" lon="5.84716">
        <ele>552</ele>
        <time>2015-05-14T08:08:04.000Z</time>
      </trkpt>
      <trkpt lat="45.67091" lon="5.84718">
        <ele>551</ele>
        <time>2015-05-14T08:08:11.000Z</time>
      </trkpt>
      <trkpt lat="45.67088" lon="5.84717">
        <ele>552</ele>
        <time>2015-05-14T08:08:17.000Z</time>
      </trkpt>
      <trkpt lat="45.6709" lon="5.84714">
        <ele>553</ele>
        <time>2015-05-14T08:08:23.000Z</time>
      </trkpt>
      <trkpt lat="45.67091" lon="5.84709">
        <ele>554</ele>
        <time>2015-05-14T08:08:29.000Z</time>
      </trkpt>
      <trkpt lat="45.67093" lon="5.84706">
        <ele>555</ele>
        <time>2015-05-14T08:08:34.000Z</time>
      </trkpt>
      <trkpt lat="45.67093" lon="5.84702">
        <ele>556</ele>
        <time>2015-05-14T08:08:39.000Z</time>
      </trkpt>
      <trkpt lat="45.67089" lon="5.84701">
        <ele>557</ele>
        <time>2015-05-14T08:08:47.000Z</time>
      </trkpt>
      <trkpt lat="45.67086" lon="5.84702">
        <ele>556</ele>
        <time>2015-05-14T08:08:54.000Z</time>
      </trkpt>
      <trkpt lat="45.67082" lon="5.84703">
        <ele>552</ele>
        <time>2015-05-14T08:09:00.000Z</time>
      </trkpt>
      <trkpt lat="45.6708" lon="5.84703">
        <ele>552</ele>
        <time>2015-05-14T08:09:04.000Z</time>
      </trkpt>
      <trkpt lat="45.67076" lon="5.84703">
        <ele>552</ele>
        <time>2015-05-14T08:09:10.000Z</time>
      </trkpt>
      <trkpt lat="45.67074" lon="5.847">
        <ele>553</ele>
        <time>2015-05-14T08:09:15.000Z</time>
      </trkpt>
      <trkpt lat="45.67074" lon="5.84698">
        <ele>553</ele>
        <time>2015-05-14T08:09:22.000Z</time>
      </trkpt>
      <trkpt lat="45.67074" lon="5.84693">
        <ele>555</ele>
        <time>2015-05-14T08:09:38.000Z</time>
      </trkpt>
      <trkpt lat="45.67069" lon="5.84691">
        <ele>555</ele>
        <time>2015-05-14T08:09:47.000Z</time>
      </trkpt>
      <trkpt lat="45.67067" lon="5.84689">
        <ele>555</ele>
        <time>2015-05-14T08:09:52.000Z</time>
      </trkpt>
      <trkpt lat="45.67064" lon="5.84688">
        <ele>555</ele>
        <time>2015-05-14T08:09:57.000Z</time>
      </trkpt>
      <trkpt lat="45.67061" lon="5.84687">
        <ele>555</ele>
        <time>2015-05-14T08:10:03.000Z</time>
      </trkpt>
      <trkpt lat="45.67059" lon="5.84686">
        <ele>555</ele>
        <time>2015-05-14T08:10:08.000Z</time>
      </trkpt>
      <trkpt lat="45.67057" lon="5.84685">
        <ele>555</ele>
        <time>2015-05-14T08:10:13.000Z</time>
      </trkpt>
      <trkpt lat="45.67053" lon="5.84683">
        <ele>555</ele>
        <time>2015-05-14T08:10:20.000Z</time>
      </trkpt>
      <trkpt lat="45.67048" lon="5.84678">
        <ele>555</ele>
        <time>2015-05-14T08:10:28.000Z</time>
      </trkpt>
      <trkpt lat="45.67043" lon="5.84673">
        <ele>555</ele>
        <time>2015-05-14T08:10:36.000Z</time>
      </trkpt>
      <trkpt lat="45.6704" lon="5.8467">
        <ele>555</ele>
        <time>2015-05-14T08:10:41.000Z</time>
      </trkpt>
      <trkpt lat="45.67038" lon="5.84666">
        <ele>572</ele>
        <time>2015-05-14T08:10:47.000Z</time>
      </trkpt>
      <trkpt lat="45.67035" lon="5.84662">
        <ele>572</ele>
        <time>2015-05-14T08:10:53.000Z</time>
      </trkpt>
      <trkpt lat="45.67029" lon="5.84656">
        <ele>572</ele>
        <time>2015-05-14T08:11:02.000Z</time>
      </trkpt>
      <trkpt lat="45.67025" lon="5.84652">
        <ele>572</ele>
        <time>2015-05-14T08:11:10.000Z</time>
      </trkpt>
      <trkpt lat="45.67021" lon="5.84649">
        <ele>572</ele>
        <time>2015-05-14T08:11:17.000Z</time>
      </trkpt>
      <trkpt lat="45.67019" lon="5.84643">
        <ele>572</ele>
        <time>2015-05-14T08:11:23.000Z</time>
      </trkpt>
      <trkpt lat="45.67018" lon="5.84642">
        <ele>572</ele>
        <time>2015-05-14T08:11:27.000Z</time>
      </trkpt>
      <trkpt lat="45.67016" lon="5.84639">
        <ele>573</ele>
        <time>2015-05-14T08:11:33.000Z</time>
      </trkpt>
      <trkpt lat="45.67015" lon="5.84638">
        <ele>573</ele>
        <time>2015-05-14T08:11:42.000Z</time>
      </trkpt>
      <trkpt lat="45.67011" lon="5.84631">
        <ele>574</ele>
        <time>2015-05-14T08:12:19.000Z</time>
      </trkpt>
      <trkpt lat="45.67011" lon="5.8463">
        <ele>574</ele>
        <time>2015-05-14T08:12:28.000Z</time>
      </trkpt>
      <trkpt lat="45.6701" lon="5.84633">
        <ele>574</ele>
        <time>2015-05-14T08:13:19.000Z</time>
      </trkpt>
      <trkpt lat="45.67007" lon="5.84633">
        <ele>573</ele>
        <time>2015-05-14T08:14:21.000Z</time>
      </trkpt>
      <trkpt lat="45.67004" lon="5.8463">
        <ele>574</ele>
        <time>2015-05-14T08:14:28.000Z</time>
      </trkpt>
      <trkpt lat="45.67003" lon="5.84626">
        <ele>575</ele>
        <time>2015-05-14T08:14:33.000Z</time>
      </trkpt>
      <trkpt lat="45.67001" lon="5.84623">
        <ele>575</ele>
        <time>2015-05-14T08:14:38.000Z</time>
      </trkpt>
      <trkpt lat="45.67" lon="5.84623">
        <ele>575</ele>
        <time>2015-05-14T08:14:49.000Z</time>
      </trkpt>
      <trkpt lat="45.66997" lon="5.84619">
        <ele>570</ele>
        <time>2015-05-14T08:14:57.000Z</time>
      </trkpt>
      <trkpt lat="45.66995" lon="5.84615">
        <ele>571</ele>
        <time>2015-05-14T08:15:03.000Z</time>
      </trkpt>
      <trkpt lat="45.66993" lon="5.84609">
        <ele>572</ele>
        <time>2015-05-14T08:15:09.000Z</time>
      </trkpt>
      <trkpt lat="45.6699" lon="5.84604">
        <ele>573</ele>
        <time>2015-05-14T08:15:16.000Z</time>
      </trkpt>
      <trkpt lat="45.66984" lon="5.84602">
        <ele>573</ele>
        <time>2015-05-14T08:15:24.000Z</time>
      </trkpt>
      <trkpt lat="45.66981" lon="5.84598">
        <ele>573</ele>
        <time>2015-05-14T08:15:30.000Z</time>
      </trkpt>
      <trkpt lat="45.66978" lon="5.84597">
        <ele>573</ele>
        <time>2015-05-14T08:15:35.000Z</time>
      </trkpt>
      <trkpt lat="45.66973" lon="5.84594">
        <ele>572</ele>
        <time>2015-05-14T08:15:42.000Z</time>
      </trkpt>
      <trkpt lat="45.66968" lon="5.84592">
        <ele>572</ele>
        <time>2015-05-14T08:15:49.000Z</time>
      </trkpt>
      <trkpt lat="45.66964" lon="5.84587">
        <ele>572</ele>
        <time>2015-05-14T08:15:55.000Z</time>
      </trkpt>
      <trkpt lat="45.66963" lon="5.84586">
        <ele>572</ele>
        <time>2015-05-14T08:15:56.000Z</time>
      </trkpt>
      <trkpt lat="45.66961" lon="5.84582">
        <ele>586</ele>
        <time>2015-05-14T08:16:01.000Z</time>
      </trkpt>
      <trkpt lat="45.6696" lon="5.84582">
        <ele>586</ele>
        <time>2015-05-14T08:16:02.000Z</time>
      </trkpt>
      <trkpt lat="45.66955" lon="5.84576">
        <ele>586</ele>
        <time>2015-05-14T08:16:09.000Z</time>
      </trkpt>
      <trkpt lat="45.66954" lon="5.84573">
        <ele>586</ele>
        <time>2015-05-14T08:16:12.000Z</time>
      </trkpt>
      <trkpt lat="45.66951" lon="5.8457">
        <ele>586</ele>
        <time>2015-05-14T08:16:16.000Z</time>
      </trkpt>
      <trkpt lat="45.66951" lon="5.8457">
        <ele>586</ele>
        <time>2015-05-14T08:16:17.000Z</time>
      </trkpt>
      <trkpt lat="45.66948" lon="5.84566">
        <ele>586</ele>
        <time>2015-05-14T08:16:23.000Z</time>
      </trkpt>
      <trkpt lat="45.66947" lon="5.84562">
        <ele>586</ele>
        <time>2015-05-14T08:16:29.000Z</time>
      </trkpt>
      <trkpt lat="45.66943" lon="5.84561">
        <ele>586</ele>
        <time>2015-05-14T08:16:36.000Z</time>
      </trkpt>
      <trkpt lat="45.66941" lon="5.84558">
        <ele>586</ele>
        <time>2015-05-14T08:16:41.000Z</time>
      </trkpt>
      <trkpt lat="45.66937" lon="5.84555">
        <ele>587</ele>
        <time>2015-05-14T08:16:47.000Z</time>
      </trkpt>
      <trkpt lat="45.66933" lon="5.84551">
        <ele>587</ele>
        <time>2015-05-14T08:16:54.000Z</time>
      </trkpt>
      <trkpt lat="45.66931" lon="5.84548">
        <ele>587</ele>
        <time>2015-05-14T08:16:59.000Z</time>
      </trkpt>
      <trkpt lat="45.66929" lon="5.84545">
        <ele>588</ele>
        <time>2015-05-14T08:17:04.000Z</time>
      </trkpt>
      <trkpt lat="45.66924" lon="5.8454">
        <ele>589</ele>
        <time>2015-05-14T08:17:11.000Z</time>
      </trkpt>
      <trkpt lat="45.66921" lon="5.84535">
        <ele>589</ele>
        <time>2015-05-14T08:17:17.000Z</time>
      </trkpt>
      <trkpt lat="45.6692" lon="5.84534">
        <ele>590</ele>
        <time>2015-05-14T08:17:18.000Z</time>
      </trkpt>
      <trkpt lat="45.66915" lon="5.84529">
        <ele>587</ele>
        <time>2015-05-14T08:17:26.000Z</time>
      </trkpt>
      <trkpt lat="45.66911" lon="5.84526">
        <ele>588</ele>
        <time>2015-05-14T08:17:32.000Z</time>
      </trkpt>
      <trkpt lat="45.66908" lon="5.84523">
        <ele>588</ele>
        <time>2015-05-14T08:17:43.000Z</time>
      </trkpt>
      <trkpt lat="45.66905" lon="5.8452">
        <ele>588</ele>
        <time>2015-05-14T08:17:50.000Z</time>
      </trkpt>
      <trkpt lat="45.66902" lon="5.84519">
        <ele>589</ele>
        <time>2015-05-14T08:17:55.000Z</time>
      </trkpt>
      <trkpt lat="45.669" lon="5.84516">
        <ele>589</ele>
        <time>2015-05-14T08:18:00.000Z</time>
      </trkpt>
      <trkpt lat="45.66897" lon="5.84514">
        <ele>589</ele>
        <time>2015-05-14T08:18:06.000Z</time>
      </trkpt>
      <trkpt lat="45.66894" lon="5.84512">
        <ele>589</ele>
        <time>2015-05-14T08:18:12.000Z</time>
      </trkpt>
      <trkpt lat="45.6689" lon="5.84508">
        <ele>589</ele>
        <time>2015-05-14T08:18:19.000Z</time>
      </trkpt>
      <trkpt lat="45.66887" lon="5.84505">
        <ele>589</ele>
        <time>2015-05-14T08:18:25.000Z</time>
      </trkpt>
      <trkpt lat="45.66883" lon="5.84502">
        <ele>588</ele>
        <time>2015-05-14T08:18:30.000Z</time>
      </trkpt>
      <trkpt lat="45.66878" lon="5.84499">
        <ele>604</ele>
        <time>2015-05-14T08:18:37.000Z</time>
      </trkpt>
      <trkpt lat="45.66874" lon="5.84497">
        <ele>604</ele>
        <time>2015-05-14T08:18:42.000Z</time>
      </trkpt>
      <trkpt lat="45.66873" lon="5.84496">
        <ele>604</ele>
        <time>2015-05-14T08:18:47.000Z</time>
      </trkpt>
      <trkpt lat="45.6687" lon="5.84494">
        <ele>604</ele>
        <time>2015-05-14T08:18:53.000Z</time>
      </trkpt>
      <trkpt lat="45.66869" lon="5.84491">
        <ele>604</ele>
        <time>2015-05-14T08:18:59.000Z</time>
      </trkpt>
      <trkpt lat="45.66866" lon="5.84489">
        <ele>604</ele>
        <time>2015-05-14T08:19:03.000Z</time>
      </trkpt>
      <trkpt lat="45.66863" lon="5.84488">
        <ele>604</ele>
        <time>2015-05-14T08:19:08.000Z</time>
      </trkpt>
      <trkpt lat="45.66858" lon="5.84488">
        <ele>603</ele>
        <time>2015-05-14T08:19:14.000Z</time>
      </trkpt>
      <trkpt lat="45.66854" lon="5.84488">
        <ele>603</ele>
        <time>2015-05-14T08:19:19.000Z</time>
      </trkpt>
      <trkpt lat="45.66848" lon="5.84487">
        <ele>602</ele>
        <time>2015-05-14T08:19:27.000Z</time>
      </trkpt>
      <trkpt lat="45.66843" lon="5.84484">
        <ele>602</ele>
        <time>2015-05-14T08:19:35.000Z</time>
      </trkpt>
      <trkpt lat="45.66836" lon="5.8448">
        <ele>602</ele>
        <time>2015-05-14T08:19:43.000Z</time>
      </trkpt>
      <trkpt lat="45.66833" lon="5.84478">
        <ele>603</ele>
        <time>2015-05-14T08:19:47.000Z</time>
      </trkpt>
      <trkpt lat="45.66832" lon="5.84476">
        <ele>603</ele>
        <time>2015-05-14T08:19:51.000Z</time>
      </trkpt>
      <trkpt lat="45.6683" lon="5.84473">
        <ele>604</ele>
        <time>2015-05-14T08:19:55.000Z</time>
      </trkpt>
      <trkpt lat="45.66827" lon="5.8447">
        <ele>605</ele>
        <time>2015-05-14T08:20:00.000Z</time>
      </trkpt>
      <trkpt lat="45.66824" lon="5.84466">
        <ele>606</ele>
        <time>2015-05-14T08:20:08.000Z</time>
      </trkpt>
      <trkpt lat="45.66821" lon="5.84462">
        <ele>607</ele>
        <time>2015-05-14T08:20:15.000Z</time>
      </trkpt>
      <trkpt lat="45.66819" lon="5.8446">
        <ele>608</ele>
        <time>2015-05-14T08:20:18.000Z</time>
      </trkpt>
      <trkpt lat="45.66818" lon="5.84458">
        <ele>608</ele>
        <time>2015-05-14T08:20:20.000Z</time>
      </trkpt>
      <trkpt lat="45.66817" lon="5.84457">
        <ele>608</ele>
        <time>2015-05-14T08:20:22.000Z</time>
      </trkpt>
      <trkpt lat="45.66815" lon="5.84455">
        <ele>609</ele>
        <time>2015-05-14T08:20:24.000Z</time>
      </trkpt>
      <trkpt lat="45.66815" lon="5.84455">
        <ele>609</ele>
        <time>2015-05-14T08:20:25.000Z</time>
      </trkpt>
      <trkpt lat="45.66812" lon="5.84451">
        <ele>609</ele>
        <time>2015-05-14T08:20:30.000Z</time>
      </trkpt>
      <trkpt lat="45.66809" lon="5.84447">
        <ele>610</ele>
        <time>2015-05-14T08:20:35.000Z</time>
      </trkpt>
      <trkpt lat="45.66805" lon="5.84445">
        <ele>610</ele>
        <time>2015-05-14T08:20:39.000Z</time>
      </trkpt>
      <trkpt lat="45.66805" lon="5.84444">
        <ele>610</ele>
        <time>2015-05-14T08:20:40.000Z</time>
      </trkpt>
      <trkpt lat="45.66801" lon="5.84441">
        <ele>611</ele>
        <time>2015-05-14T08:20:46.000Z</time>
      </trkpt>
      <trkpt lat="45.668" lon="5.8444">
        <ele>611</ele>
        <time>2015-05-14T08:20:47.000Z</time>
      </trkpt>
      <trkpt lat="45.66797" lon="5.84437">
        <ele>611</ele>
        <time>2015-05-14T08:20:52.000Z</time>
      </trkpt>
      <trkpt lat="45.66795" lon="5.84435">
        <ele>612</ele>
        <time>2015-05-14T08:20:57.000Z</time>
      </trkpt>
      <trkpt lat="45.66792" lon="5.84433">
        <ele>612</ele>
        <time>2015-05-14T08:21:01.000Z</time>
      </trkpt>
      <trkpt lat="45.66791" lon="5.84432">
        <ele>612</ele>
        <time>2015-05-14T08:21:08.000Z</time>
      </trkpt>
      <trkpt lat="45.66786" lon="5.84429">
        <ele>612</ele>
        <time>2015-05-14T08:21:16.000Z</time>
      </trkpt>
      <trkpt lat="45.66782" lon="5.84427">
        <ele>613</ele>
        <time>2015-05-14T08:21:22.000Z</time>
      </trkpt>
      <trkpt lat="45.66781" lon="5.84427">
        <ele>613</ele>
        <time>2015-05-14T08:21:23.000Z</time>
      </trkpt>
      <trkpt lat="45.66777" lon="5.84426">
        <ele>613</ele>
        <time>2015-05-14T08:21:28.000Z</time>
      </trkpt>
      <trkpt lat="45.66773" lon="5.84425">
        <ele>614</ele>
        <time>2015-05-14T08:21:34.000Z</time>
      </trkpt>
      <trkpt lat="45.66769" lon="5.84423">
        <ele>614</ele>
        <time>2015-05-14T08:21:39.000Z</time>
      </trkpt>
      <trkpt lat="45.66766" lon="5.84421">
        <ele>615</ele>
        <time>2015-05-14T08:21:44.000Z</time>
      </trkpt>
      <trkpt lat="45.66762" lon="5.8442">
        <ele>616</ele>
        <time>2015-05-14T08:21:51.000Z</time>
      </trkpt>
      <trkpt lat="45.66757" lon="5.84419">
        <ele>618</ele>
        <time>2015-05-14T08:21:59.000Z</time>
      </trkpt>
      <trkpt lat="45.66755" lon="5.84419">
        <ele>619</ele>
        <time>2015-05-14T08:22:05.000Z</time>
      </trkpt>
      <trkpt lat="45.66752" lon="5.84418">
        <ele>620</ele>
        <time>2015-05-14T08:22:13.000Z</time>
      </trkpt>
      <trkpt lat="45.66748" lon="5.84418">
        <ele>620</ele>
        <time>2015-05-14T08:22:20.000Z</time>
      </trkpt>
      <trkpt lat="45.66746" lon="5.84419">
        <ele>620</ele>
        <time>2015-05-14T08:22:24.000Z</time>
      </trkpt>
      <trkpt lat="45.66744" lon="5.84418">
        <ele>619</ele>
        <time>2015-05-14T08:22:30.000Z</time>
      </trkpt>
      <trkpt lat="45.66741" lon="5.84417">
        <ele>619</ele>
        <time>2015-05-14T08:22:36.000Z</time>
      </trkpt>
      <trkpt lat="45.66739" lon="5.84416">
        <ele>628</ele>
        <time>2015-05-14T08:22:40.000Z</time>
      </trkpt>
      <trkpt lat="45.66737" lon="5.84415">
        <ele>629</ele>
        <time>2015-05-14T08:22:48.000Z</time>
      </trkpt>
      <trkpt lat="45.66735" lon="5.84415">
        <ele>630</ele>
        <time>2015-05-14T08:22:59.000Z</time>
      </trkpt>
      <trkpt lat="45.66736" lon="5.84413">
        <ele>630</ele>
        <time>2015-05-14T08:23:41.000Z</time>
      </trkpt>
      <trkpt lat="45.66731" lon="5.84414">
        <ele>631</ele>
        <time>2015-05-14T08:24:28.000Z</time>
      </trkpt>
      <trkpt lat="45.66728" lon="5.84416">
        <ele>632</ele>
        <time>2015-05-14T08:24:35.000Z</time>
      </trkpt>
      <trkpt lat="45.66723" lon="5.84417">
        <ele>633</ele>
        <time>2015-05-14T08:24:42.000Z</time>
      </trkpt>
      <trkpt lat="45.66716" lon="5.84418">
        <ele>617</ele>
        <time>2015-05-14T08:24:51.000Z</time>
      </trkpt>
      <trkpt lat="45.66714" lon="5.84418">
        <ele>617</ele>
        <time>2015-05-14T08:24:53.000Z</time>
      </trkpt>
      <trkpt lat="45.66712" lon="5.84419">
        <ele>617</ele>
        <time>2015-05-14T08:24:55.000Z</time>
      </trkpt>
      <trkpt lat="45.6671" lon="5.84419">
        <ele>617</ele>
        <time>2015-05-14T08:25:01.000Z</time>
      </trkpt>
      <trkpt lat="45.66705" lon="5.8442">
        <ele>617</ele>
        <time>2015-05-14T08:25:06.000Z</time>
      </trkpt>
      <trkpt lat="45.66698" lon="5.84419">
        <ele>618</ele>
        <time>2015-05-14T08:25:15.000Z</time>
      </trkpt>
      <trkpt lat="45.66696" lon="5.84417">
        <ele>619</ele>
        <time>2015-05-14T08:25:21.000Z</time>
      </trkpt>
      <trkpt lat="45.66691" lon="5.84411">
        <ele>636</ele>
        <time>2015-05-14T08:25:29.000Z</time>
      </trkpt>
      <trkpt lat="45.6669" lon="5.84408">
        <ele>636</ele>
        <time>2015-05-14T08:25:34.000Z</time>
      </trkpt>
      <trkpt lat="45.66689" lon="5.84406">
        <ele>636</ele>
        <time>2015-05-14T08:25:39.000Z</time>
      </trkpt>
      <trkpt lat="45.66689" lon="5.84404">
        <ele>636</ele>
        <time>2015-05-14T08:25:44.000Z</time>
      </trkpt>
      <trkpt lat="45.66688" lon="5.84401">
        <ele>637</ele>
        <time>2015-05-14T08:25:50.000Z</time>
      </trkpt>
      <trkpt lat="45.66687" lon="5.84399">
        <ele>637</ele>
        <time>2015-05-14T08:25:55.000Z</time>
      </trkpt>
      <trkpt lat="45.66684" lon="5.84395">
        <ele>638</ele>
        <time>2015-05-14T08:26:01.000Z</time>
      </trkpt>
      <trkpt lat="45.66683" lon="5.84392">
        <ele>638</ele>
        <time>2015-05-14T08:26:06.000Z</time>
      </trkpt>
      <trkpt lat="45.66682" lon="5.84388">
        <ele>639</ele>
        <time>2015-05-14T08:26:11.000Z</time>
      </trkpt>
      <trkpt lat="45.66681" lon="5.84386">
        <ele>640</ele>
        <time>2015-05-14T08:26:16.000Z</time>
      </trkpt>
      <trkpt lat="45.66682" lon="5.84383">
        <ele>640</ele>
        <time>2015-05-14T08:26:21.000Z</time>
      </trkpt>
      <trkpt lat="45.66685" lon="5.8438">
        <ele>641</ele>
        <time>2015-05-14T08:26:26.000Z</time>
      </trkpt>
      <trkpt lat="45.66685" lon="5.8438">
        <ele>641</ele>
        <time>2015-05-14T08:26:27.000Z</time>
      </trkpt>
      <trkpt lat="45.66686" lon="5.8438">
        <ele>641</ele>
        <time>2015-05-14T08:26:30.000Z</time>
      </trkpt>
      <trkpt lat="45.66688" lon="5.84381">
        <ele>641</ele>
        <time>2015-05-14T08:26:35.000Z</time>
      </trkpt>
      <trkpt lat="45.66691" lon="5.8438">
        <ele>641</ele>
        <time>2015-05-14T08:26:41.000Z</time>
      </trkpt>
      <trkpt lat="45.66693" lon="5.84379">
        <ele>641</ele>
        <time>2015-05-14T08:26:46.000Z</time>
      </trkpt>
      <trkpt lat="45.66696" lon="5.84378">
        <ele>641</ele>
        <time>2015-05-14T08:26:51.000Z</time>
      </trkpt>
      <trkpt lat="45.66699" lon="5.84376">
        <ele>641</ele>
        <time>2015-05-14T08:26:58.000Z</time>
      </trkpt>
      <trkpt lat="45.66703" lon="5.8437">
        <ele>642</ele>
        <time>2015-05-14T08:27:06.000Z</time>
      </trkpt>
      <trkpt lat="45.66705" lon="5.84367">
        <ele>643</ele>
        <time>2015-05-14T08:27:11.000Z</time>
      </trkpt>
      <trkpt lat="45.66708" lon="5.84363">
        <ele>644</ele>
        <time>2015-05-14T08:27:17.000Z</time>
      </trkpt>
      <trkpt lat="45.66711" lon="5.84358">
        <ele>644</ele>
        <time>2015-05-14T08:27:24.000Z</time>
      </trkpt>
      <trkpt lat="45.66716" lon="5.84354">
        <ele>645</ele>
        <time>2015-05-14T08:27:32.000Z</time>
      </trkpt>
      <trkpt lat="45.66719" lon="5.8435">
        <ele>646</ele>
        <time>2015-05-14T08:27:40.000Z</time>
      </trkpt>
      <trkpt lat="45.66722" lon="5.84348">
        <ele>646</ele>
        <time>2015-05-14T08:27:45.000Z</time>
      </trkpt>
      <trkpt lat="45.66724" lon="5.84346">
        <ele>647</ele>
        <time>2015-05-14T08:27:50.000Z</time>
      </trkpt>
      <trkpt lat="45.66724" lon="5.84342">
        <ele>647</ele>
        <time>2015-05-14T08:27:57.000Z</time>
      </trkpt>
      <trkpt lat="45.66723" lon="5.84341">
        <ele>647</ele>
        <time>2015-05-14T08:28:02.000Z</time>
      </trkpt>
      <trkpt lat="45.6672" lon="5.84342">
        <ele>647</ele>
        <time>2015-05-14T08:28:07.000Z</time>
      </trkpt>
      <trkpt lat="45.66717" lon="5.84344">
        <ele>646</ele>
        <time>2015-05-14T08:28:14.000Z</time>
      </trkpt>
      <trkpt lat="45.66714" lon="5.84344">
        <ele>646</ele>
        <time>2015-05-14T08:28:19.000Z</time>
      </trkpt>
      <trkpt lat="45.66712" lon="5.84344">
        <ele>646</ele>
        <time>2015-05-14T08:28:26.000Z</time>
      </trkpt>
      <trkpt lat="45.66709" lon="5.84344">
        <ele>646</ele>
        <time>2015-05-14T08:28:31.000Z</time>
      </trkpt>
      <trkpt lat="45.66707" lon="5.84345">
        <ele>646</ele>
        <time>2015-05-14T08:28:35.000Z</time>
      </trkpt>
      <trkpt lat="45.66704" lon="5.84346">
        <ele>646</ele>
        <time>2015-05-14T08:28:42.000Z</time>
      </trkpt>
      <trkpt lat="45.667" lon="5.84344">
        <ele>647</ele>
        <time>2015-05-14T08:28:50.000Z</time>
      </trkpt>
      <trkpt lat="45.66696" lon="5.84341">
        <ele>647</ele>
        <time>2015-05-14T08:28:57.000Z</time>
      </trkpt>
      <trkpt lat="45.66694" lon="5.84337">
        <ele>648</ele>
        <time>2015-05-14T08:29:04.000Z</time>
      </trkpt>
      <trkpt lat="45.66691" lon="5.84334">
        <ele>649</ele>
        <time>2015-05-14T08:29:10.000Z</time>
      </trkpt>
      <trkpt lat="45.66688" lon="5.84329">
        <ele>667</ele>
        <time>2015-05-14T08:29:17.000Z</time>
      </trkpt>
      <trkpt lat="45.66684" lon="5.84326">
        <ele>667</ele>
        <time>2015-05-14T08:29:24.000Z</time>
      </trkpt>
      <trkpt lat="45.66682" lon="5.84323">
        <ele>667</ele>
        <time>2015-05-14T08:29:29.000Z</time>
      </trkpt>
      <trkpt lat="45.6668" lon="5.84321">
        <ele>667</ele>
        <time>2015-05-14T08:29:35.000Z</time>
      </trkpt>
      <trkpt lat="45.66678" lon="5.84319">
        <ele>667</ele>
        <time>2015-05-14T08:29:40.000Z</time>
      </trkpt>
      <trkpt lat="45.66675" lon="5.84316">
        <ele>668</ele>
        <time>2015-05-14T08:29:46.000Z</time>
      </trkpt>
      <trkpt lat="45.66673" lon="5.84313">
        <ele>669</ele>
        <time>2015-05-14T08:29:52.000Z</time>
      </trkpt>
      <trkpt lat="45.66669" lon="5.84312">
        <ele>669</ele>
        <time>2015-05-14T08:29:58.000Z</time>
      </trkpt>
      <trkpt lat="45.66667" lon="5.8431">
        <ele>670</ele>
        <time>2015-05-14T08:30:05.000Z</time>
      </trkpt>
      <trkpt lat="45.66665" lon="5.84308">
        <ele>673</ele>
        <time>2015-05-14T08:30:09.000Z</time>
      </trkpt>
      <trkpt lat="45.66664" lon="5.84306">
        <ele>673</ele>
        <time>2015-05-14T08:30:14.000Z</time>
      </trkpt>
      <trkpt lat="45.66662" lon="5.84304">
        <ele>674</ele>
        <time>2015-05-14T08:30:20.000Z</time>
      </trkpt>
      <trkpt lat="45.6666" lon="5.843">
        <ele>676</ele>
        <time>2015-05-14T08:30:26.000Z</time>
      </trkpt>
      <trkpt lat="45.66657" lon="5.84296">
        <ele>677</ele>
        <time>2015-05-14T08:30:32.000Z</time>
      </trkpt>
      <trkpt lat="45.66656" lon="5.84294">
        <ele>678</ele>
        <time>2015-05-14T08:30:36.000Z</time>
      </trkpt>
      <trkpt lat="45.66653" lon="5.8429">
        <ele>679</ele>
        <time>2015-05-14T08:30:43.000Z</time>
      </trkpt>
      <trkpt lat="45.6665" lon="5.84289">
        <ele>680</ele>
        <time>2015-05-14T08:30:48.000Z</time>
      </trkpt>
      <trkpt lat="45.66648" lon="5.84287">
        <ele>680</ele>
        <time>2015-05-14T08:30:53.000Z</time>
      </trkpt>
      <trkpt lat="45.66646" lon="5.84284">
        <ele>681</ele>
        <time>2015-05-14T08:30:58.000Z</time>
      </trkpt>
      <trkpt lat="45.66643" lon="5.84282">
        <ele>682</ele>
        <time>2015-05-14T08:31:05.000Z</time>
      </trkpt>
      <trkpt lat="45.66641" lon="5.8428">
        <ele>682</ele>
        <time>2015-05-14T08:31:10.000Z</time>
      </trkpt>
      <trkpt lat="45.66637" lon="5.84275">
        <ele>683</ele>
        <time>2015-05-14T08:31:17.000Z</time>
      </trkpt>
      <trkpt lat="45.66635" lon="5.84272">
        <ele>684</ele>
        <time>2015-05-14T08:31:21.000Z</time>
      </trkpt>
      <trkpt lat="45.66631" lon="5.84267">
        <ele>684</ele>
        <time>2015-05-14T08:31:29.000Z</time>
      </trkpt>
      <trkpt lat="45.66629" lon="5.84265">
        <ele>685</ele>
        <time>2015-05-14T08:31:35.000Z</time>
      </trkpt>
      <trkpt lat="45.66626" lon="5.84267">
        <ele>685</ele>
        <time>2015-05-14T08:31:43.000Z</time>
      </trkpt>
      <trkpt lat="45.66624" lon="5.84269">
        <ele>684</ele>
        <time>2015-05-14T08:31:49.000Z</time>
      </trkpt>
      <trkpt lat="45.66621" lon="5.84271">
        <ele>684</ele>
        <time>2015-05-14T08:31:56.000Z</time>
      </trkpt>
      <trkpt lat="45.6662" lon="5.84272">
        <ele>684</ele>
        <time>2015-05-14T08:32:02.000Z</time>
      </trkpt>
      <trkpt lat="45.66619" lon="5.84275">
        <ele>684</ele>
        <time>2015-05-14T08:32:10.000Z</time>
      </trkpt>
      <trkpt lat="45.66617" lon="5.84276">
        <ele>684</ele>
        <time>2015-05-14T08:32:14.000Z</time>
      </trkpt>
      <trkpt lat="45.66615" lon="5.84278">
        <ele>684</ele>
        <time>2015-05-14T08:32:21.000Z</time>
      </trkpt>
      <trkpt lat="45.6661" lon="5.8428">
        <ele>684</ele>
        <time>2015-05-14T08:32:28.000Z</time>
      </trkpt>
      <trkpt lat="45.66606" lon="5.8428">
        <ele>684</ele>
        <time>2015-05-14T08:32:34.000Z</time>
      </trkpt>
      <trkpt lat="45.66603" lon="5.8428">
        <ele>684</ele>
        <time>2015-05-14T08:32:38.000Z</time>
      </trkpt>
      <trkpt lat="45.66599" lon="5.8428">
        <ele>685</ele>
        <time>2015-05-14T08:32:44.000Z</time>
      </trkpt>
      <trkpt lat="45.66597" lon="5.84277">
        <ele>686</ele>
        <time>2015-05-14T08:32:50.000Z</time>
      </trkpt>
      <trkpt lat="45.66594" lon="5.84275">
        <ele>687</ele>
        <time>2015-05-14T08:32:57.000Z</time>
      </trkpt>
      <trkpt lat="45.66591" lon="5.84274">
        <ele>687</ele>
        <time>2015-05-14T08:33:02.000Z</time>
      </trkpt>
      <trkpt lat="45.66588" lon="5.84273">
        <ele>688</ele>
        <time>2015-05-14T08:33:09.000Z</time>
      </trkpt>
      <trkpt lat="45.66586" lon="5.84272">
        <ele>688</ele>
        <time>2015-05-14T08:33:16.000Z</time>
      </trkpt>
      <trkpt lat="45.66582" lon="5.84272">
        <ele>693</ele>
        <time>2015-05-14T08:33:34.000Z</time>
      </trkpt>
      <trkpt lat="45.66577" lon="5.84271">
        <ele>693</ele>
        <time>2015-05-14T08:33:47.000Z</time>
      </trkpt>
      <trkpt lat="45.66575" lon="5.8427">
        <ele>693</ele>
        <time>2015-05-14T08:33:57.000Z</time>
      </trkpt>
      <trkpt lat="45.6657" lon="5.8427">
        <ele>692</ele>
        <time>2015-05-14T08:34:04.000Z</time>
      </trkpt>
      <trkpt lat="45.66569" lon="5.84271">
        <ele>692</ele>
        <time>2015-05-14T08:34:11.000Z</time>
      </trkpt>
      <trkpt lat="45.66568" lon="5.84271">
        <ele>692</ele>
        <time>2015-05-14T08:34:17.000Z</time>
      </trkpt>
      <trkpt lat="45.66565" lon="5.84271">
        <ele>692</ele>
        <time>2015-05-14T08:34:24.000Z</time>
      </trkpt>
      <trkpt lat="45.66562" lon="5.8427">
        <ele>692</ele>
        <time>2015-05-14T08:34:28.000Z</time>
      </trkpt>
      <trkpt lat="45.6656" lon="5.84269">
        <ele>692</ele>
        <time>2015-05-14T08:34:33.000Z</time>
      </trkpt>
      <trkpt lat="45.66555" lon="5.8427">
        <ele>692</ele>
        <time>2015-05-14T08:34:41.000Z</time>
      </trkpt>
      <trkpt lat="45.66552" lon="5.84268">
        <ele>692</ele>
        <time>2015-05-14T08:34:46.000Z</time>
      </trkpt>
      <trkpt lat="45.66551" lon="5.84267">
        <ele>692</ele>
        <time>2015-05-14T08:34:50.000Z</time>
      </trkpt>
      <trkpt lat="45.66548" lon="5.84267">
        <ele>692</ele>
        <time>2015-05-14T08:34:54.000Z</time>
      </trkpt>
      <trkpt lat="45.66546" lon="5.84268">
        <ele>692</ele>
        <time>2015-05-14T08:34:59.000Z</time>
      </trkpt>
      <trkpt lat="45.66543" lon="5.84268">
        <ele>692</ele>
        <time>2015-05-14T08:35:05.000Z</time>
      </trkpt>
      <trkpt lat="45.66541" lon="5.84269">
        <ele>692</ele>
        <time>2015-05-14T08:35:11.000Z</time>
      </trkpt>
      <trkpt lat="45.66535" lon="5.84271">
        <ele>692</ele>
        <time>2015-05-14T08:35:21.000Z</time>
      </trkpt>
      <trkpt lat="45.66534" lon="5.84272">
        <ele>692</ele>
        <time>2015-05-14T08:35:25.000Z</time>
      </trkpt>
      <trkpt lat="45.66533" lon="5.84269">
        <ele>693</ele>
        <time>2015-05-14T08:35:31.000Z</time>
      </trkpt>
      <trkpt lat="45.66533" lon="5.84266">
        <ele>694</ele>
        <time>2015-05-14T08:35:36.000Z</time>
      </trkpt>
      <trkpt lat="45.66533" lon="5.84262">
        <ele>694</ele>
        <time>2015-05-14T08:35:39.000Z</time>
      </trkpt>
      <trkpt lat="45.66535" lon="5.84258">
        <ele>695</ele>
        <time>2015-05-14T08:35:45.000Z</time>
      </trkpt>
      <trkpt lat="45.66536" lon="5.84253">
        <ele>695</ele>
        <time>2015-05-14T08:35:52.000Z</time>
      </trkpt>
      <trkpt lat="45.66537" lon="5.84244">
        <ele>718</ele>
        <time>2015-05-14T08:36:03.000Z</time>
      </trkpt>
      <trkpt lat="45.66539" lon="5.84239">
        <ele>718</ele>
        <time>2015-05-14T08:36:10.000Z</time>
      </trkpt>
      <trkpt lat="45.6654" lon="5.84236">
        <ele>719</ele>
        <time>2015-05-14T08:36:15.000Z</time>
      </trkpt>
      <trkpt lat="45.66541" lon="5.84232">
        <ele>719</ele>
        <time>2015-05-14T08:36:21.000Z</time>
      </trkpt>
      <trkpt lat="45.66542" lon="5.84229">
        <ele>719</ele>
        <time>2015-05-14T08:36:26.000Z</time>
      </trkpt>
      <trkpt lat="45.66544" lon="5.84226">
        <ele>720</ele>
        <time>2015-05-14T08:36:31.000Z</time>
      </trkpt>
      <trkpt lat="45.66543" lon="5.84223">
        <ele>721</ele>
        <time>2015-05-14T08:36:37.000Z</time>
      </trkpt>
      <trkpt lat="45.66541" lon="5.84222">
        <ele>721</ele>
        <time>2015-05-14T08:36:44.000Z</time>
      </trkpt>
      <trkpt lat="45.66539" lon="5.84222">
        <ele>721</ele>
        <time>2015-05-14T08:36:50.000Z</time>
      </trkpt>
      <trkpt lat="45.66538" lon="5.84223">
        <ele>721</ele>
        <time>2015-05-14T08:36:54.000Z</time>
      </trkpt>
      <trkpt lat="45.66535" lon="5.84224">
        <ele>721</ele>
        <time>2015-05-14T08:37:00.000Z</time>
      </trkpt>
      <trkpt lat="45.66534" lon="5.84225">
        <ele>721</ele>
        <time>2015-05-14T08:37:06.000Z</time>
      </trkpt>
      <trkpt lat="45.66532" lon="5.84227">
        <ele>721</ele>
        <time>2015-05-14T08:37:14.000Z</time>
      </trkpt>
      <trkpt lat="45.6653" lon="5.84229">
        <ele>720</ele>
        <time>2015-05-14T08:37:20.000Z</time>
      </trkpt>
      <trkpt lat="45.66527" lon="5.84231">
        <ele>720</ele>
        <time>2015-05-14T08:37:28.000Z</time>
      </trkpt>
      <trkpt lat="45.66525" lon="5.84234">
        <ele>719</ele>
        <time>2015-05-14T08:37:33.000Z</time>
      </trkpt>
      <trkpt lat="45.66522" lon="5.84236">
        <ele>719</ele>
        <time>2015-05-14T08:37:38.000Z</time>
      </trkpt>
      <trkpt lat="45.66521" lon="5.84238">
        <ele>719</ele>
        <time>2015-05-14T08:37:43.000Z</time>
      </trkpt>
      <trkpt lat="45.66518" lon="5.8424">
        <ele>718</ele>
        <time>2015-05-14T08:37:51.000Z</time>
      </trkpt>
      <trkpt lat="45.66514" lon="5.84237">
        <ele>718</ele>
        <time>2015-05-14T08:37:58.000Z</time>
      </trkpt>
      <trkpt lat="45.66509" lon="5.84233">
        <ele>719</ele>
        <time>2015-05-14T08:38:05.000Z</time>
      </trkpt>
      <trkpt lat="45.66507" lon="5.8423">
        <ele>720</ele>
        <time>2015-05-14T08:38:10.000Z</time>
      </trkpt>
      <trkpt lat="45.66504" lon="5.84226">
        <ele>721</ele>
        <time>2015-05-14T08:38:17.000Z</time>
      </trkpt>
      <trkpt lat="45.66502" lon="5.84224">
        <ele>721</ele>
        <time>2015-05-14T08:38:22.000Z</time>
      </trkpt>
      <trkpt lat="45.665" lon="5.84221">
        <ele>726</ele>
        <time>2015-05-14T08:38:28.000Z</time>
      </trkpt>
      <trkpt lat="45.66497" lon="5.8422">
        <ele>727</ele>
        <time>2015-05-14T08:38:33.000Z</time>
      </trkpt>
      <trkpt lat="45.66494" lon="5.84217">
        <ele>728</ele>
        <time>2015-05-14T08:38:39.000Z</time>
      </trkpt>
      <trkpt lat="45.66491" lon="5.84216">
        <ele>728</ele>
        <time>2015-05-14T08:38:44.000Z</time>
      </trkpt>
      <trkpt lat="45.66489" lon="5.84215">
        <ele>729</ele>
        <time>2015-05-14T08:38:48.000Z</time>
      </trkpt>
      <trkpt lat="45.66485" lon="5.84214">
        <ele>729</ele>
        <time>2015-05-14T08:38:57.000Z</time>
      </trkpt>
      <trkpt lat="45.66482" lon="5.84213">
        <ele>730</ele>
        <time>2015-05-14T08:39:02.000Z</time>
      </trkpt>
      <trkpt lat="45.66479" lon="5.84213">
        <ele>730</ele>
        <time>2015-05-14T08:39:08.000Z</time>
      </trkpt>
      <trkpt lat="45.66476" lon="5.84212">
        <ele>730</ele>
        <time>2015-05-14T08:39:15.000Z</time>
      </trkpt>
      <trkpt lat="45.66473" lon="5.84211">
        <ele>730</ele>
        <time>2015-05-14T08:39:20.000Z</time>
      </trkpt>
      <trkpt lat="45.66467" lon="5.84209">
        <ele>731</ele>
        <time>2015-05-14T08:39:28.000Z</time>
      </trkpt>
      <trkpt lat="45.66464" lon="5.84206">
        <ele>731</ele>
        <time>2015-05-14T08:39:33.000Z</time>
      </trkpt>
      <trkpt lat="45.6646" lon="5.84202">
        <ele>732</ele>
        <time>2015-05-14T08:39:40.000Z</time>
      </trkpt>
      <trkpt lat="45.66458" lon="5.842">
        <ele>733</ele>
        <time>2015-05-14T08:39:46.000Z</time>
      </trkpt>
      <trkpt lat="45.66455" lon="5.84198">
        <ele>733</ele>
        <time>2015-05-14T08:39:53.000Z</time>
      </trkpt>
      <trkpt lat="45.66451" lon="5.84194">
        <ele>734</ele>
        <time>2015-05-14T08:40:00.000Z</time>
      </trkpt>
      <trkpt lat="45.66447" lon="5.84191">
        <ele>735</ele>
        <time>2015-05-14T08:40:07.000Z</time>
      </trkpt>
      <trkpt lat="45.66444" lon="5.84188">
        <ele>735</ele>
        <time>2015-05-14T08:40:13.000Z</time>
      </trkpt>
      <trkpt lat="45.66441" lon="5.84184">
        <ele>736</ele>
        <time>2015-05-14T08:40:20.000Z</time>
      </trkpt>
      <trkpt lat="45.66438" lon="5.84181">
        <ele>737</ele>
        <time>2015-05-14T08:40:25.000Z</time>
      </trkpt>
      <trkpt lat="45.66435" lon="5.84178">
        <ele>738</ele>
        <time>2015-05-14T08:40:32.000Z</time>
      </trkpt>
      <trkpt lat="45.66434" lon="5.84176">
        <ele>739</ele>
        <time>2015-05-14T08:40:41.000Z</time>
      </trkpt>
      <trkpt lat="45.66432" lon="5.84174">
        <ele>740</ele>
        <time>2015-05-14T08:40:47.000Z</time>
      </trkpt>
      <trkpt lat="45.66428" lon="5.84171">
        <ele>742</ele>
        <time>2015-05-14T08:40:54.000Z</time>
      </trkpt>
      <trkpt lat="45.66425" lon="5.84169">
        <ele>743</ele>
        <time>2015-05-14T08:41:00.000Z</time>
      </trkpt>
      <trkpt lat="45.66423" lon="5.84167">
        <ele>752</ele>
        <time>2015-05-14T08:41:08.000Z</time>
      </trkpt>
      <trkpt lat="45.6642" lon="5.8418">
        <ele>740</ele>
        <time>2015-05-14T08:41:59.000Z</time>
      </trkpt>
      <trkpt lat="45.66417" lon="5.84185">
        <ele>739</ele>
        <time>2015-05-14T08:42:10.000Z</time>
      </trkpt>
      <trkpt lat="45.66415" lon="5.84189">
        <ele>734</ele>
        <time>2015-05-14T08:42:16.000Z</time>
      </trkpt>
      <trkpt lat="45.66414" lon="5.84192">
        <ele>733</ele>
        <time>2015-05-14T08:42:21.000Z</time>
      </trkpt>
      <trkpt lat="45.66412" lon="5.84196">
        <ele>731</ele>
        <time>2015-05-14T08:42:26.000Z</time>
      </trkpt>
      <trkpt lat="45.6641" lon="5.842">
        <ele>730</ele>
        <time>2015-05-14T08:42:34.000Z</time>
      </trkpt>
      <trkpt lat="45.66409" lon="5.84204">
        <ele>728</ele>
        <time>2015-05-14T08:42:40.000Z</time>
      </trkpt>
      <trkpt lat="45.66406" lon="5.84209">
        <ele>727</ele>
        <time>2015-05-14T08:42:46.000Z</time>
      </trkpt>
      <trkpt lat="45.66404" lon="5.84213">
        <ele>726</ele>
        <time>2015-05-14T08:42:53.000Z</time>
      </trkpt>
      <trkpt lat="45.66401" lon="5.84219">
        <ele>724</ele>
        <time>2015-05-14T08:43:05.000Z</time>
      </trkpt>
      <trkpt lat="45.66399" lon="5.84226">
        <ele>722</ele>
        <time>2015-05-14T08:43:20.000Z</time>
      </trkpt>
      <trkpt lat="45.66398" lon="5.84229">
        <ele>722</ele>
        <time>2015-05-14T08:43:32.000Z</time>
      </trkpt>
      <trkpt lat="45.66397" lon="5.84238">
        <ele>720</ele>
        <time>2015-05-14T08:44:11.000Z</time>
      </trkpt>
      <trkpt lat="45.66396" lon="5.84242">
        <ele>719</ele>
        <time>2015-05-14T08:44:27.000Z</time>
      </trkpt>
      <trkpt lat="45.66398" lon="5.84249">
        <ele>718</ele>
        <time>2015-05-14T08:44:57.000Z</time>
      </trkpt>
      <trkpt lat="45.66399" lon="5.84252">
        <ele>699</ele>
        <time>2015-05-14T08:45:25.000Z</time>
      </trkpt>
      <trkpt lat="45.66398" lon="5.84254">
        <ele>699</ele>
        <time>2015-05-14T08:46:52.000Z</time>
      </trkpt>
      <trkpt lat="45.66402" lon="5.84252">
        <ele>701</ele>
        <time>2015-05-14T08:47:29.000Z</time>
      </trkpt>
      <trkpt lat="45.66403" lon="5.84251">
        <ele>701</ele>
        <time>2015-05-14T08:47:38.000Z</time>
      </trkpt>
      <trkpt lat="45.66401" lon="5.84252">
        <ele>700</ele>
        <time>2015-05-14T08:47:43.000Z</time>
      </trkpt>
      <trkpt lat="45.664" lon="5.84252">
        <ele>700</ele>
        <time>2015-05-14T08:47:45.000Z</time>
      </trkpt>
      <trkpt lat="45.664" lon="5.84248">
        <ele>718</ele>
        <time>2015-05-14T08:48:36.000Z</time>
      </trkpt>
      <trkpt lat="45.664" lon="5.84246">
        <ele>718</ele>
        <time>2015-05-14T08:48:40.000Z</time>
      </trkpt>
      <trkpt lat="45.66397" lon="5.84245">
        <ele>719</ele>
        <time>2015-05-14T08:48:45.000Z</time>
      </trkpt>
      <trkpt lat="45.66397" lon="5.84243">
        <ele>719</ele>
        <time>2015-05-14T08:48:49.000Z</time>
      </trkpt>
      <trkpt lat="45.66397" lon="5.84239">
        <ele>720</ele>
        <time>2015-05-14T08:48:56.000Z</time>
      </trkpt>
      <trkpt lat="45.66396" lon="5.84236">
        <ele>720</ele>
        <time>2015-05-14T08:49:02.000Z</time>
      </trkpt>
      <trkpt lat="45.66396" lon="5.84233">
        <ele>721</ele>
        <time>2015-05-14T08:49:08.000Z</time>
      </trkpt>
      <trkpt lat="45.66396" lon="5.84232">
        <ele>721</ele>
        <time>2015-05-14T08:49:12.000Z</time>
      </trkpt>
      <trkpt lat="45.66396" lon="5.84229">
        <ele>722</ele>
        <time>2015-05-14T08:49:17.000Z</time>
      </trkpt>
      <trkpt lat="45.66395" lon="5.84227">
        <ele>722</ele>
        <time>2015-05-14T08:49:23.000Z</time>
      </trkpt>
      <trkpt lat="45.66395" lon="5.84222">
        <ele>723</ele>
        <time>2015-05-14T08:49:40.000Z</time>
      </trkpt>
      <trkpt lat="45.66395" lon="5.84221">
        <ele>723</ele>
        <time>2015-05-14T08:49:47.000Z</time>
      </trkpt>
      <trkpt lat="45.66397" lon="5.84218">
        <ele>724</ele>
        <time>2015-05-14T08:49:52.000Z</time>
      </trkpt>
      <trkpt lat="45.66397" lon="5.84213">
        <ele>725</ele>
        <time>2015-05-14T08:50:04.000Z</time>
      </trkpt>
      <trkpt lat="45.66399" lon="5.84212">
        <ele>726</ele>
        <time>2015-05-14T08:50:09.000Z</time>
      </trkpt>
      <trkpt lat="45.66399" lon="5.84209">
        <ele>726</ele>
        <time>2015-05-14T08:50:15.000Z</time>
      </trkpt>
      <trkpt lat="45.664" lon="5.84207">
        <ele>727</ele>
        <time>2015-05-14T08:50:21.000Z</time>
      </trkpt>
      <trkpt lat="45.66402" lon="5.84202">
        <ele>728</ele>
        <time>2015-05-14T08:50:27.000Z</time>
      </trkpt>
      <trkpt lat="45.66403" lon="5.84198">
        <ele>730</ele>
        <time>2015-05-14T08:50:37.000Z</time>
      </trkpt>
      <trkpt lat="45.66405" lon="5.84195">
        <ele>731</ele>
        <time>2015-05-14T08:50:42.000Z</time>
      </trkpt>
      <trkpt lat="45.66407" lon="5.84192">
        <ele>732</ele>
        <time>2015-05-14T08:50:51.000Z</time>
      </trkpt>
      <trkpt lat="45.66407" lon="5.8419">
        <ele>733</ele>
        <time>2015-05-14T08:50:56.000Z</time>
      </trkpt>
      <trkpt lat="45.66407" lon="5.84185">
        <ele>735</ele>
        <time>2015-05-14T08:51:21.000Z</time>
      </trkpt>
      <trkpt lat="45.66407" lon="5.84182">
        <ele>736</ele>
        <time>2015-05-14T08:51:26.000Z</time>
      </trkpt>
      <trkpt lat="45.66407" lon="5.84179">
        <ele>737</ele>
        <time>2015-05-14T08:51:32.000Z</time>
      </trkpt>
      <trkpt lat="45.66409" lon="5.84176">
        <ele>739</ele>
        <time>2015-05-14T08:51:43.000Z</time>
      </trkpt>
      <trkpt lat="45.66416" lon="5.84174">
        <ele>742</ele>
        <time>2015-05-14T08:52:02.000Z</time>
      </trkpt>
      <trkpt lat="45.66431" lon="5.84179">
        <ele>739</ele>
        <time>2015-05-14T08:52:56.000Z</time>
      </trkpt>
      <trkpt lat="45.66435" lon="5.84179">
        <ele>738</ele>
        <time>2015-05-14T08:53:11.000Z</time>
      </trkpt>
      <trkpt lat="45.66437" lon="5.84181">
        <ele>737</ele>
        <time>2015-05-14T08:53:16.000Z</time>
      </trkpt>
      <trkpt lat="45.66439" lon="5.84183">
        <ele>737</ele>
        <time>2015-05-14T08:53:21.000Z</time>
      </trkpt>
      <trkpt lat="45.6644" lon="5.84185">
        <ele>736</ele>
        <time>2015-05-14T08:53:26.000Z</time>
      </trkpt>
      <trkpt lat="45.66443" lon="5.84188">
        <ele>735</ele>
        <time>2015-05-14T08:53:33.000Z</time>
      </trkpt>
      <trkpt lat="45.66446" lon="5.8419">
        <ele>735</ele>
        <time>2015-05-14T08:53:38.000Z</time>
      </trkpt>
      <trkpt lat="45.66447" lon="5.84194">
        <ele>734</ele>
        <time>2015-05-14T08:53:43.000Z</time>
      </trkpt>
      <trkpt lat="45.6645" lon="5.84196">
        <ele>734</ele>
        <time>2015-05-14T08:53:48.000Z</time>
      </trkpt>
      <trkpt lat="45.66454" lon="5.84199">
        <ele>733</ele>
        <time>2015-05-14T08:53:55.000Z</time>
      </trkpt>
      <trkpt lat="45.66457" lon="5.84202">
        <ele>732</ele>
        <time>2015-05-14T08:54:02.000Z</time>
      </trkpt>
      <trkpt lat="45.66461" lon="5.84204">
        <ele>732</ele>
        <time>2015-05-14T08:54:20.000Z</time>
      </trkpt>
      <trkpt lat="45.66463" lon="5.84205">
        <ele>731</ele>
        <time>2015-05-14T08:54:25.000Z</time>
      </trkpt>
      <trkpt lat="45.66466" lon="5.84208">
        <ele>731</ele>
        <time>2015-05-14T08:54:31.000Z</time>
      </trkpt>
      <trkpt lat="45.66467" lon="5.84211">
        <ele>730</ele>
        <time>2015-05-14T08:54:36.000Z</time>
      </trkpt>
      <trkpt lat="45.6647" lon="5.84215">
        <ele>729</ele>
        <time>2015-05-14T08:54:46.000Z</time>
      </trkpt>
      <trkpt lat="45.66474" lon="5.8422">
        <ele>728</ele>
        <time>2015-05-14T08:54:56.000Z</time>
      </trkpt>
      <trkpt lat="45.66476" lon="5.84223">
        <ele>727</ele>
        <time>2015-05-14T08:55:01.000Z</time>
      </trkpt>
      <trkpt lat="45.66479" lon="5.84226">
        <ele>726</ele>
        <time>2015-05-14T08:55:07.000Z</time>
      </trkpt>
      <trkpt lat="45.66481" lon="5.84229">
        <ele>725</ele>
        <time>2015-05-14T08:55:13.000Z</time>
      </trkpt>
      <trkpt lat="45.66484" lon="5.84234">
        <ele>723</ele>
        <time>2015-05-14T08:55:19.000Z</time>
      </trkpt>
      <trkpt lat="45.66488" lon="5.84238">
        <ele>721</ele>
        <time>2015-05-14T08:55:26.000Z</time>
      </trkpt>
      <trkpt lat="45.66491" lon="5.84243">
        <ele>719</ele>
        <time>2015-05-14T08:55:33.000Z</time>
      </trkpt>
      <trkpt lat="45.66493" lon="5.84245">
        <ele>717</ele>
        <time>2015-05-14T08:55:40.000Z</time>
      </trkpt>
      <trkpt lat="45.66495" lon="5.84245">
        <ele>717</ele>
        <time>2015-05-14T08:55:45.000Z</time>
      </trkpt>
      <trkpt lat="45.66498" lon="5.84243">
        <ele>717</ele>
        <time>2015-05-14T08:55:50.000Z</time>
      </trkpt>
      <trkpt lat="45.66501" lon="5.84241">
        <ele>716</ele>
        <time>2015-05-14T08:55:57.000Z</time>
      </trkpt>
      <trkpt lat="45.66503" lon="5.84239">
        <ele>717</ele>
        <time>2015-05-14T08:56:02.000Z</time>
      </trkpt>
      <trkpt lat="45.66507" lon="5.84237">
        <ele>718</ele>
        <time>2015-05-14T08:56:10.000Z</time>
      </trkpt>
      <trkpt lat="45.6651" lon="5.84236">
        <ele>718</ele>
        <time>2015-05-14T08:56:15.000Z</time>
      </trkpt>
      <trkpt lat="45.66514" lon="5.84235">
        <ele>719</ele>
        <time>2015-05-14T08:56:22.000Z</time>
      </trkpt>
      <trkpt lat="45.66517" lon="5.84232">
        <ele>719</ele>
        <time>2015-05-14T08:56:31.000Z</time>
      </trkpt>
      <trkpt lat="45.66522" lon="5.84231">
        <ele>720</ele>
        <time>2015-05-14T08:56:40.000Z</time>
      </trkpt>
      <trkpt lat="45.66524" lon="5.84233">
        <ele>720</ele>
        <time>2015-05-14T08:56:46.000Z</time>
      </trkpt>
      <trkpt lat="45.66524" lon="5.84238">
        <ele>719</ele>
        <time>2015-05-14T08:56:52.000Z</time>
      </trkpt>
      <trkpt lat="45.66524" lon="5.84243">
        <ele>718</ele>
        <time>2015-05-14T08:56:58.000Z</time>
      </trkpt>
      <trkpt lat="45.66524" lon="5.84247">
        <ele>718</ele>
        <time>2015-05-14T08:57:03.000Z</time>
      </trkpt>
      <trkpt lat="45.66523" lon="5.84251">
        <ele>698</ele>
        <time>2015-05-14T08:57:08.000Z</time>
      </trkpt>
      <trkpt lat="45.66524" lon="5.84256">
        <ele>697</ele>
        <time>2015-05-14T08:57:17.000Z</time>
      </trkpt>
      <trkpt lat="45.66523" lon="5.84265">
        <ele>696</ele>
        <time>2015-05-14T08:57:26.000Z</time>
      </trkpt>
      <trkpt lat="45.66523" lon="5.8427">
        <ele>694</ele>
        <time>2015-05-14T08:57:32.000Z</time>
      </trkpt>
      <trkpt lat="45.66522" lon="5.84274">
        <ele>693</ele>
        <time>2015-05-14T08:57:37.000Z</time>
      </trkpt>
      <trkpt lat="45.66522" lon="5.84277">
        <ele>692</ele>
        <time>2015-05-14T08:57:45.000Z</time>
      </trkpt>
      <trkpt lat="45.66522" lon="5.84279">
        <ele>692</ele>
        <time>2015-05-14T08:57:50.000Z</time>
      </trkpt>
      <trkpt lat="45.66524" lon="5.84278">
        <ele>692</ele>
        <time>2015-05-14T08:57:57.000Z</time>
      </trkpt>
      <trkpt lat="45.66528" lon="5.84276">
        <ele>692</ele>
        <time>2015-05-14T08:58:10.000Z</time>
      </trkpt>
      <trkpt lat="45.6653" lon="5.84276">
        <ele>692</ele>
        <time>2015-05-14T08:58:16.000Z</time>
      </trkpt>
      <trkpt lat="45.66534" lon="5.84276">
        <ele>692</ele>
        <time>2015-05-14T08:58:23.000Z</time>
      </trkpt>
      <trkpt lat="45.66537" lon="5.84278">
        <ele>691</ele>
        <time>2015-05-14T08:58:29.000Z</time>
      </trkpt>
      <trkpt lat="45.66541" lon="5.84277">
        <ele>691</ele>
        <time>2015-05-14T08:58:35.000Z</time>
      </trkpt>
      <trkpt lat="45.66546" lon="5.84279">
        <ele>690</ele>
        <time>2015-05-14T08:58:43.000Z</time>
      </trkpt>
      <trkpt lat="45.66549" lon="5.84281">
        <ele>690</ele>
        <time>2015-05-14T08:58:52.000Z</time>
      </trkpt>
      <trkpt lat="45.66552" lon="5.84282">
        <ele>689</ele>
        <time>2015-05-14T08:58:58.000Z</time>
      </trkpt>
      <trkpt lat="45.66557" lon="5.84281">
        <ele>690</ele>
        <time>2015-05-14T08:59:05.000Z</time>
      </trkpt>
      <trkpt lat="45.6656" lon="5.84281">
        <ele>690</ele>
        <time>2015-05-14T08:59:10.000Z</time>
      </trkpt>
      <trkpt lat="45.66563" lon="5.84282">
        <ele>689</ele>
        <time>2015-05-14T08:59:16.000Z</time>
      </trkpt>
      <trkpt lat="45.66567" lon="5.84284">
        <ele>689</ele>
        <time>2015-05-14T08:59:25.000Z</time>
      </trkpt>
      <trkpt lat="45.66571" lon="5.84288">
        <ele>688</ele>
        <time>2015-05-14T08:59:34.000Z</time>
      </trkpt>
      <trkpt lat="45.66575" lon="5.84289">
        <ele>687</ele>
        <time>2015-05-14T08:59:41.000Z</time>
      </trkpt>
      <trkpt lat="45.66578" lon="5.84289">
        <ele>687</ele>
        <time>2015-05-14T08:59:46.000Z</time>
      </trkpt>
      <trkpt lat="45.66583" lon="5.84288">
        <ele>688</ele>
        <time>2015-05-14T08:59:53.000Z</time>
      </trkpt>
      <trkpt lat="45.66586" lon="5.84285">
        <ele>684</ele>
        <time>2015-05-14T08:59:58.000Z</time>
      </trkpt>
      <trkpt lat="45.66589" lon="5.84283">
        <ele>684</ele>
        <time>2015-05-14T09:00:03.000Z</time>
      </trkpt>
      <trkpt lat="45.66593" lon="5.84281">
        <ele>685</ele>
        <time>2015-05-14T09:00:10.000Z</time>
      </trkpt>
      <trkpt lat="45.66596" lon="5.84278">
        <ele>686</ele>
        <time>2015-05-14T09:00:17.000Z</time>
      </trkpt>
      <trkpt lat="45.666" lon="5.84276">
        <ele>686</ele>
        <time>2015-05-14T09:00:22.000Z</time>
      </trkpt>
      <trkpt lat="45.66602" lon="5.84275">
        <ele>686</ele>
        <time>2015-05-14T09:00:26.000Z</time>
      </trkpt>
      <trkpt lat="45.66605" lon="5.84274">
        <ele>686</ele>
        <time>2015-05-14T09:00:32.000Z</time>
      </trkpt>
      <trkpt lat="45.66609" lon="5.8428">
        <ele>684</ele>
        <time>2015-05-14T09:00:40.000Z</time>
      </trkpt>
      <trkpt lat="45.66614" lon="5.84283">
        <ele>683</ele>
        <time>2015-05-14T09:00:45.000Z</time>
      </trkpt>
      <trkpt lat="45.66619" lon="5.84288">
        <ele>681</ele>
        <time>2015-05-14T09:00:52.000Z</time>
      </trkpt>
      <trkpt lat="45.66623" lon="5.84292">
        <ele>680</ele>
        <time>2015-05-14T09:00:58.000Z</time>
      </trkpt>
      <trkpt lat="45.66625" lon="5.84294">
        <ele>680</ele>
        <time>2015-05-14T09:01:00.000Z</time>
      </trkpt>
      <trkpt lat="45.66625" lon="5.84294">
        <ele>680</ele>
        <time>2015-05-14T09:01:01.000Z</time>
      </trkpt>
      <trkpt lat="45.66627" lon="5.84295">
        <ele>679</ele>
        <time>2015-05-14T09:01:03.000Z</time>
      </trkpt>
      <trkpt lat="45.66631" lon="5.84296">
        <ele>679</ele>
        <time>2015-05-14T09:01:08.000Z</time>
      </trkpt>
      <trkpt lat="45.66632" lon="5.84297">
        <ele>679</ele>
        <time>2015-05-14T09:01:10.000Z</time>
      </trkpt>
      <trkpt lat="45.66634" lon="5.84299">
        <ele>678</ele>
        <time>2015-05-14T09:01:14.000Z</time>
      </trkpt>
      <trkpt lat="45.66636" lon="5.84302">
        <ele>677</ele>
        <time>2015-05-14T09:01:19.000Z</time>
      </trkpt>
      <trkpt lat="45.66639" lon="5.84307">
        <ele>676</ele>
        <time>2015-05-14T09:01:26.000Z</time>
      </trkpt>
      <trkpt lat="45.66642" lon="5.84309">
        <ele>675</ele>
        <time>2015-05-14T09:01:31.000Z</time>
      </trkpt>
      <trkpt lat="45.66644" lon="5.84311">
        <ele>674</ele>
        <time>2015-05-14T09:01:36.000Z</time>
      </trkpt>
      <trkpt lat="45.66651" lon="5.84316">
        <ele>672</ele>
        <time>2015-05-14T09:02:03.000Z</time>
      </trkpt>
      <trkpt lat="45.66655" lon="5.8432">
        <ele>669</ele>
        <time>2015-05-14T09:02:09.000Z</time>
      </trkpt>
      <trkpt lat="45.66657" lon="5.84322">
        <ele>668</ele>
        <time>2015-05-14T09:02:14.000Z</time>
      </trkpt>
      <trkpt lat="45.66662" lon="5.84325">
        <ele>665</ele>
        <time>2015-05-14T09:02:21.000Z</time>
      </trkpt>
      <trkpt lat="45.66666" lon="5.84328">
        <ele>662</ele>
        <time>2015-05-14T09:02:28.000Z</time>
      </trkpt>
      <trkpt lat="45.6667" lon="5.84333">
        <ele>660</ele>
        <time>2015-05-14T09:02:35.000Z</time>
      </trkpt>
      <trkpt lat="45.66672" lon="5.84338">
        <ele>654</ele>
        <time>2015-05-14T09:02:40.000Z</time>
      </trkpt>
      <trkpt lat="45.66675" lon="5.84344">
        <ele>651</ele>
        <time>2015-05-14T09:02:47.000Z</time>
      </trkpt>
      <trkpt lat="45.66679" lon="5.84347">
        <ele>649</ele>
        <time>2015-05-14T09:02:53.000Z</time>
      </trkpt>
      <trkpt lat="45.66683" lon="5.84349">
        <ele>648</ele>
        <time>2015-05-14T09:02:59.000Z</time>
      </trkpt>
      <trkpt lat="45.66685" lon="5.8435">
        <ele>648</ele>
        <time>2015-05-14T09:03:05.000Z</time>
      </trkpt>
      <trkpt lat="45.66693" lon="5.84347">
        <ele>647</ele>
        <time>2015-05-14T09:03:35.000Z</time>
      </trkpt>
      <trkpt lat="45.66697" lon="5.84347">
        <ele>647</ele>
        <time>2015-05-14T09:03:41.000Z</time>
      </trkpt>
      <trkpt lat="45.66701" lon="5.84347">
        <ele>646</ele>
        <time>2015-05-14T09:03:46.000Z</time>
      </trkpt>
      <trkpt lat="45.66705" lon="5.84348">
        <ele>646</ele>
        <time>2015-05-14T09:03:50.000Z</time>
      </trkpt>
      <trkpt lat="45.66707" lon="5.84349">
        <ele>646</ele>
        <time>2015-05-14T09:03:53.000Z</time>
      </trkpt>
      <trkpt lat="45.66711" lon="5.84348">
        <ele>646</ele>
        <time>2015-05-14T09:03:57.000Z</time>
      </trkpt>
      <trkpt lat="45.66712" lon="5.84349">
        <ele>646</ele>
        <time>2015-05-14T09:03:59.000Z</time>
      </trkpt>
      <trkpt lat="45.66713" lon="5.84352">
        <ele>645</ele>
        <time>2015-05-14T09:04:05.000Z</time>
      </trkpt>
      <trkpt lat="45.66712" lon="5.84357">
        <ele>644</ele>
        <time>2015-05-14T09:04:11.000Z</time>
      </trkpt>
      <trkpt lat="45.6671" lon="5.84365">
        <ele>643</ele>
        <time>2015-05-14T09:04:19.000Z</time>
      </trkpt>
      <trkpt lat="45.66708" lon="5.84371">
        <ele>642</ele>
        <time>2015-05-14T09:04:26.000Z</time>
      </trkpt>
      <trkpt lat="45.66706" lon="5.84377">
        <ele>641</ele>
        <time>2015-05-14T09:04:33.000Z</time>
      </trkpt>
      <trkpt lat="45.66703" lon="5.84383">
        <ele>640</ele>
        <time>2015-05-14T09:04:39.000Z</time>
      </trkpt>
      <trkpt lat="45.66701" lon="5.84387">
        <ele>639</ele>
        <time>2015-05-14T09:04:43.000Z</time>
      </trkpt>
      <trkpt lat="45.66696" lon="5.84391">
        <ele>639</ele>
        <time>2015-05-14T09:04:50.000Z</time>
      </trkpt>
      <trkpt lat="45.66692" lon="5.84393">
        <ele>638</ele>
        <time>2015-05-14T09:04:56.000Z</time>
      </trkpt>
      <trkpt lat="45.66688" lon="5.84395">
        <ele>638</ele>
        <time>2015-05-14T09:05:02.000Z</time>
      </trkpt>
      <trkpt lat="45.66687" lon="5.84396">
        <ele>638</ele>
        <time>2015-05-14T09:05:11.000Z</time>
      </trkpt>
      <trkpt lat="45.66682" lon="5.84393">
        <ele>638</ele>
        <time>2015-05-14T09:05:33.000Z</time>
      </trkpt>
      <trkpt lat="45.66679" lon="5.84394">
        <ele>638</ele>
        <time>2015-05-14T09:05:39.000Z</time>
      </trkpt>
      <trkpt lat="45.66679" lon="5.84396">
        <ele>637</ele>
        <time>2015-05-14T09:05:49.000Z</time>
      </trkpt>
      <trkpt lat="45.6668" lon="5.84401">
        <ele>636</ele>
        <time>2015-05-14T09:05:59.000Z</time>
      </trkpt>
      <trkpt lat="45.66683" lon="5.84404">
        <ele>636</ele>
        <time>2015-05-14T09:06:05.000Z</time>
      </trkpt>
      <trkpt lat="45.66684" lon="5.84406">
        <ele>636</ele>
        <time>2015-05-14T09:06:09.000Z</time>
      </trkpt>
      <trkpt lat="45.66683" lon="5.84408">
        <ele>635</ele>
        <time>2015-05-14T09:06:15.000Z</time>
      </trkpt>
      <trkpt lat="45.66684" lon="5.84412">
        <ele>635</ele>
        <time>2015-05-14T09:06:24.000Z</time>
      </trkpt>
      <trkpt lat="45.66684" lon="5.84418">
        <ele>621</ele>
        <time>2015-05-14T09:06:29.000Z</time>
      </trkpt>
      <trkpt lat="45.66683" lon="5.84418">
        <ele>622</ele>
        <time>2015-05-14T09:06:34.000Z</time>
      </trkpt>
      <trkpt lat="45.66686" lon="5.84418">
        <ele>621</ele>
        <time>2015-05-14T09:06:43.000Z</time>
      </trkpt>
      <trkpt lat="45.66689" lon="5.84421">
        <ele>620</ele>
        <time>2015-05-14T09:06:50.000Z</time>
      </trkpt>
      <trkpt lat="45.6669" lon="5.84423">
        <ele>619</ele>
        <time>2015-05-14T09:08:10.000Z</time>
      </trkpt>
      <trkpt lat="45.66697" lon="5.84421">
        <ele>618</ele>
        <time>2015-05-14T09:08:18.000Z</time>
      </trkpt>
      <trkpt lat="45.66703" lon="5.84421">
        <ele>617</ele>
        <time>2015-05-14T09:08:24.000Z</time>
      </trkpt>
      <trkpt lat="45.66705" lon="5.8442">
        <ele>617</ele>
        <time>2015-05-14T09:08:26.000Z</time>
      </trkpt>
      <trkpt lat="45.6671" lon="5.84418">
        <ele>617</ele>
        <time>2015-05-14T09:08:33.000Z</time>
      </trkpt>
      <trkpt lat="45.66712" lon="5.84418">
        <ele>617</ele>
        <time>2015-05-14T09:08:38.000Z</time>
      </trkpt>
      <trkpt lat="45.66716" lon="5.84416">
        <ele>634</ele>
        <time>2015-05-14T09:08:43.000Z</time>
      </trkpt>
      <trkpt lat="45.66726" lon="5.84415">
        <ele>633</ele>
        <time>2015-05-14T09:08:58.000Z</time>
      </trkpt>
      <trkpt lat="45.6673" lon="5.84413">
        <ele>632</ele>
        <time>2015-05-14T09:09:04.000Z</time>
      </trkpt>
      <trkpt lat="45.66732" lon="5.84413">
        <ele>631</ele>
        <time>2015-05-14T09:09:11.000Z</time>
      </trkpt>
      <trkpt lat="45.66742" lon="5.84409">
        <ele>628</ele>
        <time>2015-05-14T09:10:11.000Z</time>
      </trkpt>
      <trkpt lat="45.66745" lon="5.8441">
        <ele>627</ele>
        <time>2015-05-14T09:10:16.000Z</time>
      </trkpt>
      <trkpt lat="45.66747" lon="5.8441">
        <ele>626</ele>
        <time>2015-05-14T09:10:22.000Z</time>
      </trkpt>
      <trkpt lat="45.66751" lon="5.84411">
        <ele>625</ele>
        <time>2015-05-14T09:10:30.000Z</time>
      </trkpt>
      <trkpt lat="45.66758" lon="5.84413">
        <ele>626</ele>
        <time>2015-05-14T09:10:38.000Z</time>
      </trkpt>
      <trkpt lat="45.66762" lon="5.84413">
        <ele>628</ele>
        <time>2015-05-14T09:10:43.000Z</time>
      </trkpt>
      <trkpt lat="45.66763" lon="5.84414">
        <ele>628</ele>
        <time>2015-05-14T09:10:44.000Z</time>
      </trkpt>
      <trkpt lat="45.66767" lon="5.84416">
        <ele>629</ele>
        <time>2015-05-14T09:10:49.000Z</time>
      </trkpt>
      <trkpt lat="45.66768" lon="5.84416">
        <ele>629</ele>
        <time>2015-05-14T09:10:50.000Z</time>
      </trkpt>
      <trkpt lat="45.6677" lon="5.84419">
        <ele>615</ele>
        <time>2015-05-14T09:10:54.000Z</time>
      </trkpt>
      <trkpt lat="45.66773" lon="5.84421">
        <ele>614</ele>
        <time>2015-05-14T09:10:58.000Z</time>
      </trkpt>
      <trkpt lat="45.66777" lon="5.84424">
        <ele>613</ele>
        <time>2015-05-14T09:11:05.000Z</time>
      </trkpt>
      <trkpt lat="45.66781" lon="5.84426">
        <ele>613</ele>
        <time>2015-05-14T09:11:13.000Z</time>
      </trkpt>
      <trkpt lat="45.66786" lon="5.84429">
        <ele>612</ele>
        <time>2015-05-14T09:11:20.000Z</time>
      </trkpt>
      <trkpt lat="45.66788" lon="5.8443">
        <ele>612</ele>
        <time>2015-05-14T09:11:22.000Z</time>
      </trkpt>
      <trkpt lat="45.66791" lon="5.84432">
        <ele>612</ele>
        <time>2015-05-14T09:11:26.000Z</time>
      </trkpt>
      <trkpt lat="45.66794" lon="5.84434">
        <ele>612</ele>
        <time>2015-05-14T09:11:29.000Z</time>
      </trkpt>
      <trkpt lat="45.66797" lon="5.84437">
        <ele>611</ele>
        <time>2015-05-14T09:11:34.000Z</time>
      </trkpt>
      <trkpt lat="45.66798" lon="5.84438">
        <ele>611</ele>
        <time>2015-05-14T09:11:35.000Z</time>
      </trkpt>
      <trkpt lat="45.66799" lon="5.84441">
        <ele>611</ele>
        <time>2015-05-14T09:11:39.000Z</time>
      </trkpt>
      <trkpt lat="45.66803" lon="5.84445">
        <ele>610</ele>
        <time>2015-05-14T09:11:45.000Z</time>
      </trkpt>
      <trkpt lat="45.66807" lon="5.84451">
        <ele>609</ele>
        <time>2015-05-14T09:11:53.000Z</time>
      </trkpt>
      <trkpt lat="45.66808" lon="5.84454">
        <ele>609</ele>
        <time>2015-05-14T09:12:01.000Z</time>
      </trkpt>
      <trkpt lat="45.66812" lon="5.84457">
        <ele>608</ele>
        <time>2015-05-14T09:12:07.000Z</time>
      </trkpt>
      <trkpt lat="45.66815" lon="5.8446">
        <ele>608</ele>
        <time>2015-05-14T09:12:12.000Z</time>
      </trkpt>
      <trkpt lat="45.66819" lon="5.84462">
        <ele>607</ele>
        <time>2015-05-14T09:12:17.000Z</time>
      </trkpt>
      <trkpt lat="45.66824" lon="5.84464">
        <ele>607</ele>
        <time>2015-05-14T09:12:24.000Z</time>
      </trkpt>
      <trkpt lat="45.6683" lon="5.84467">
        <ele>606</ele>
        <time>2015-05-14T09:12:33.000Z</time>
      </trkpt>
      <trkpt lat="45.66835" lon="5.84469">
        <ele>606</ele>
        <time>2015-05-14T09:12:39.000Z</time>
      </trkpt>
      <trkpt lat="45.66837" lon="5.8447">
        <ele>605</ele>
        <time>2015-05-14T09:12:41.000Z</time>
      </trkpt>
      <trkpt lat="45.6684" lon="5.84472">
        <ele>605</ele>
        <time>2015-05-14T09:12:44.000Z</time>
      </trkpt>
      <trkpt lat="45.66841" lon="5.84472">
        <ele>605</ele>
        <time>2015-05-14T09:12:45.000Z</time>
      </trkpt>
      <trkpt lat="45.66845" lon="5.84474">
        <ele>605</ele>
        <time>2015-05-14T09:12:50.000Z</time>
      </trkpt>
      <trkpt lat="45.66846" lon="5.84475">
        <ele>605</ele>
        <time>2015-05-14T09:12:52.000Z</time>
      </trkpt>
      <trkpt lat="45.66849" lon="5.84477">
        <ele>604</ele>
        <time>2015-05-14T09:12:57.000Z</time>
      </trkpt>
      <trkpt lat="45.66854" lon="5.84479">
        <ele>604</ele>
        <time>2015-05-14T09:13:04.000Z</time>
      </trkpt>
      <trkpt lat="45.66858" lon="5.84481">
        <ele>604</ele>
        <time>2015-05-14T09:13:09.000Z</time>
      </trkpt>
      <trkpt lat="45.6686" lon="5.84483">
        <ele>604</ele>
        <time>2015-05-14T09:13:11.000Z</time>
      </trkpt>
      <trkpt lat="45.66862" lon="5.84484">
        <ele>604</ele>
        <time>2015-05-14T09:13:14.000Z</time>
      </trkpt>
      <trkpt lat="45.66864" lon="5.84485">
        <ele>604</ele>
        <time>2015-05-14T09:13:16.000Z</time>
      </trkpt>
      <trkpt lat="45.66867" lon="5.84486">
        <ele>604</ele>
        <time>2015-05-14T09:13:19.000Z</time>
      </trkpt>
      <trkpt lat="45.6687" lon="5.84487">
        <ele>604</ele>
        <time>2015-05-14T09:13:22.000Z</time>
      </trkpt>
      <trkpt lat="45.66876" lon="5.84489">
        <ele>604</ele>
        <time>2015-05-14T09:13:28.000Z</time>
      </trkpt>
      <trkpt lat="45.6688" lon="5.84491">
        <ele>604</ele>
        <time>2015-05-14T09:13:33.000Z</time>
      </trkpt>
      <trkpt lat="45.66882" lon="5.84493">
        <ele>604</ele>
        <time>2015-05-14T09:13:36.000Z</time>
      </trkpt>
      <trkpt lat="45.66884" lon="5.84494">
        <ele>604</ele>
        <time>2015-05-14T09:13:38.000Z</time>
      </trkpt>
      <trkpt lat="45.66885" lon="5.84496">
        <ele>604</ele>
        <time>2015-05-14T09:13:41.000Z</time>
      </trkpt>
      <trkpt lat="45.66885" lon="5.84497">
        <ele>604</ele>
        <time>2015-05-14T09:13:42.000Z</time>
      </trkpt>
      <trkpt lat="45.66887" lon="5.845">
        <ele>589</ele>
        <time>2015-05-14T09:13:45.000Z</time>
      </trkpt>
      <trkpt lat="45.66889" lon="5.84503">
        <ele>589</ele>
        <time>2015-05-14T09:13:47.000Z</time>
      </trkpt>
      <trkpt lat="45.6689" lon="5.84504">
        <ele>589</ele>
        <time>2015-05-14T09:13:48.000Z</time>
      </trkpt>
      <trkpt lat="45.66895" lon="5.84508">
        <ele>589</ele>
        <time>2015-05-14T09:13:53.000Z</time>
      </trkpt>
      <trkpt lat="45.66901" lon="5.84513">
        <ele>589</ele>
        <time>2015-05-14T09:14:00.000Z</time>
      </trkpt>
      <trkpt lat="45.66902" lon="5.84515">
        <ele>589</ele>
        <time>2015-05-14T09:14:02.000Z</time>
      </trkpt>
      <trkpt lat="45.66903" lon="5.84515">
        <ele>589</ele>
        <time>2015-05-14T09:14:03.000Z</time>
      </trkpt>
      <trkpt lat="45.66904" lon="5.84517">
        <ele>589</ele>
        <time>2015-05-14T09:14:05.000Z</time>
      </trkpt>
      <trkpt lat="45.66906" lon="5.84521">
        <ele>589</ele>
        <time>2015-05-14T09:14:08.000Z</time>
      </trkpt>
      <trkpt lat="45.66909" lon="5.84524">
        <ele>588</ele>
        <time>2015-05-14T09:14:12.000Z</time>
      </trkpt>
      <trkpt lat="45.6691" lon="5.84526">
        <ele>588</ele>
        <time>2015-05-14T09:14:14.000Z</time>
      </trkpt>
      <trkpt lat="45.66914" lon="5.84529">
        <ele>587</ele>
        <time>2015-05-14T09:14:19.000Z</time>
      </trkpt>
      <trkpt lat="45.66915" lon="5.84531">
        <ele>587</ele>
        <time>2015-05-14T09:14:22.000Z</time>
      </trkpt>
      <trkpt lat="45.66917" lon="5.84533">
        <ele>590</ele>
        <time>2015-05-14T09:14:25.000Z</time>
      </trkpt>
      <trkpt lat="45.66919" lon="5.84536">
        <ele>589</ele>
        <time>2015-05-14T09:14:28.000Z</time>
      </trkpt>
      <trkpt lat="45.66922" lon="5.84538">
        <ele>589</ele>
        <time>2015-05-14T09:14:32.000Z</time>
      </trkpt>
      <trkpt lat="45.66923" lon="5.84539">
        <ele>589</ele>
        <time>2015-05-14T09:14:33.000Z</time>
      </trkpt>
      <trkpt lat="45.66926" lon="5.84542">
        <ele>588</ele>
        <time>2015-05-14T09:14:37.000Z</time>
      </trkpt>
      <trkpt lat="45.66929" lon="5.84545">
        <ele>588</ele>
        <time>2015-05-14T09:14:40.000Z</time>
      </trkpt>
      <trkpt lat="45.66931" lon="5.84548">
        <ele>587</ele>
        <time>2015-05-14T09:14:43.000Z</time>
      </trkpt>
      <trkpt lat="45.66932" lon="5.84548">
        <ele>587</ele>
        <time>2015-05-14T09:14:44.000Z</time>
      </trkpt>
      <trkpt lat="45.66936" lon="5.84552">
        <ele>587</ele>
        <time>2015-05-14T09:14:49.000Z</time>
      </trkpt>
      <trkpt lat="45.66941" lon="5.84558">
        <ele>586</ele>
        <time>2015-05-14T09:14:55.000Z</time>
      </trkpt>
      <trkpt lat="45.66942" lon="5.8456">
        <ele>586</ele>
        <time>2015-05-14T09:14:57.000Z</time>
      </trkpt>
      <trkpt lat="45.66944" lon="5.84562">
        <ele>586</ele>
        <time>2015-05-14T09:14:59.000Z</time>
      </trkpt>
      <trkpt lat="45.66946" lon="5.84566">
        <ele>586</ele>
        <time>2015-05-14T09:15:03.000Z</time>
      </trkpt>
      <trkpt lat="45.66952" lon="5.84572">
        <ele>586</ele>
        <time>2015-05-14T09:15:10.000Z</time>
      </trkpt>
      <trkpt lat="45.66956" lon="5.84575">
        <ele>586</ele>
        <time>2015-05-14T09:15:15.000Z</time>
      </trkpt>
      <trkpt lat="45.66958" lon="5.84576">
        <ele>586</ele>
        <time>2015-05-14T09:15:17.000Z</time>
      </trkpt>
      <trkpt lat="45.66964" lon="5.84578">
        <ele>586</ele>
        <time>2015-05-14T09:15:24.000Z</time>
      </trkpt>
      <trkpt lat="45.6697" lon="5.84582">
        <ele>586</ele>
        <time>2015-05-14T09:15:31.000Z</time>
      </trkpt>
      <trkpt lat="45.66973" lon="5.84582">
        <ele>586</ele>
        <time>2015-05-14T09:15:34.000Z</time>
      </trkpt>
      <trkpt lat="45.66973" lon="5.84582">
        <ele>586</ele>
        <time>2015-05-14T09:15:35.000Z</time>
      </trkpt>
      <trkpt lat="45.66975" lon="5.84584">
        <ele>573</ele>
        <time>2015-05-14T09:15:37.000Z</time>
      </trkpt>
      <trkpt lat="45.66976" lon="5.84585">
        <ele>574</ele>
        <time>2015-05-14T09:15:39.000Z</time>
      </trkpt>
      <trkpt lat="45.66978" lon="5.84588">
        <ele>574</ele>
        <time>2015-05-14T09:15:43.000Z</time>
      </trkpt>
      <trkpt lat="45.66978" lon="5.84589">
        <ele>574</ele>
        <time>2015-05-14T09:15:44.000Z</time>
      </trkpt>
      <trkpt lat="45.6698" lon="5.84595">
        <ele>573</ele>
        <time>2015-05-14T09:15:51.000Z</time>
      </trkpt>
      <trkpt lat="45.66984" lon="5.84599">
        <ele>573</ele>
        <time>2015-05-14T09:15:56.000Z</time>
      </trkpt>
      <trkpt lat="45.66991" lon="5.84607">
        <ele>572</ele>
        <time>2015-05-14T09:16:05.000Z</time>
      </trkpt>
      <trkpt lat="45.66992" lon="5.8461">
        <ele>572</ele>
        <time>2015-05-14T09:16:07.000Z</time>
      </trkpt>
      <trkpt lat="45.66994" lon="5.84615">
        <ele>571</ele>
        <time>2015-05-14T09:16:12.000Z</time>
      </trkpt>
      <trkpt lat="45.66995" lon="5.84619">
        <ele>570</ele>
        <time>2015-05-14T09:16:20.000Z</time>
      </trkpt>
      <trkpt lat="45.66995" lon="5.84621">
        <ele>569</ele>
        <time>2015-05-14T09:16:28.000Z</time>
      </trkpt>
      <trkpt lat="45.66994" lon="5.84627">
        <ele>568</ele>
        <time>2015-05-14T09:16:49.000Z</time>
      </trkpt>
      <trkpt lat="45.6699" lon="5.84632">
        <ele>567</ele>
        <time>2015-05-14T09:17:25.000Z</time>
      </trkpt>
      <trkpt lat="45.66987" lon="5.84632">
        <ele>567</ele>
        <time>2015-05-14T09:17:30.000Z</time>
      </trkpt>
      <trkpt lat="45.66982" lon="5.84631">
        <ele>567</ele>
        <time>2015-05-14T09:17:37.000Z</time>
      </trkpt>
      <trkpt lat="45.66979" lon="5.8463">
        <ele>567</ele>
        <time>2015-05-14T09:17:45.000Z</time>
      </trkpt>
      <trkpt lat="45.66973" lon="5.84628">
        <ele>567</ele>
        <time>2015-05-14T09:17:54.000Z</time>
      </trkpt>
      <trkpt lat="45.66969" lon="5.84628">
        <ele>567</ele>
        <time>2015-05-14T09:18:02.000Z</time>
      </trkpt>
      <trkpt lat="45.66967" lon="5.84629">
        <ele>567</ele>
        <time>2015-05-14T09:18:07.000Z</time>
      </trkpt>
      <trkpt lat="45.66964" lon="5.8463">
        <ele>567</ele>
        <time>2015-05-14T09:18:13.000Z</time>
      </trkpt>
      <trkpt lat="45.6696" lon="5.84631">
        <ele>566</ele>
        <time>2015-05-14T09:18:21.000Z</time>
      </trkpt>
      <trkpt lat="45.66958" lon="5.84631">
        <ele>566</ele>
        <time>2015-05-14T09:18:29.000Z</time>
      </trkpt>
      <trkpt lat="45.66952" lon="5.84632">
        <ele>566</ele>
        <time>2015-05-14T09:18:39.000Z</time>
      </trkpt>
      <trkpt lat="45.66946" lon="5.84633">
        <ele>565</ele>
        <time>2015-05-14T09:18:46.000Z</time>
      </trkpt>
      <trkpt lat="45.66939" lon="5.84634">
        <ele>565</ele>
        <time>2015-05-14T09:18:53.000Z</time>
      </trkpt>
      <trkpt lat="45.66934" lon="5.84637">
        <ele>564</ele>
        <time>2015-05-14T09:19:01.000Z</time>
      </trkpt>
      <trkpt lat="45.6693" lon="5.84638">
        <ele>563</ele>
        <time>2015-05-14T09:19:06.000Z</time>
      </trkpt>
      <trkpt lat="45.66923" lon="5.84638">
        <ele>563</ele>
        <time>2015-05-14T09:19:13.000Z</time>
      </trkpt>
      <trkpt lat="45.66921" lon="5.84638">
        <ele>563</ele>
        <time>2015-05-14T09:19:15.000Z</time>
      </trkpt>
      <trkpt lat="45.66918" lon="5.84638">
        <ele>563</ele>
        <time>2015-05-14T09:19:18.000Z</time>
      </trkpt>
      <trkpt lat="45.66916" lon="5.84638">
        <ele>558</ele>
        <time>2015-05-14T09:19:22.000Z</time>
      </trkpt>
      <trkpt lat="45.66914" lon="5.84638">
        <ele>558</ele>
        <time>2015-05-14T09:19:25.000Z</time>
      </trkpt>
      <trkpt lat="45.66909" lon="5.84639">
        <ele>558</ele>
        <time>2015-05-14T09:19:30.000Z</time>
      </trkpt>
      <trkpt lat="45.66906" lon="5.8464">
        <ele>558</ele>
        <time>2015-05-14T09:19:36.000Z</time>
      </trkpt>
      <trkpt lat="45.66903" lon="5.84641">
        <ele>558</ele>
        <time>2015-05-14T09:19:41.000Z</time>
      </trkpt>
      <trkpt lat="45.66899" lon="5.84644">
        <ele>557</ele>
        <time>2015-05-14T09:19:47.000Z</time>
      </trkpt>
      <trkpt lat="45.66897" lon="5.84647">
        <ele>557</ele>
        <time>2015-05-14T09:19:54.000Z</time>
      </trkpt>
      <trkpt lat="45.66896" lon="5.84652">
        <ele>556</ele>
        <time>2015-05-14T09:20:01.000Z</time>
      </trkpt>
      <trkpt lat="45.66884" lon="5.84651">
        <ele>556</ele>
        <time>2015-05-14T09:20:39.000Z</time>
      </trkpt>
      <trkpt lat="45.66884" lon="5.84652">
        <ele>556</ele>
        <time>2015-05-14T09:21:38.000Z</time>
      </trkpt>
      <trkpt lat="45.66882" lon="5.84651">
        <ele>556</ele>
        <time>2015-05-14T09:21:59.000Z</time>
      </trkpt>
      <trkpt lat="45.66886" lon="5.84652">
        <ele>556</ele>
        <time>2015-05-14T09:23:24.000Z</time>
      </trkpt>
      <trkpt lat="45.66888" lon="5.84645">
        <ele>557</ele>
        <time>2015-05-14T09:23:47.000Z</time>
      </trkpt>
      <trkpt lat="45.66884" lon="5.84647">
        <ele>557</ele>
        <time>2015-05-14T09:24:26.000Z</time>
      </trkpt>
      <trkpt lat="45.66885" lon="5.84649">
        <ele>557</ele>
        <time>2015-05-14T09:27:01.000Z</time>
      </trkpt>
      <trkpt lat="45.66893" lon="5.84645">
        <ele>557</ele>
        <time>2015-05-14T09:28:42.000Z</time>
      </trkpt>
      <trkpt lat="45.6689" lon="5.84647">
        <ele>557</ele>
        <time>2015-05-14T09:28:50.000Z</time>
      </trkpt>
      <trkpt lat="45.66886" lon="5.84647">
        <ele>557</ele>
        <time>2015-05-14T09:28:57.000Z</time>
      </trkpt>
      <trkpt lat="45.66882" lon="5.84648">
        <ele>557</ele>
        <time>2015-05-14T09:29:04.000Z</time>
      </trkpt>
      <trkpt lat="45.66878" lon="5.84648">
        <ele>557</ele>
        <time>2015-05-14T09:29:09.000Z</time>
      </trkpt>
      <trkpt lat="45.66871" lon="5.84649">
        <ele>556</ele>
        <time>2015-05-14T09:29:16.000Z</time>
      </trkpt>
      <trkpt lat="45.66862" lon="5.84653">
        <ele>554</ele>
        <time>2015-05-14T09:29:24.000Z</time>
      </trkpt>
      <trkpt lat="45.66852" lon="5.84656">
        <ele>552</ele>
        <time>2015-05-14T09:29:33.000Z</time>
      </trkpt>
      <trkpt lat="45.66843" lon="5.84658">
        <ele>549</ele>
        <time>2015-05-14T09:29:41.000Z</time>
      </trkpt>
      <trkpt lat="45.66842" lon="5.84658">
        <ele>549</ele>
        <time>2015-05-14T09:29:42.000Z</time>
      </trkpt>
      <trkpt lat="45.66836" lon="5.84656">
        <ele>549</ele>
        <time>2015-05-14T09:29:47.000Z</time>
      </trkpt>
      <trkpt lat="45.66829" lon="5.84657">
        <ele>546</ele>
        <time>2015-05-14T09:29:53.000Z</time>
      </trkpt>
      <trkpt lat="45.66827" lon="5.84657">
        <ele>546</ele>
        <time>2015-05-14T09:29:55.000Z</time>
      </trkpt>
      <trkpt lat="45.66822" lon="5.84657">
        <ele>547</ele>
        <time>2015-05-14T09:30:00.000Z</time>
      </trkpt>
      <trkpt lat="45.66814" lon="5.84657">
        <ele>548</ele>
        <time>2015-05-14T09:30:09.000Z</time>
      </trkpt>
      <trkpt lat="45.66811" lon="5.84657">
        <ele>548</ele>
        <time>2015-05-14T09:30:15.000Z</time>
      </trkpt>
      <trkpt lat="45.66805" lon="5.84659">
        <ele>548</ele>
        <time>2015-05-14T09:30:22.000Z</time>
      </trkpt>
      <trkpt lat="45.66801" lon="5.84659">
        <ele>548</ele>
        <time>2015-05-14T09:30:26.000Z</time>
      </trkpt>
      <trkpt lat="45.668" lon="5.84659">
        <ele>548</ele>
        <time>2015-05-14T09:30:28.000Z</time>
      </trkpt>
      <trkpt lat="45.66797" lon="5.8466">
        <ele>548</ele>
        <time>2015-05-14T09:30:32.000Z</time>
      </trkpt>
      <trkpt lat="45.66795" lon="5.8466">
        <ele>548</ele>
        <time>2015-05-14T09:30:34.000Z</time>
      </trkpt>
      <trkpt lat="45.66791" lon="5.84659">
        <ele>548</ele>
        <time>2015-05-14T09:30:39.000Z</time>
      </trkpt>
      <trkpt lat="45.66785" lon="5.84659">
        <ele>547</ele>
        <time>2015-05-14T09:30:46.000Z</time>
      </trkpt>
      <trkpt lat="45.66782" lon="5.8466">
        <ele>547</ele>
        <time>2015-05-14T09:30:49.000Z</time>
      </trkpt>
      <trkpt lat="45.66778" lon="5.84662">
        <ele>546</ele>
        <time>2015-05-14T09:30:53.000Z</time>
      </trkpt>
      <trkpt lat="45.66768" lon="5.84668">
        <ele>528</ele>
        <time>2015-05-14T09:31:03.000Z</time>
      </trkpt>
      <trkpt lat="45.66762" lon="5.8467">
        <ele>529</ele>
        <time>2015-05-14T09:31:10.000Z</time>
      </trkpt>
      <trkpt lat="45.66756" lon="5.84672">
        <ele>530</ele>
        <time>2015-05-14T09:31:16.000Z</time>
      </trkpt>
      <trkpt lat="45.66752" lon="5.84673">
        <ele>530</ele>
        <time>2015-05-14T09:31:19.000Z</time>
      </trkpt>
      <trkpt lat="45.66749" lon="5.84674">
        <ele>527</ele>
        <time>2015-05-14T09:31:22.000Z</time>
      </trkpt>
      <trkpt lat="45.66743" lon="5.84675">
        <ele>525</ele>
        <time>2015-05-14T09:31:29.000Z</time>
      </trkpt>
      <trkpt lat="45.6674" lon="5.84676">
        <ele>523</ele>
        <time>2015-05-14T09:31:33.000Z</time>
      </trkpt>
      <trkpt lat="45.66731" lon="5.84678">
        <ele>520</ele>
        <time>2015-05-14T09:31:40.000Z</time>
      </trkpt>
      <trkpt lat="45.6673" lon="5.84679">
        <ele>519</ele>
        <time>2015-05-14T09:31:41.000Z</time>
      </trkpt>
      <trkpt lat="45.66722" lon="5.84682">
        <ele>517</ele>
        <time>2015-05-14T09:31:48.000Z</time>
      </trkpt>
      <trkpt lat="45.66719" lon="5.84682">
        <ele>516</ele>
        <time>2015-05-14T09:31:50.000Z</time>
      </trkpt>
      <trkpt lat="45.66714" lon="5.84683">
        <ele>515</ele>
        <time>2015-05-14T09:31:54.000Z</time>
      </trkpt>
      <trkpt lat="45.66713" lon="5.84683">
        <ele>515</ele>
        <time>2015-05-14T09:31:56.000Z</time>
      </trkpt>
      <trkpt lat="45.66709" lon="5.84682">
        <ele>515</ele>
        <time>2015-05-14T09:31:59.000Z</time>
      </trkpt>
      <trkpt lat="45.66704" lon="5.84683">
        <ele>514</ele>
        <time>2015-05-14T09:32:04.000Z</time>
      </trkpt>
      <trkpt lat="45.66702" lon="5.84683">
        <ele>514</ele>
        <time>2015-05-14T09:32:06.000Z</time>
      </trkpt>
      <trkpt lat="45.66698" lon="5.84683">
        <ele>514</ele>
        <time>2015-05-14T09:32:10.000Z</time>
      </trkpt>
      <trkpt lat="45.66696" lon="5.84683">
        <ele>514</ele>
        <time>2015-05-14T09:32:12.000Z</time>
      </trkpt>
      <trkpt lat="45.66687" lon="5.84683">
        <ele>514</ele>
        <time>2015-05-14T09:32:20.000Z</time>
      </trkpt>
      <trkpt lat="45.66685" lon="5.84683">
        <ele>514</ele>
        <time>2015-05-14T09:32:22.000Z</time>
      </trkpt>
      <trkpt lat="45.66681" lon="5.84683">
        <ele>514</ele>
        <time>2015-05-14T09:32:26.000Z</time>
      </trkpt>
      <trkpt lat="45.6668" lon="5.84683">
        <ele>514</ele>
        <time>2015-05-14T09:32:27.000Z</time>
      </trkpt>
      <trkpt lat="45.66673" lon="5.84684">
        <ele>514</ele>
        <time>2015-05-14T09:32:33.000Z</time>
      </trkpt>
      <trkpt lat="45.66671" lon="5.84684">
        <ele>514</ele>
        <time>2015-05-14T09:32:35.000Z</time>
      </trkpt>
      <trkpt lat="45.66667" lon="5.84685">
        <ele>514</ele>
        <time>2015-05-14T09:32:39.000Z</time>
      </trkpt>
      <trkpt lat="45.66663" lon="5.84686">
        <ele>508</ele>
        <time>2015-05-14T09:32:43.000Z</time>
      </trkpt>
      <trkpt lat="45.66661" lon="5.84686">
        <ele>508</ele>
        <time>2015-05-14T09:32:45.000Z</time>
      </trkpt>
      <trkpt lat="45.66653" lon="5.84685">
        <ele>507</ele>
        <time>2015-05-14T09:32:53.000Z</time>
      </trkpt>
      <trkpt lat="45.6665" lon="5.84685">
        <ele>506</ele>
        <time>2015-05-14T09:32:56.000Z</time>
      </trkpt>
      <trkpt lat="45.66646" lon="5.84684">
        <ele>505</ele>
        <time>2015-05-14T09:33:02.000Z</time>
      </trkpt>
      <trkpt lat="45.66641" lon="5.84684">
        <ele>504</ele>
        <time>2015-05-14T09:33:10.000Z</time>
      </trkpt>
      <trkpt lat="45.66635" lon="5.84684">
        <ele>503</ele>
        <time>2015-05-14T09:33:17.000Z</time>
      </trkpt>
      <trkpt lat="45.66628" lon="5.84686">
        <ele>502</ele>
        <time>2015-05-14T09:33:25.000Z</time>
      </trkpt>
      <trkpt lat="45.66627" lon="5.84685">
        <ele>502</ele>
        <time>2015-05-14T09:33:26.000Z</time>
      </trkpt>
      <trkpt lat="45.66623" lon="5.84685">
        <ele>502</ele>
        <time>2015-05-14T09:33:30.000Z</time>
      </trkpt>
      <trkpt lat="45.66622" lon="5.84684">
        <ele>502</ele>
        <time>2015-05-14T09:33:31.000Z</time>
      </trkpt>
      <trkpt lat="45.6662" lon="5.84684">
        <ele>502</ele>
        <time>2015-05-14T09:33:34.000Z</time>
      </trkpt>
      <trkpt lat="45.66617" lon="5.84683">
        <ele>502</ele>
        <time>2015-05-14T09:33:37.000Z</time>
      </trkpt>
      <trkpt lat="45.66612" lon="5.84683">
        <ele>501</ele>
        <time>2015-05-14T09:33:43.000Z</time>
      </trkpt>
      <trkpt lat="45.66609" lon="5.84683">
        <ele>501</ele>
        <time>2015-05-14T09:33:46.000Z</time>
      </trkpt>
      <trkpt lat="45.66607" lon="5.84683">
        <ele>501</ele>
        <time>2015-05-14T09:33:48.000Z</time>
      </trkpt>
      <trkpt lat="45.66606" lon="5.84683">
        <ele>501</ele>
        <time>2015-05-14T09:33:49.000Z</time>
      </trkpt>
      <trkpt lat="45.66604" lon="5.84687">
        <ele>501</ele>
        <time>2015-05-14T09:33:54.000Z</time>
      </trkpt>
      <trkpt lat="45.66605" lon="5.84693">
        <ele>500</ele>
        <time>2015-05-14T09:34:00.000Z</time>
      </trkpt>
      <trkpt lat="45.66608" lon="5.84697">
        <ele>499</ele>
        <time>2015-05-14T09:34:08.000Z</time>
      </trkpt>
      <trkpt lat="45.66611" lon="5.84704">
        <ele>498</ele>
        <time>2015-05-14T09:34:16.000Z</time>
      </trkpt>
      <trkpt lat="45.66613" lon="5.84709">
        <ele>497</ele>
        <time>2015-05-14T09:34:22.000Z</time>
      </trkpt>
      <trkpt lat="45.66614" lon="5.84715">
        <ele>496</ele>
        <time>2015-05-14T09:34:27.000Z</time>
      </trkpt>
      <trkpt lat="45.66616" lon="5.84719">
        <ele>495</ele>
        <time>2015-05-14T09:34:33.000Z</time>
      </trkpt>
      <trkpt lat="45.66618" lon="5.8472">
        <ele>495</ele>
        <time>2015-05-14T09:34:38.000Z</time>
      </trkpt>
      <trkpt lat="45.66621" lon="5.8472">
        <ele>496</ele>
        <time>2015-05-14T09:34:42.000Z</time>
      </trkpt>
      <trkpt lat="45.66626" lon="5.84724">
        <ele>495</ele>
        <time>2015-05-14T09:34:49.000Z</time>
      </trkpt>
      <trkpt lat="45.66627" lon="5.84728">
        <ele>495</ele>
        <time>2015-05-14T09:34:54.000Z</time>
      </trkpt>
      <trkpt lat="45.66626" lon="5.8473">
        <ele>494</ele>
        <time>2015-05-14T09:34:57.000Z</time>
      </trkpt>
      <trkpt lat="45.66625" lon="5.84733">
        <ele>494</ele>
        <time>2015-05-14T09:35:02.000Z</time>
      </trkpt>
      <trkpt lat="45.66621" lon="5.84737">
        <ele>493</ele>
        <time>2015-05-14T09:35:10.000Z</time>
      </trkpt>
      <trkpt lat="45.66618" lon="5.84738">
        <ele>493</ele>
        <time>2015-05-14T09:35:15.000Z</time>
      </trkpt>
      <trkpt lat="45.66616" lon="5.8474">
        <ele>492</ele>
        <time>2015-05-14T09:35:20.000Z</time>
      </trkpt>
      <trkpt lat="45.66612" lon="5.84744">
        <ele>491</ele>
        <time>2015-05-14T09:35:27.000Z</time>
      </trkpt>
      <trkpt lat="45.66611" lon="5.84748">
        <ele>491</ele>
        <time>2015-05-14T09:35:33.000Z</time>
      </trkpt>
      <trkpt lat="45.66614" lon="5.8475">
        <ele>491</ele>
        <time>2015-05-14T09:35:39.000Z</time>
      </trkpt>
      <trkpt lat="45.66617" lon="5.84753">
        <ele>474</ele>
        <time>2015-05-14T09:35:46.000Z</time>
      </trkpt>
      <trkpt lat="45.66617" lon="5.84758">
        <ele>474</ele>
        <time>2015-05-14T09:35:53.000Z</time>
      </trkpt>
      <trkpt lat="45.66618" lon="5.84762">
        <ele>474</ele>
        <time>2015-05-14T09:36:00.000Z</time>
      </trkpt>
      <trkpt lat="45.66617" lon="5.84767">
        <ele>473</ele>
        <time>2015-05-14T09:36:06.000Z</time>
      </trkpt>
      <trkpt lat="45.66617" lon="5.84772">
        <ele>473</ele>
        <time>2015-05-14T09:36:12.000Z</time>
      </trkpt>
      <trkpt lat="45.66616" lon="5.84775">
        <ele>472</ele>
        <time>2015-05-14T09:36:17.000Z</time>
      </trkpt>
      <trkpt lat="45.66615" lon="5.8478">
        <ele>471</ele>
        <time>2015-05-14T09:36:22.000Z</time>
      </trkpt>
      <trkpt lat="45.66614" lon="5.84784">
        <ele>471</ele>
        <time>2015-05-14T09:36:27.000Z</time>
      </trkpt>
      <trkpt lat="45.66614" lon="5.84788">
        <ele>470</ele>
        <time>2015-05-14T09:36:32.000Z</time>
      </trkpt>
      <trkpt lat="45.66615" lon="5.84793">
        <ele>470</ele>
        <time>2015-05-14T09:36:38.000Z</time>
      </trkpt>
      <trkpt lat="45.66616" lon="5.84798">
        <ele>469</ele>
        <time>2015-05-14T09:36:44.000Z</time>
      </trkpt>
      <trkpt lat="45.66617" lon="5.84802">
        <ele>468</ele>
        <time>2015-05-14T09:36:49.000Z</time>
      </trkpt>
      <trkpt lat="45.66618" lon="5.84806">
        <ele>468</ele>
        <time>2015-05-14T09:36:54.000Z</time>
      </trkpt>
      <trkpt lat="45.6662" lon="5.8481">
        <ele>467</ele>
        <time>2015-05-14T09:37:00.000Z</time>
      </trkpt>
      <trkpt lat="45.66622" lon="5.84813">
        <ele>467</ele>
        <time>2015-05-14T09:37:05.000Z</time>
      </trkpt>
      <trkpt lat="45.66624" lon="5.84815">
        <ele>466</ele>
        <time>2015-05-14T09:37:10.000Z</time>
      </trkpt>
      <trkpt lat="45.66627" lon="5.84816">
        <ele>466</ele>
        <time>2015-05-14T09:37:15.000Z</time>
      </trkpt>
      <trkpt lat="45.66632" lon="5.84819">
        <ele>466</ele>
        <time>2015-05-14T09:37:23.000Z</time>
      </trkpt>
      <trkpt lat="45.66634" lon="5.84821">
        <ele>465</ele>
        <time>2015-05-14T09:37:28.000Z</time>
      </trkpt>
      <trkpt lat="45.66637" lon="5.84823">
        <ele>465</ele>
        <time>2015-05-14T09:37:32.000Z</time>
      </trkpt>
      <trkpt lat="45.66639" lon="5.84825">
        <ele>464</ele>
        <time>2015-05-14T09:37:38.000Z</time>
      </trkpt>
      <trkpt lat="45.66643" lon="5.84828">
        <ele>463</ele>
        <time>2015-05-14T09:37:48.000Z</time>
      </trkpt>
      <trkpt lat="45.66647" lon="5.8483">
        <ele>462</ele>
        <time>2015-05-14T09:37:54.000Z</time>
      </trkpt>
      <trkpt lat="45.6665" lon="5.84833">
        <ele>461</ele>
        <time>2015-05-14T09:37:59.000Z</time>
      </trkpt>
      <trkpt lat="45.66654" lon="5.84837">
        <ele>451</ele>
        <time>2015-05-14T09:38:05.000Z</time>
      </trkpt>
      <trkpt lat="45.66658" lon="5.84841">
        <ele>451</ele>
        <time>2015-05-14T09:38:11.000Z</time>
      </trkpt>
      <trkpt lat="45.66663" lon="5.84845">
        <ele>451</ele>
        <time>2015-05-14T09:38:19.000Z</time>
      </trkpt>
      <trkpt lat="45.66668" lon="5.84849">
        <ele>449</ele>
        <time>2015-05-14T09:38:27.000Z</time>
      </trkpt>
      <trkpt lat="45.66673" lon="5.84853">
        <ele>448</ele>
        <time>2015-05-14T09:38:34.000Z</time>
      </trkpt>
      <trkpt lat="45.66679" lon="5.84858">
        <ele>447</ele>
        <time>2015-05-14T09:38:43.000Z</time>
      </trkpt>
      <trkpt lat="45.66682" lon="5.84861">
        <ele>446</ele>
        <time>2015-05-14T09:38:48.000Z</time>
      </trkpt>
      <trkpt lat="45.66684" lon="5.84862">
        <ele>446</ele>
        <time>2015-05-14T09:38:50.000Z</time>
      </trkpt>
      <trkpt lat="45.66688" lon="5.84865">
        <ele>445</ele>
        <time>2015-05-14T09:38:55.000Z</time>
      </trkpt>
      <trkpt lat="45.66692" lon="5.84868">
        <ele>445</ele>
        <time>2015-05-14T09:39:00.000Z</time>
      </trkpt>
      <trkpt lat="45.66693" lon="5.8487">
        <ele>445</ele>
        <time>2015-05-14T09:39:02.000Z</time>
      </trkpt>
      <trkpt lat="45.66694" lon="5.84871">
        <ele>445</ele>
        <time>2015-05-14T09:39:04.000Z</time>
      </trkpt>
      <trkpt lat="45.66696" lon="5.84873">
        <ele>444</ele>
        <time>2015-05-14T09:39:06.000Z</time>
      </trkpt>
      <trkpt lat="45.66698" lon="5.84875">
        <ele>444</ele>
        <time>2015-05-14T09:39:12.000Z</time>
      </trkpt>
      <trkpt lat="45.66703" lon="5.84876">
        <ele>444</ele>
        <time>2015-05-14T09:39:18.000Z</time>
      </trkpt>
      <trkpt lat="45.66709" lon="5.8488">
        <ele>443</ele>
        <time>2015-05-14T09:39:25.000Z</time>
      </trkpt>
      <trkpt lat="45.66712" lon="5.84881">
        <ele>443</ele>
        <time>2015-05-14T09:39:28.000Z</time>
      </trkpt>
      <trkpt lat="45.66714" lon="5.84886">
        <ele>442</ele>
        <time>2015-05-14T09:39:32.000Z</time>
      </trkpt>
      <trkpt lat="45.66715" lon="5.8489">
        <ele>442</ele>
        <time>2015-05-14T09:39:36.000Z</time>
      </trkpt>
      <trkpt lat="45.66716" lon="5.84893">
        <ele>441</ele>
        <time>2015-05-14T09:39:38.000Z</time>
      </trkpt>
      <trkpt lat="45.66719" lon="5.84899">
        <ele>440</ele>
        <time>2015-05-14T09:39:44.000Z</time>
      </trkpt>
      <trkpt lat="45.66719" lon="5.849">
        <ele>440</ele>
        <time>2015-05-14T09:39:45.000Z</time>
      </trkpt>
      <trkpt lat="45.66722" lon="5.84905">
        <ele>439</ele>
        <time>2015-05-14T09:39:50.000Z</time>
      </trkpt>
      <trkpt lat="45.66726" lon="5.84911">
        <ele>438</ele>
        <time>2015-05-14T09:39:56.000Z</time>
      </trkpt>
      <trkpt lat="45.66729" lon="5.84914">
        <ele>437</ele>
        <time>2015-05-14T09:40:01.000Z</time>
      </trkpt>
      <trkpt lat="45.6673" lon="5.84916">
        <ele>437</ele>
        <time>2015-05-14T09:40:03.000Z</time>
      </trkpt>
      <trkpt lat="45.66734" lon="5.84921">
        <ele>426</ele>
        <time>2015-05-14T09:40:09.000Z</time>
      </trkpt>
      <trkpt lat="45.66739" lon="5.84922">
        <ele>427</ele>
        <time>2015-05-14T09:40:16.000Z</time>
      </trkpt>
      <trkpt lat="45.66741" lon="5.84921">
        <ele>427</ele>
        <time>2015-05-14T09:40:19.000Z</time>
      </trkpt>
      <trkpt lat="45.66744" lon="5.84919">
        <ele>428</ele>
        <time>2015-05-14T09:40:23.000Z</time>
      </trkpt>
      <trkpt lat="45.66748" lon="5.84919">
        <ele>428</ele>
        <time>2015-05-14T09:40:28.000Z</time>
      </trkpt>
      <trkpt lat="45.66749" lon="5.84919">
        <ele>428</ele>
        <time>2015-05-14T09:40:29.000Z</time>
      </trkpt>
      <trkpt lat="45.66754" lon="5.84921">
        <ele>427</ele>
        <time>2015-05-14T09:40:34.000Z</time>
      </trkpt>
      <trkpt lat="45.6676" lon="5.84926">
        <ele>425</ele>
        <time>2015-05-14T09:40:41.000Z</time>
      </trkpt>
      <trkpt lat="45.66764" lon="5.84928">
        <ele>424</ele>
        <time>2015-05-14T09:40:45.000Z</time>
      </trkpt>
      <trkpt lat="45.66765" lon="5.8493">
        <ele>424</ele>
        <time>2015-05-14T09:40:47.000Z</time>
      </trkpt>
      <trkpt lat="45.66767" lon="5.84931">
        <ele>423</ele>
        <time>2015-05-14T09:40:49.000Z</time>
      </trkpt>
      <trkpt lat="45.66769" lon="5.84933">
        <ele>423</ele>
        <time>2015-05-14T09:40:51.000Z</time>
      </trkpt>
      <trkpt lat="45.66771" lon="5.84934">
        <ele>423</ele>
        <time>2015-05-14T09:40:53.000Z</time>
      </trkpt>
      <trkpt lat="45.66775" lon="5.84937">
        <ele>422</ele>
        <time>2015-05-14T09:40:57.000Z</time>
      </trkpt>
      <trkpt lat="45.66778" lon="5.84939">
        <ele>421</ele>
        <time>2015-05-14T09:41:00.000Z</time>
      </trkpt>
      <trkpt lat="45.66781" lon="5.84943">
        <ele>421</ele>
        <time>2015-05-14T09:41:04.000Z</time>
      </trkpt>
      <trkpt lat="45.66782" lon="5.84945">
        <ele>421</ele>
        <time>2015-05-14T09:41:05.000Z</time>
      </trkpt>
      <trkpt lat="45.66784" lon="5.84946">
        <ele>420</ele>
        <time>2015-05-14T09:41:07.000Z</time>
      </trkpt>
      <trkpt lat="45.66788" lon="5.8495">
        <ele>420</ele>
        <time>2015-05-14T09:41:11.000Z</time>
      </trkpt>
      <trkpt lat="45.6679" lon="5.84952">
        <ele>420</ele>
        <time>2015-05-14T09:41:13.000Z</time>
      </trkpt>
      <trkpt lat="45.66796" lon="5.84955">
        <ele>419</ele>
        <time>2015-05-14T09:41:19.000Z</time>
      </trkpt>
      <trkpt lat="45.66803" lon="5.84957">
        <ele>419</ele>
        <time>2015-05-14T09:41:26.000Z</time>
      </trkpt>
      <trkpt lat="45.66808" lon="5.8496">
        <ele>418</ele>
        <time>2015-05-14T09:41:31.000Z</time>
      </trkpt>
      <trkpt lat="45.66813" lon="5.84961">
        <ele>418</ele>
        <time>2015-05-14T09:41:35.000Z</time>
      </trkpt>
      <trkpt lat="45.66815" lon="5.84962">
        <ele>417</ele>
        <time>2015-05-14T09:41:37.000Z</time>
      </trkpt>
      <trkpt lat="45.66819" lon="5.84962">
        <ele>417</ele>
        <time>2015-05-14T09:41:40.000Z</time>
      </trkpt>
      <trkpt lat="45.66821" lon="5.84962">
        <ele>417</ele>
        <time>2015-05-14T09:41:43.000Z</time>
      </trkpt>
      <trkpt lat="45.66825" lon="5.84963">
        <ele>417</ele>
        <time>2015-05-14T09:41:47.000Z</time>
      </trkpt>
      <trkpt lat="45.66826" lon="5.84963">
        <ele>417</ele>
        <time>2015-05-14T09:41:48.000Z</time>
      </trkpt>
      <trkpt lat="45.66827" lon="5.84963">
        <ele>417</ele>
        <time>2015-05-14T09:41:49.000Z</time>
      </trkpt>
      <trkpt lat="45.66833" lon="5.84966">
        <ele>416</ele>
        <time>2015-05-14T09:41:54.000Z</time>
      </trkpt>
      <trkpt lat="45.66835" lon="5.84968">
        <ele>416</ele>
        <time>2015-05-14T09:41:56.000Z</time>
      </trkpt>
      <trkpt lat="45.66836" lon="5.84968">
        <ele>416</ele>
        <time>2015-05-14T09:41:57.000Z</time>
      </trkpt>
      <trkpt lat="45.66838" lon="5.84969">
        <ele>415</ele>
        <time>2015-05-14T09:42:00.000Z</time>
      </trkpt>
      <trkpt lat="45.6684" lon="5.84969">
        <ele>415</ele>
        <time>2015-05-14T09:42:01.000Z</time>
      </trkpt>
      <trkpt lat="45.66843" lon="5.8497">
        <ele>415</ele>
        <time>2015-05-14T09:42:04.000Z</time>
      </trkpt>
      <trkpt lat="45.66844" lon="5.84971">
        <ele>415</ele>
        <time>2015-05-14T09:42:05.000Z</time>
      </trkpt>
      <trkpt lat="45.66847" lon="5.84971">
        <ele>415</ele>
        <time>2015-05-14T09:42:08.000Z</time>
      </trkpt>
      <trkpt lat="45.66852" lon="5.84973">
        <ele>415</ele>
        <time>2015-05-14T09:42:13.000Z</time>
      </trkpt>
      <trkpt lat="45.66854" lon="5.84973">
        <ele>415</ele>
        <time>2015-05-14T09:42:15.000Z</time>
      </trkpt>
      <trkpt lat="45.66858" lon="5.84974">
        <ele>416</ele>
        <time>2015-05-14T09:42:19.000Z</time>
      </trkpt>
      <trkpt lat="45.66866" lon="5.84975">
        <ele>416</ele>
        <time>2015-05-14T09:42:26.000Z</time>
      </trkpt>
      <trkpt lat="45.66869" lon="5.84976">
        <ele>416</ele>
        <time>2015-05-14T09:42:28.000Z</time>
      </trkpt>
      <trkpt lat="45.66871" lon="5.84976">
        <ele>416</ele>
        <time>2015-05-14T09:42:31.000Z</time>
      </trkpt>
      <trkpt lat="45.66879" lon="5.84978">
        <ele>416</ele>
        <time>2015-05-14T09:42:37.000Z</time>
      </trkpt>
      <trkpt lat="45.66884" lon="5.84979">
        <ele>416</ele>
        <time>2015-05-14T09:42:43.000Z</time>
      </trkpt>
      <trkpt lat="45.66888" lon="5.84981">
        <ele>416</ele>
        <time>2015-05-14T09:42:47.000Z</time>
      </trkpt>
      <trkpt lat="45.66889" lon="5.84982">
        <ele>415</ele>
        <time>2015-05-14T09:42:49.000Z</time>
      </trkpt>
      <trkpt lat="45.6689" lon="5.84985">
        <ele>415</ele>
        <time>2015-05-14T09:42:51.000Z</time>
      </trkpt>
      <trkpt lat="45.66892" lon="5.84992">
        <ele>414</ele>
        <time>2015-05-14T09:42:57.000Z</time>
      </trkpt>
      <trkpt lat="45.66892" lon="5.84996">
        <ele>413</ele>
        <time>2015-05-14T09:43:04.000Z</time>
      </trkpt>
      <trkpt lat="45.66893" lon="5.85004">
        <ele>400</ele>
        <time>2015-05-14T09:43:12.000Z</time>
      </trkpt>
      <trkpt lat="45.66893" lon="5.85007">
        <ele>400</ele>
        <time>2015-05-14T09:43:17.000Z</time>
      </trkpt>
      <trkpt lat="45.66893" lon="5.85012">
        <ele>400</ele>
        <time>2015-05-14T09:43:24.000Z</time>
      </trkpt>
      <trkpt lat="45.66893" lon="5.85019">
        <ele>399</ele>
        <time>2015-05-14T09:43:32.000Z</time>
      </trkpt>
      <trkpt lat="45.66892" lon="5.85026">
        <ele>398</ele>
        <time>2015-05-14T09:43:38.000Z</time>
      </trkpt>
      <trkpt lat="45.66894" lon="5.85041">
        <ele>396</ele>
        <time>2015-05-14T09:43:51.000Z</time>
      </trkpt>
      <trkpt lat="45.66894" lon="5.85043">
        <ele>396</ele>
        <time>2015-05-14T09:43:53.000Z</time>
      </trkpt>
      <trkpt lat="45.66897" lon="5.85047">
        <ele>395</ele>
        <time>2015-05-14T09:43:57.000Z</time>
      </trkpt>
      <trkpt lat="45.66899" lon="5.85052">
        <ele>395</ele>
        <time>2015-05-14T09:44:01.000Z</time>
      </trkpt>
      <trkpt lat="45.669" lon="5.85056">
        <ele>394</ele>
        <time>2015-05-14T09:44:04.000Z</time>
      </trkpt>
      <trkpt lat="45.66901" lon="5.85058">
        <ele>394</ele>
        <time>2015-05-14T09:44:06.000Z</time>
      </trkpt>
      <trkpt lat="45.66904" lon="5.85063">
        <ele>393</ele>
        <time>2015-05-14T09:44:10.000Z</time>
      </trkpt>
      <trkpt lat="45.66906" lon="5.85072">
        <ele>392</ele>
        <time>2015-05-14T09:44:17.000Z</time>
      </trkpt>
      <trkpt lat="45.66907" lon="5.85075">
        <ele>391</ele>
        <time>2015-05-14T09:44:20.000Z</time>
      </trkpt>
      <trkpt lat="45.66909" lon="5.8508">
        <ele>391</ele>
        <time>2015-05-14T09:44:24.000Z</time>
      </trkpt>
      <trkpt lat="45.66911" lon="5.85086">
        <ele>387</ele>
        <time>2015-05-14T09:44:29.000Z</time>
      </trkpt>
      <trkpt lat="45.66913" lon="5.85093">
        <ele>386</ele>
        <time>2015-05-14T09:44:35.000Z</time>
      </trkpt>
      <trkpt lat="45.66912" lon="5.85094">
        <ele>386</ele>
        <time>2015-05-14T09:44:36.000Z</time>
      </trkpt>
      <trkpt lat="45.66913" lon="5.85095">
        <ele>386</ele>
        <time>2015-05-14T09:44:37.000Z</time>
      </trkpt>
      <trkpt lat="45.66913" lon="5.85098">
        <ele>385</ele>
        <time>2015-05-14T09:44:40.000Z</time>
      </trkpt>
      <trkpt lat="45.66913" lon="5.851">
        <ele>385</ele>
        <time>2015-05-14T09:44:43.000Z</time>
      </trkpt>
      <trkpt lat="45.66914" lon="5.85104">
        <ele>384</ele>
        <time>2015-05-14T09:44:47.000Z</time>
      </trkpt>
      <trkpt lat="45.66916" lon="5.85106">
        <ele>384</ele>
        <time>2015-05-14T09:44:55.000Z</time>
      </trkpt>
      <trkpt lat="45.66918" lon="5.85111">
        <ele>384</ele>
        <time>2015-05-14T09:45:04.000Z</time>
      </trkpt>
      <trkpt lat="45.66922" lon="5.85116">
        <ele>384</ele>
        <time>2015-05-14T09:45:11.000Z</time>
      </trkpt>
      <trkpt lat="45.66927" lon="5.85119">
        <ele>383</ele>
        <time>2015-05-14T09:45:17.000Z</time>
      </trkpt>
      <trkpt lat="45.66933" lon="5.85122">
        <ele>383</ele>
        <time>2015-05-14T09:45:24.000Z</time>
      </trkpt>
      <trkpt lat="45.6694" lon="5.85124">
        <ele>383</ele>
        <time>2015-05-14T09:45:32.000Z</time>
      </trkpt>
      <trkpt lat="45.66945" lon="5.85128">
        <ele>382</ele>
        <time>2015-05-14T09:45:39.000Z</time>
      </trkpt>
      <trkpt lat="45.66946" lon="5.85128">
        <ele>382</ele>
        <time>2015-05-14T09:45:41.000Z</time>
      </trkpt>
      <trkpt lat="45.6695" lon="5.85131">
        <ele>382</ele>
        <time>2015-05-14T09:45:45.000Z</time>
      </trkpt>
      <trkpt lat="45.66952" lon="5.85131">
        <ele>382</ele>
        <time>2015-05-14T09:45:47.000Z</time>
      </trkpt>
      <trkpt lat="45.66954" lon="5.85133">
        <ele>382</ele>
        <time>2015-05-14T09:45:50.000Z</time>
      </trkpt>
      <trkpt lat="45.66956" lon="5.85134">
        <ele>382</ele>
        <time>2015-05-14T09:45:52.000Z</time>
      </trkpt>
      <trkpt lat="45.66962" lon="5.85138">
        <ele>382</ele>
        <time>2015-05-14T09:45:58.000Z</time>
      </trkpt>
      <trkpt lat="45.66967" lon="5.85141">
        <ele>381</ele>
        <time>2015-05-14T09:46:03.000Z</time>
      </trkpt>
      <trkpt lat="45.66969" lon="5.85142">
        <ele>381</ele>
        <time>2015-05-14T09:46:05.000Z</time>
      </trkpt>
      <trkpt lat="45.66974" lon="5.85144">
        <ele>381</ele>
        <time>2015-05-14T09:46:10.000Z</time>
      </trkpt>
      <trkpt lat="45.66978" lon="5.85145">
        <ele>381</ele>
        <time>2015-05-14T09:46:14.000Z</time>
      </trkpt>
      <trkpt lat="45.66979" lon="5.85145">
        <ele>381</ele>
        <time>2015-05-14T09:46:16.000Z</time>
      </trkpt>
      <trkpt lat="45.6698" lon="5.85145">
        <ele>381</ele>
        <time>2015-05-14T09:46:17.000Z</time>
      </trkpt>
      <trkpt lat="45.66983" lon="5.85148">
        <ele>380</ele>
        <time>2015-05-14T09:46:21.000Z</time>
      </trkpt>
      <trkpt lat="45.66984" lon="5.85149">
        <ele>380</ele>
        <time>2015-05-14T09:46:22.000Z</time>
      </trkpt>
      <trkpt lat="45.66987" lon="5.85154">
        <ele>379</ele>
        <time>2015-05-14T09:46:26.000Z</time>
      </trkpt>
      <trkpt lat="45.66988" lon="5.85155">
        <ele>379</ele>
        <time>2015-05-14T09:46:27.000Z</time>
      </trkpt>
      <trkpt lat="45.66989" lon="5.85156">
        <ele>379</ele>
        <time>2015-05-14T09:46:28.000Z</time>
      </trkpt>
      <trkpt lat="45.66993" lon="5.85161">
        <ele>378</ele>
        <time>2015-05-14T09:46:32.000Z</time>
      </trkpt>
      <trkpt lat="45.66998" lon="5.8517">
        <ele>375</ele>
        <time>2015-05-14T09:46:39.000Z</time>
      </trkpt>
      <trkpt lat="45.67" lon="5.85177">
        <ele>373</ele>
        <time>2015-05-14T09:46:44.000Z</time>
      </trkpt>
      <trkpt lat="45.67002" lon="5.85179">
        <ele>372</ele>
        <time>2015-05-14T09:46:46.000Z</time>
      </trkpt>
      <trkpt lat="45.67005" lon="5.85182">
        <ele>371</ele>
        <time>2015-05-14T09:46:49.000Z</time>
      </trkpt>
      <trkpt lat="45.67008" lon="5.85184">
        <ele>371</ele>
        <time>2015-05-14T09:46:51.000Z</time>
      </trkpt>
      <trkpt lat="45.67013" lon="5.85187">
        <ele>370</ele>
        <time>2015-05-14T09:46:56.000Z</time>
      </trkpt>
      <trkpt lat="45.67021" lon="5.85189">
        <ele>369</ele>
        <time>2015-05-14T09:47:04.000Z</time>
      </trkpt>
      <trkpt lat="45.6703" lon="5.85189">
        <ele>368</ele>
        <time>2015-05-14T09:47:13.000Z</time>
      </trkpt>
      <trkpt lat="45.67039" lon="5.85185">
        <ele>368</ele>
        <time>2015-05-14T09:47:23.000Z</time>
      </trkpt>
      <trkpt lat="45.67048" lon="5.85178">
        <ele>367</ele>
        <time>2015-05-14T09:47:32.000Z</time>
      </trkpt>
      <trkpt lat="45.67058" lon="5.85172">
        <ele>367</ele>
        <time>2015-05-14T09:47:42.000Z</time>
      </trkpt>
      <trkpt lat="45.67063" lon="5.85172">
        <ele>366</ele>
        <time>2015-05-14T09:47:46.000Z</time>
      </trkpt>
      <trkpt lat="45.67066" lon="5.85172">
        <ele>366</ele>
        <time>2015-05-14T09:47:48.000Z</time>
      </trkpt>
      <trkpt lat="45.67071" lon="5.85173">
        <ele>366</ele>
        <time>2015-05-14T09:47:53.000Z</time>
      </trkpt>
      <trkpt lat="45.67082" lon="5.85176">
        <ele>365</ele>
        <time>2015-05-14T09:48:01.000Z</time>
      </trkpt>
      <trkpt lat="45.67094" lon="5.85179">
        <ele>363</ele>
        <time>2015-05-14T09:48:10.000Z</time>
      </trkpt>
      <trkpt lat="45.67095" lon="5.85178">
        <ele>363</ele>
        <time>2015-05-14T09:48:11.000Z</time>
      </trkpt>
      <trkpt lat="45.67103" lon="5.85176">
        <ele>363</ele>
        <time>2015-05-14T09:48:17.000Z</time>
      </trkpt>
      <trkpt lat="45.67106" lon="5.85175">
        <ele>363</ele>
        <time>2015-05-14T09:48:19.000Z</time>
      </trkpt>
      <trkpt lat="45.67116" lon="5.85171">
        <ele>362</ele>
        <time>2015-05-14T09:48:27.000Z</time>
      </trkpt>
      <trkpt lat="45.67123" lon="5.85168">
        <ele>362</ele>
        <time>2015-05-14T09:48:34.000Z</time>
      </trkpt>
      <trkpt lat="45.67126" lon="5.85168">
        <ele>362</ele>
        <time>2015-05-14T09:48:37.000Z</time>
      </trkpt>
      <trkpt lat="45.67129" lon="5.85166">
        <ele>371</ele>
        <time>2015-05-14T09:48:40.000Z</time>
      </trkpt>
      <trkpt lat="45.67137" lon="5.85163">
        <ele>371</ele>
        <time>2015-05-14T09:48:48.000Z</time>
      </trkpt>
      <trkpt lat="45.67144" lon="5.85163">
        <ele>370</ele>
        <time>2015-05-14T09:48:54.000Z</time>
      </trkpt>
      <trkpt lat="45.6715" lon="5.85163">
        <ele>369</ele>
        <time>2015-05-14T09:49:00.000Z</time>
      </trkpt>
      <trkpt lat="45.67153" lon="5.85163">
        <ele>368</ele>
        <time>2015-05-14T09:49:03.000Z</time>
      </trkpt>
      <trkpt lat="45.67154" lon="5.85164">
        <ele>368</ele>
        <time>2015-05-14T09:49:04.000Z</time>
      </trkpt>
      <trkpt lat="45.6716" lon="5.85164">
        <ele>366</ele>
        <time>2015-05-14T09:49:09.000Z</time>
      </trkpt>
      <trkpt lat="45.67163" lon="5.85165">
        <ele>365</ele>
        <time>2015-05-14T09:49:11.000Z</time>
      </trkpt>
      <trkpt lat="45.67164" lon="5.85164">
        <ele>365</ele>
        <time>2015-05-14T09:49:12.000Z</time>
      </trkpt>
      <trkpt lat="45.67168" lon="5.85164">
        <ele>365</ele>
        <time>2015-05-14T09:49:15.000Z</time>
      </trkpt>
      <trkpt lat="45.67174" lon="5.85164">
        <ele>368</ele>
        <time>2015-05-14T09:49:21.000Z</time>
      </trkpt>
      <trkpt lat="45.67182" lon="5.85165">
        <ele>371</ele>
        <time>2015-05-14T09:49:26.000Z</time>
      </trkpt>
      <trkpt lat="45.67189" lon="5.85166">
        <ele>373</ele>
        <time>2015-05-14T09:49:32.000Z</time>
      </trkpt>
      <trkpt lat="45.6719" lon="5.85166">
        <ele>373</ele>
        <time>2015-05-14T09:49:33.000Z</time>
      </trkpt>
      <trkpt lat="45.67195" lon="5.85166">
        <ele>374</ele>
        <time>2015-05-14T09:49:36.000Z</time>
      </trkpt>
      <trkpt lat="45.67198" lon="5.85167">
        <ele>362</ele>
        <time>2015-05-14T09:49:38.000Z</time>
      </trkpt>
      <trkpt lat="45.67206" lon="5.85168">
        <ele>362</ele>
        <time>2015-05-14T09:49:44.000Z</time>
      </trkpt>
      <trkpt lat="45.67209" lon="5.8517">
        <ele>362</ele>
        <time>2015-05-14T09:49:47.000Z</time>
      </trkpt>
      <trkpt lat="45.67211" lon="5.8517">
        <ele>362</ele>
        <time>2015-05-14T09:49:51.000Z</time>
      </trkpt>
      <trkpt lat="45.67217" lon="5.85171">
        <ele>363</ele>
        <time>2015-05-14T09:49:59.000Z</time>
      </trkpt>
      <trkpt lat="45.67226" lon="5.85173">
        <ele>364</ele>
        <time>2015-05-14T09:50:06.000Z</time>
      </trkpt>
      <trkpt lat="45.67233" lon="5.85176">
        <ele>364</ele>
        <time>2015-05-14T09:50:12.000Z</time>
      </trkpt>
      <trkpt lat="45.67234" lon="5.85177">
        <ele>364</ele>
        <time>2015-05-14T09:50:13.000Z</time>
      </trkpt>
      <trkpt lat="45.67236" lon="5.85178">
        <ele>364</ele>
        <time>2015-05-14T09:50:15.000Z</time>
      </trkpt>
      <trkpt lat="45.67239" lon="5.85181">
        <ele>364</ele>
        <time>2015-05-14T09:50:18.000Z</time>
      </trkpt>
      <trkpt lat="45.6724" lon="5.85181">
        <ele>364</ele>
        <time>2015-05-14T09:50:19.000Z</time>
      </trkpt>
      <trkpt lat="45.67246" lon="5.85185">
        <ele>364</ele>
        <time>2015-05-14T09:50:25.000Z</time>
      </trkpt>
      <trkpt lat="45.6725" lon="5.85186">
        <ele>364</ele>
        <time>2015-05-14T09:50:32.000Z</time>
      </trkpt>
      <trkpt lat="45.67255" lon="5.85188">
        <ele>365</ele>
        <time>2015-05-14T09:50:39.000Z</time>
      </trkpt>
      <trkpt lat="45.67262" lon="5.85189">
        <ele>364</ele>
        <time>2015-05-14T09:50:45.000Z</time>
      </trkpt>
      <trkpt lat="45.67263" lon="5.8519">
        <ele>364</ele>
        <time>2015-05-14T09:50:46.000Z</time>
      </trkpt>
      <trkpt lat="45.67268" lon="5.85191">
        <ele>364</ele>
        <time>2015-05-14T09:50:50.000Z</time>
      </trkpt>
      <trkpt lat="45.67269" lon="5.85191">
        <ele>364</ele>
        <time>2015-05-14T09:50:51.000Z</time>
      </trkpt>
      <trkpt lat="45.67276" lon="5.85194">
        <ele>364</ele>
        <time>2015-05-14T09:50:56.000Z</time>
      </trkpt>
      <trkpt lat="45.67277" lon="5.85197">
        <ele>363</ele>
        <time>2015-05-14T09:50:58.000Z</time>
      </trkpt>
      <trkpt lat="45.67283" lon="5.85201">
        <ele>363</ele>
        <time>2015-05-14T09:51:02.000Z</time>
      </trkpt>
      <trkpt lat="45.67285" lon="5.85203">
        <ele>363</ele>
        <time>2015-05-14T09:51:04.000Z</time>
      </trkpt>
      <trkpt lat="45.67288" lon="5.85206">
        <ele>363</ele>
        <time>2015-05-14T09:51:08.000Z</time>
      </trkpt>
      <trkpt lat="45.67294" lon="5.85208">
        <ele>362</ele>
        <time>2015-05-14T09:51:12.000Z</time>
      </trkpt>
      <trkpt lat="45.67295" lon="5.85208">
        <ele>362</ele>
        <time>2015-05-14T09:51:13.000Z</time>
      </trkpt>
      <trkpt lat="45.67298" lon="5.85209">
        <ele>362</ele>
        <time>2015-05-14T09:51:16.000Z</time>
      </trkpt>
      <trkpt lat="45.67299" lon="5.85209">
        <ele>362</ele>
        <time>2015-05-14T09:51:17.000Z</time>
      </trkpt>
      <trkpt lat="45.67303" lon="5.85211">
        <ele>362</ele>
        <time>2015-05-14T09:51:20.000Z</time>
      </trkpt>
      <trkpt lat="45.67305" lon="5.85211">
        <ele>362</ele>
        <time>2015-05-14T09:51:21.000Z</time>
      </trkpt>
      <trkpt lat="45.67308" lon="5.85211">
        <ele>362</ele>
        <time>2015-05-14T09:51:23.000Z</time>
      </trkpt>
      <trkpt lat="45.67314" lon="5.85211">
        <ele>362</ele>
        <time>2015-05-14T09:51:28.000Z</time>
      </trkpt>
      <trkpt lat="45.6732" lon="5.85213">
        <ele>362</ele>
        <time>2015-05-14T09:51:33.000Z</time>
      </trkpt>
      <trkpt lat="45.67321" lon="5.85213">
        <ele>362</ele>
        <time>2015-05-14T09:51:34.000Z</time>
      </trkpt>
      <trkpt lat="45.67322" lon="5.85214">
        <ele>362</ele>
        <time>2015-05-14T09:51:35.000Z</time>
      </trkpt>
      <trkpt lat="45.67327" lon="5.85214">
        <ele>362</ele>
        <time>2015-05-14T09:51:39.000Z</time>
      </trkpt>
      <trkpt lat="45.67333" lon="5.85215">
        <ele>362</ele>
        <time>2015-05-14T09:51:43.000Z</time>
      </trkpt>
      <trkpt lat="45.67341" lon="5.85216">
        <ele>363</ele>
        <time>2015-05-14T09:51:50.000Z</time>
      </trkpt>
      <trkpt lat="45.67347" lon="5.85217">
        <ele>363</ele>
        <time>2015-05-14T09:51:55.000Z</time>
      </trkpt>
      <trkpt lat="45.67353" lon="5.85218">
        <ele>363</ele>
        <time>2015-05-14T09:52:01.000Z</time>
      </trkpt>
      <trkpt lat="45.67356" lon="5.85218">
        <ele>363</ele>
        <time>2015-05-14T09:52:03.000Z</time>
      </trkpt>
      <trkpt lat="45.67361" lon="5.85218">
        <ele>363</ele>
        <time>2015-05-14T09:52:07.000Z</time>
      </trkpt>
      <trkpt lat="45.67368" lon="5.85218">
        <ele>363</ele>
        <time>2015-05-14T09:52:12.000Z</time>
      </trkpt>
      <trkpt lat="45.67377" lon="5.8522">
        <ele>363</ele>
        <time>2015-05-14T09:52:18.000Z</time>
      </trkpt>
      <trkpt lat="45.67378" lon="5.85221">
        <ele>363</ele>
        <time>2015-05-14T09:52:19.000Z</time>
      </trkpt>
      <trkpt lat="45.67381" lon="5.85223">
        <ele>363</ele>
        <time>2015-05-14T09:52:22.000Z</time>
      </trkpt>
      <trkpt lat="45.67385" lon="5.85224">
        <ele>362</ele>
        <time>2015-05-14T09:52:24.000Z</time>
      </trkpt>
      <trkpt lat="45.67392" lon="5.85227">
        <ele>362</ele>
        <time>2015-05-14T09:52:29.000Z</time>
      </trkpt>
      <trkpt lat="45.67397" lon="5.85229">
        <ele>361</ele>
        <time>2015-05-14T09:52:32.000Z</time>
      </trkpt>
      <trkpt lat="45.67404" lon="5.85233">
        <ele>360</ele>
        <time>2015-05-14T09:52:38.000Z</time>
      </trkpt>
      <trkpt lat="45.67416" lon="5.85235">
        <ele>358</ele>
        <time>2015-05-14T09:52:46.000Z</time>
      </trkpt>
      <trkpt lat="45.67417" lon="5.85235">
        <ele>358</ele>
        <time>2015-05-14T09:52:47.000Z</time>
      </trkpt>
      <trkpt lat="45.67424" lon="5.85234">
        <ele>358</ele>
        <time>2015-05-14T09:52:52.000Z</time>
      </trkpt>
      <trkpt lat="45.67434" lon="5.85235">
        <ele>359</ele>
        <time>2015-05-14T09:53:00.000Z</time>
      </trkpt>
      <trkpt lat="45.67442" lon="5.85238">
        <ele>359</ele>
        <time>2015-05-14T09:53:07.000Z</time>
      </trkpt>
      <trkpt lat="45.67452" lon="5.85243">
        <ele>359</ele>
        <time>2015-05-14T09:53:15.000Z</time>
      </trkpt>
      <trkpt lat="45.67462" lon="5.85248">
        <ele>358</ele>
        <time>2015-05-14T09:53:23.000Z</time>
      </trkpt>
      <trkpt lat="45.67466" lon="5.8525">
        <ele>358</ele>
        <time>2015-05-14T09:53:26.000Z</time>
      </trkpt>
      <trkpt lat="45.6747" lon="5.85252">
        <ele>347</ele>
        <time>2015-05-14T09:53:29.000Z</time>
      </trkpt>
      <trkpt lat="45.67478" lon="5.85257">
        <ele>347</ele>
        <time>2015-05-14T09:53:35.000Z</time>
      </trkpt>
      <trkpt lat="45.67481" lon="5.85259">
        <ele>347</ele>
        <time>2015-05-14T09:53:38.000Z</time>
      </trkpt>
      <trkpt lat="45.67485" lon="5.85262">
        <ele>347</ele>
        <time>2015-05-14T09:53:41.000Z</time>
      </trkpt>
      <trkpt lat="45.67487" lon="5.85264">
        <ele>347</ele>
        <time>2015-05-14T09:53:43.000Z</time>
      </trkpt>
      <trkpt lat="45.67489" lon="5.85266">
        <ele>347</ele>
        <time>2015-05-14T09:53:45.000Z</time>
      </trkpt>
      <trkpt lat="45.67491" lon="5.85269">
        <ele>346</ele>
        <time>2015-05-14T09:53:47.000Z</time>
      </trkpt>
      <trkpt lat="45.67494" lon="5.85275">
        <ele>346</ele>
        <time>2015-05-14T09:53:51.000Z</time>
      </trkpt>
      <trkpt lat="45.67496" lon="5.85277">
        <ele>345</ele>
        <time>2015-05-14T09:53:53.000Z</time>
      </trkpt>
      <trkpt lat="45.675" lon="5.85281">
        <ele>343</ele>
        <time>2015-05-14T09:53:57.000Z</time>
      </trkpt>
      <trkpt lat="45.6751" lon="5.85288">
        <ele>342</ele>
        <time>2015-05-14T09:54:05.000Z</time>
      </trkpt>
      <trkpt lat="45.67518" lon="5.85288">
        <ele>342</ele>
        <time>2015-05-14T09:54:12.000Z</time>
      </trkpt>
      <trkpt lat="45.67526" lon="5.85287">
        <ele>342</ele>
        <time>2015-05-14T09:54:19.000Z</time>
      </trkpt>
      <trkpt lat="45.67539" lon="5.85281">
        <ele>342</ele>
        <time>2015-05-14T09:54:29.000Z</time>
      </trkpt>
      <trkpt lat="45.67549" lon="5.85271">
        <ele>342</ele>
        <time>2015-05-14T09:54:38.000Z</time>
      </trkpt>
      <trkpt lat="45.67561" lon="5.85261">
        <ele>343</ele>
        <time>2015-05-14T09:54:49.000Z</time>
      </trkpt>
      <trkpt lat="45.67571" lon="5.85252">
        <ele>343</ele>
        <time>2015-05-14T09:54:58.000Z</time>
      </trkpt>
      <trkpt lat="45.6758" lon="5.85247">
        <ele>346</ele>
        <time>2015-05-14T09:55:07.000Z</time>
      </trkpt>
      <trkpt lat="45.6759" lon="5.85241">
        <ele>345</ele>
        <time>2015-05-14T09:55:16.000Z</time>
      </trkpt>
      <trkpt lat="45.67596" lon="5.8524">
        <ele>346</ele>
        <time>2015-05-14T09:55:23.000Z</time>
      </trkpt>
      <trkpt lat="45.676" lon="5.8524">
        <ele>346</ele>
        <time>2015-05-14T09:55:28.000Z</time>
      </trkpt>
      <trkpt lat="45.67603" lon="5.85235">
        <ele>346</ele>
        <time>2015-05-14T09:55:55.000Z</time>
      </trkpt>
      <trkpt lat="45.67607" lon="5.85233">
        <ele>346</ele>
        <time>2015-05-14T09:56:00.000Z</time>
      </trkpt>
      <trkpt lat="45.6761" lon="5.85231">
        <ele>346</ele>
        <time>2015-05-14T09:56:02.000Z</time>
      </trkpt>
      <trkpt lat="45.6762" lon="5.85225">
        <ele>346</ele>
        <time>2015-05-14T09:56:11.000Z</time>
      </trkpt>
      <trkpt lat="45.67628" lon="5.8522">
        <ele>346</ele>
        <time>2015-05-14T09:56:19.000Z</time>
      </trkpt>
      <trkpt lat="45.67635" lon="5.85215">
        <ele>346</ele>
        <time>2015-05-14T09:56:25.000Z</time>
      </trkpt>
      <trkpt lat="45.67642" lon="5.85208">
        <ele>347</ele>
        <time>2015-05-14T09:56:32.000Z</time>
      </trkpt>
      <trkpt lat="45.6765" lon="5.85202">
        <ele>347</ele>
        <time>2015-05-14T09:56:39.000Z</time>
      </trkpt>
      <trkpt lat="45.67656" lon="5.85198">
        <ele>347</ele>
        <time>2015-05-14T09:56:46.000Z</time>
      </trkpt>
      <trkpt lat="45.67658" lon="5.85195">
        <ele>347</ele>
        <time>2015-05-14T09:56:51.000Z</time>
      </trkpt>
      <trkpt lat="45.67661" lon="5.85192">
        <ele>347</ele>
        <time>2015-05-14T09:56:57.000Z</time>
      </trkpt>
      <trkpt lat="45.67663" lon="5.85188">
        <ele>347</ele>
        <time>2015-05-14T09:57:03.000Z</time>
      </trkpt>
      <trkpt lat="45.6767" lon="5.85187">
        <ele>343</ele>
        <time>2015-05-14T09:57:09.000Z</time>
      </trkpt>
      <trkpt lat="45.67678" lon="5.85188">
        <ele>343</ele>
        <time>2015-05-14T09:57:15.000Z</time>
      </trkpt>
      <trkpt lat="45.67689" lon="5.85181">
        <ele>343</ele>
        <time>2015-05-14T09:57:24.000Z</time>
      </trkpt>
      <trkpt lat="45.67697" lon="5.85178">
        <ele>342</ele>
        <time>2015-05-14T09:57:32.000Z</time>
      </trkpt>
      <trkpt lat="45.67698" lon="5.85177">
        <ele>342</ele>
        <time>2015-05-14T09:57:33.000Z</time>
      </trkpt>
      <trkpt lat="45.67702" lon="5.85173">
        <ele>342</ele>
        <time>2015-05-14T09:57:37.000Z</time>
      </trkpt>
      <trkpt lat="45.67705" lon="5.8517">
        <ele>341</ele>
        <time>2015-05-14T09:57:40.000Z</time>
      </trkpt>
      <trkpt lat="45.67711" lon="5.85162">
        <ele>347</ele>
        <time>2015-05-14T09:57:47.000Z</time>
      </trkpt>
      <trkpt lat="45.6772" lon="5.85153">
        <ele>346</ele>
        <time>2015-05-14T09:57:56.000Z</time>
      </trkpt>
      <trkpt lat="45.6773" lon="5.85147">
        <ele>346</ele>
        <time>2015-05-14T09:58:05.000Z</time>
      </trkpt>
      <trkpt lat="45.67738" lon="5.85144">
        <ele>346</ele>
        <time>2015-05-14T09:58:13.000Z</time>
      </trkpt>
      <trkpt lat="45.67743" lon="5.85141">
        <ele>346</ele>
        <time>2015-05-14T09:58:18.000Z</time>
      </trkpt>
      <trkpt lat="45.67744" lon="5.8514">
        <ele>346</ele>
        <time>2015-05-14T09:58:19.000Z</time>
      </trkpt>
      <trkpt lat="45.67751" lon="5.85135">
        <ele>343</ele>
        <time>2015-05-14T09:58:26.000Z</time>
      </trkpt>
      <trkpt lat="45.67753" lon="5.85134">
        <ele>343</ele>
        <time>2015-05-14T09:58:27.000Z</time>
      </trkpt>
      <trkpt lat="45.6776" lon="5.85132">
        <ele>344</ele>
        <time>2015-05-14T09:58:33.000Z</time>
      </trkpt>
      <trkpt lat="45.67768" lon="5.85129">
        <ele>344</ele>
        <time>2015-05-14T09:58:40.000Z</time>
      </trkpt>
      <trkpt lat="45.67775" lon="5.85125">
        <ele>344</ele>
        <time>2015-05-14T09:58:46.000Z</time>
      </trkpt>
      <trkpt lat="45.67776" lon="5.85125">
        <ele>344</ele>
        <time>2015-05-14T09:58:47.000Z</time>
      </trkpt>
      <trkpt lat="45.6778" lon="5.85124">
        <ele>344</ele>
        <time>2015-05-14T09:58:51.000Z</time>
      </trkpt>
      <trkpt lat="45.67782" lon="5.85124">
        <ele>344</ele>
        <time>2015-05-14T09:58:52.000Z</time>
      </trkpt>
      <trkpt lat="45.6779" lon="5.85127">
        <ele>344</ele>
        <time>2015-05-14T09:58:58.000Z</time>
      </trkpt>
      <trkpt lat="45.6779" lon="5.85128">
        <ele>343</ele>
        <time>2015-05-14T09:58:59.000Z</time>
      </trkpt>
      <trkpt lat="45.67792" lon="5.85131">
        <ele>343</ele>
        <time>2015-05-14T09:59:04.000Z</time>
      </trkpt>
      <trkpt lat="45.67793" lon="5.85134">
        <ele>343</ele>
        <time>2015-05-14T09:59:08.000Z</time>
      </trkpt>
      <trkpt lat="45.67794" lon="5.85134">
        <ele>343</ele>
        <time>2015-05-14T09:59:17.000Z</time>
      </trkpt>
      <trkpt lat="45.678" lon="5.85135">
        <ele>343</ele>
        <time>2015-05-14T09:59:30.000Z</time>
      </trkpt>
      <trkpt lat="45.67801" lon="5.85134">
        <ele>343</ele>
        <time>2015-05-14T09:59:31.000Z</time>
      </trkpt>
      <trkpt lat="45.67805" lon="5.85131">
        <ele>343</ele>
        <time>2015-05-14T09:59:36.000Z</time>
      </trkpt>
      <trkpt lat="45.67806" lon="5.85131">
        <ele>343</ele>
        <time>2015-05-14T09:59:37.000Z</time>
      </trkpt>
      <trkpt lat="45.67813" lon="5.85128">
        <ele>343</ele>
        <time>2015-05-14T09:59:44.000Z</time>
      </trkpt>
      <trkpt lat="45.67822" lon="5.85124">
        <ele>343</ele>
        <time>2015-05-14T09:59:52.000Z</time>
      </trkpt>
      <trkpt lat="45.67829" lon="5.8512">
        <ele>344</ele>
        <time>2015-05-14T09:59:59.000Z</time>
      </trkpt>
      <trkpt lat="45.67837" lon="5.85117">
        <ele>344</ele>
        <time>2015-05-14T10:00:06.000Z</time>
      </trkpt>
      <trkpt lat="45.67848" lon="5.85114">
        <ele>345</ele>
        <time>2015-05-14T10:00:16.000Z</time>
      </trkpt>
      <trkpt lat="45.67859" lon="5.85111">
        <ele>345</ele>
        <time>2015-05-14T10:00:25.000Z</time>
      </trkpt>
      <trkpt lat="45.67868" lon="5.85111">
        <ele>345</ele>
        <time>2015-05-14T10:00:33.000Z</time>
      </trkpt>
      <trkpt lat="45.67876" lon="5.85112">
        <ele>345</ele>
        <time>2015-05-14T10:00:40.000Z</time>
      </trkpt>
      <trkpt lat="45.67885" lon="5.85117">
        <ele>345</ele>
        <time>2015-05-14T10:00:48.000Z</time>
      </trkpt>
      <trkpt lat="45.67894" lon="5.85124">
        <ele>344</ele>
        <time>2015-05-14T10:00:56.000Z</time>
      </trkpt>
      <trkpt lat="45.67902" lon="5.85132">
        <ele>344</ele>
        <time>2015-05-14T10:01:04.000Z</time>
      </trkpt>
      <trkpt lat="45.67903" lon="5.85134">
        <ele>343</ele>
        <time>2015-05-14T10:01:06.000Z</time>
      </trkpt>
      <trkpt lat="45.67907" lon="5.85138">
        <ele>343</ele>
        <time>2015-05-14T10:01:10.000Z</time>
      </trkpt>
      <trkpt lat="45.67911" lon="5.85142">
        <ele>342</ele>
        <time>2015-05-14T10:01:15.000Z</time>
      </trkpt>
      <trkpt lat="45.67912" lon="5.85144">
        <ele>342</ele>
        <time>2015-05-14T10:01:17.000Z</time>
      </trkpt>
      <trkpt lat="45.67918" lon="5.85149">
        <ele>345</ele>
        <time>2015-05-14T10:01:23.000Z</time>
      </trkpt>
      <trkpt lat="45.67925" lon="5.85157">
        <ele>344</ele>
        <time>2015-05-14T10:01:31.000Z</time>
      </trkpt>
      <trkpt lat="45.67935" lon="5.85164">
        <ele>345</ele>
        <time>2015-05-14T10:01:41.000Z</time>
      </trkpt>
      <trkpt lat="45.67946" lon="5.8517">
        <ele>340</ele>
        <time>2015-05-14T10:01:51.000Z</time>
      </trkpt>
      <trkpt lat="45.67957" lon="5.85176">
        <ele>340</ele>
        <time>2015-05-14T10:02:00.000Z</time>
      </trkpt>
      <trkpt lat="45.67968" lon="5.85182">
        <ele>341</ele>
        <time>2015-05-14T10:02:10.000Z</time>
      </trkpt>
      <trkpt lat="45.6798" lon="5.85187">
        <ele>342</ele>
        <time>2015-05-14T10:02:21.000Z</time>
      </trkpt>
      <trkpt lat="45.67992" lon="5.85197">
        <ele>341</ele>
        <time>2015-05-14T10:02:33.000Z</time>
      </trkpt>
      <trkpt lat="45.67998" lon="5.85207">
        <ele>340</ele>
        <time>2015-05-14T10:02:41.000Z</time>
      </trkpt>
      <trkpt lat="45.68" lon="5.85209">
        <ele>342</ele>
        <time>2015-05-14T10:02:46.000Z</time>
      </trkpt>
      <trkpt lat="45.68006" lon="5.8522">
        <ele>341</ele>
        <time>2015-05-14T10:02:54.000Z</time>
      </trkpt>
      <trkpt lat="45.68013" lon="5.85237">
        <ele>340</ele>
        <time>2015-05-14T10:03:05.000Z</time>
      </trkpt>
      <trkpt lat="45.68014" lon="5.8524">
        <ele>340</ele>
        <time>2015-05-14T10:03:12.000Z</time>
      </trkpt>
      <trkpt lat="45.68014" lon="5.85243">
        <ele>339</ele>
        <time>2015-05-14T10:03:18.000Z</time>
      </trkpt>
      <trkpt lat="45.68014" lon="5.85251">
        <ele>336</ele>
        <time>2015-05-14T10:03:25.000Z</time>
      </trkpt>
      <trkpt lat="45.68015" lon="5.85262">
        <ele>335</ele>
        <time>2015-05-14T10:03:32.000Z</time>
      </trkpt>
      <trkpt lat="45.68015" lon="5.85272">
        <ele>335</ele>
        <time>2015-05-14T10:03:38.000Z</time>
      </trkpt>
      <trkpt lat="45.68015" lon="5.85288">
        <ele>335</ele>
        <time>2015-05-14T10:03:47.000Z</time>
      </trkpt>
      <trkpt lat="45.68015" lon="5.8531">
        <ele>334</ele>
        <time>2015-05-14T10:03:59.000Z</time>
      </trkpt>
      <trkpt lat="45.68014" lon="5.8533">
        <ele>334</ele>
        <time>2015-05-14T10:04:10.000Z</time>
      </trkpt>
      <trkpt lat="45.68016" lon="5.85346">
        <ele>331</ele>
        <time>2015-05-14T10:04:19.000Z</time>
      </trkpt>
      <trkpt lat="45.68022" lon="5.85358">
        <ele>330</ele>
        <time>2015-05-14T10:04:28.000Z</time>
      </trkpt>
      <trkpt lat="45.68033" lon="5.8537">
        <ele>329</ele>
        <time>2015-05-14T10:04:39.000Z</time>
      </trkpt>
      <trkpt lat="45.6804" lon="5.85378">
        <ele>329</ele>
        <time>2015-05-14T10:04:47.000Z</time>
      </trkpt>
      <trkpt lat="45.6805" lon="5.85385">
        <ele>328</ele>
        <time>2015-05-14T10:04:58.000Z</time>
      </trkpt>
      <trkpt lat="45.68054" lon="5.85387">
        <ele>328</ele>
        <time>2015-05-14T10:05:03.000Z</time>
      </trkpt>
      <trkpt lat="45.68054" lon="5.85389">
        <ele>328</ele>
        <time>2015-05-14T10:05:06.000Z</time>
      </trkpt>
      <trkpt lat="45.68057" lon="5.85386">
        <ele>328</ele>
        <time>2015-05-14T10:05:29.000Z</time>
      </trkpt>
      <trkpt lat="45.68058" lon="5.85385">
        <ele>328</ele>
        <time>2015-05-14T10:05:37.000Z</time>
      </trkpt>
      <trkpt lat="45.68061" lon="5.8539">
        <ele>328</ele>
        <time>2015-05-14T10:05:57.000Z</time>
      </trkpt>
      <trkpt lat="45.68066" lon="5.85394">
        <ele>328</ele>
        <time>2015-05-14T10:06:04.000Z</time>
      </trkpt>
      <trkpt lat="45.68068" lon="5.85395">
        <ele>328</ele>
        <time>2015-05-14T10:06:07.000Z</time>
      </trkpt>
      <trkpt lat="45.68072" lon="5.85396">
        <ele>328</ele>
        <time>2015-05-14T10:06:11.000Z</time>
      </trkpt>
      <trkpt lat="45.68078" lon="5.85397">
        <ele>327</ele>
        <time>2015-05-14T10:06:17.000Z</time>
      </trkpt>
      <trkpt lat="45.68079" lon="5.85397">
        <ele>327</ele>
        <time>2015-05-14T10:06:18.000Z</time>
      </trkpt>
      <trkpt lat="45.6808" lon="5.85396">
        <ele>327</ele>
        <time>2015-05-14T10:06:21.000Z</time>
      </trkpt>
      <trkpt lat="45.68082" lon="5.85399">
        <ele>327</ele>
        <time>2015-05-14T10:06:23.000Z</time>
      </trkpt>
      <trkpt lat="45.68088" lon="5.85402">
        <ele>327</ele>
        <time>2015-05-14T10:06:29.000Z</time>
      </trkpt>
      <trkpt lat="45.6809" lon="5.85403">
        <ele>327</ele>
        <time>2015-05-14T10:06:31.000Z</time>
      </trkpt>
      <trkpt lat="45.68097" lon="5.85408">
        <ele>327</ele>
        <time>2015-05-14T10:06:38.000Z</time>
      </trkpt>
      <trkpt lat="45.68104" lon="5.85416">
        <ele>328</ele>
        <time>2015-05-14T10:06:46.000Z</time>
      </trkpt>
      <trkpt lat="45.68112" lon="5.85421">
        <ele>323</ele>
        <time>2015-05-14T10:06:53.000Z</time>
      </trkpt>
      <trkpt lat="45.68119" lon="5.85428">
        <ele>322</ele>
        <time>2015-05-14T10:07:01.000Z</time>
      </trkpt>
      <trkpt lat="45.68124" lon="5.85439">
        <ele>321</ele>
        <time>2015-05-14T10:07:09.000Z</time>
      </trkpt>
      <trkpt lat="45.68124" lon="5.85443">
        <ele>321</ele>
        <time>2015-05-14T10:07:15.000Z</time>
      </trkpt>
      <trkpt lat="45.68126" lon="5.85452">
        <ele>321</ele>
        <time>2015-05-14T10:07:24.000Z</time>
      </trkpt>
      <trkpt lat="45.68127" lon="5.85452">
        <ele>321</ele>
        <time>2015-05-14T10:07:25.000Z</time>
      </trkpt>
      <trkpt lat="45.68129" lon="5.85452">
        <ele>320</ele>
        <time>2015-05-14T10:07:27.000Z</time>
      </trkpt>
      <trkpt lat="45.6813" lon="5.85452">
        <ele>321</ele>
        <time>2015-05-14T10:07:29.000Z</time>
      </trkpt>
      <trkpt lat="45.68132" lon="5.85453">
        <ele>320</ele>
        <time>2015-05-14T10:07:38.000Z</time>
      </trkpt>
      <trkpt lat="45.68138" lon="5.85455">
        <ele>320</ele>
        <time>2015-05-14T10:07:46.000Z</time>
      </trkpt>
      <trkpt lat="45.68147" lon="5.85457">
        <ele>320</ele>
        <time>2015-05-14T10:07:55.000Z</time>
      </trkpt>
      <trkpt lat="45.68148" lon="5.85456">
        <ele>320</ele>
        <time>2015-05-14T10:08:01.000Z</time>
      </trkpt>
      <trkpt lat="45.68151" lon="5.85456">
        <ele>320</ele>
        <time>2015-05-14T10:08:13.000Z</time>
      </trkpt>
      <trkpt lat="45.68154" lon="5.85457">
        <ele>320</ele>
        <time>2015-05-14T10:08:20.000Z</time>
      </trkpt>
      <trkpt lat="45.68156" lon="5.85457">
        <ele>320</ele>
        <time>2015-05-14T10:08:33.000Z</time>
      </trkpt>
      <trkpt lat="45.6816" lon="5.85457">
        <ele>320</ele>
        <time>2015-05-14T10:08:43.000Z</time>
      </trkpt>
      <trkpt lat="45.68164" lon="5.85458">
        <ele>320</ele>
        <time>2015-05-14T10:08:50.000Z</time>
      </trkpt>
      <trkpt lat="45.68168" lon="5.85458">
        <ele>322</ele>
        <time>2015-05-14T10:09:01.000Z</time>
      </trkpt>
      <trkpt lat="45.68177" lon="5.8546">
        <ele>322</ele>
        <time>2015-05-14T10:09:09.000Z</time>
      </trkpt>
      <trkpt lat="45.68185" lon="5.85461">
        <ele>322</ele>
        <time>2015-05-14T10:09:16.000Z</time>
      </trkpt>
      <trkpt lat="45.68191" lon="5.85461">
        <ele>323</ele>
        <time>2015-05-14T10:09:22.000Z</time>
      </trkpt>
      <trkpt lat="45.68195" lon="5.85462">
        <ele>323</ele>
        <time>2015-05-14T10:09:27.000Z</time>
      </trkpt>
      <trkpt lat="45.68197" lon="5.85462">
        <ele>323</ele>
        <time>2015-05-14T10:09:30.000Z</time>
      </trkpt>
      <trkpt lat="45.68201" lon="5.85465">
        <ele>323</ele>
        <time>2015-05-14T10:09:35.000Z</time>
      </trkpt>
      <trkpt lat="45.68201" lon="5.85466">
        <ele>323</ele>
        <time>2015-05-14T10:09:38.000Z</time>
      </trkpt>
      <trkpt lat="45.682" lon="5.8547">
        <ele>322</ele>
        <time>2015-05-14T10:09:46.000Z</time>
      </trkpt>
      <trkpt lat="45.68197" lon="5.85472">
        <ele>322</ele>
        <time>2015-05-14T10:09:53.000Z</time>
      </trkpt>
      <trkpt lat="45.68194" lon="5.85472">
        <ele>322</ele>
        <time>2015-05-14T10:10:03.000Z</time>
      </trkpt>
      <trkpt lat="45.68191" lon="5.85471">
        <ele>322</ele>
        <time>2015-05-14T10:10:09.000Z</time>
      </trkpt>
      <trkpt lat="45.68185" lon="5.85472">
        <ele>321</ele>
        <time>2015-05-14T10:10:17.000Z</time>
      </trkpt>
      <trkpt lat="45.6818" lon="5.8547">
        <ele>321</ele>
        <time>2015-05-14T10:10:24.000Z</time>
      </trkpt>
      <trkpt lat="45.68177" lon="5.85471">
        <ele>321</ele>
        <time>2015-05-14T10:10:30.000Z</time>
      </trkpt>
      <trkpt lat="45.68173" lon="5.85473">
        <ele>321</ele>
        <time>2015-05-14T10:10:38.000Z</time>
      </trkpt>
      <trkpt lat="45.68169" lon="5.85472">
        <ele>321</ele>
        <time>2015-05-14T10:10:43.000Z</time>
      </trkpt>
      <trkpt lat="45.68167" lon="5.85472">
        <ele>319</ele>
        <time>2015-05-14T10:10:49.000Z</time>
      </trkpt>
      <trkpt lat="45.68164" lon="5.85475">
        <ele>318</ele>
        <time>2015-05-14T10:10:58.000Z</time>
      </trkpt>
      <trkpt lat="45.68162" lon="5.85484">
        <ele>317</ele>
        <time>2015-05-14T10:11:09.000Z</time>
      </trkpt>
      <trkpt lat="45.68158" lon="5.85485">
        <ele>317</ele>
        <time>2015-05-14T10:11:14.000Z</time>
      </trkpt>
      <trkpt lat="45.68157" lon="5.85486">
        <ele>317</ele>
        <time>2015-05-14T10:11:16.000Z</time>
      </trkpt>
      <trkpt lat="45.68157" lon="5.8549">
        <ele>317</ele>
        <time>2015-05-14T10:11:20.000Z</time>
      </trkpt>
      <trkpt lat="45.68157" lon="5.85499">
        <ele>316</ele>
        <time>2015-05-14T10:11:26.000Z</time>
      </trkpt>
      <trkpt lat="45.68156" lon="5.85511">
        <ele>312</ele>
        <time>2015-05-14T10:11:33.000Z</time>
      </trkpt>
      <trkpt lat="45.68154" lon="5.85528">
        <ele>311</ele>
        <time>2015-05-14T10:11:43.000Z</time>
      </trkpt>
      <trkpt lat="45.6815" lon="5.85544">
        <ele>310</ele>
        <time>2015-05-14T10:11:53.000Z</time>
      </trkpt>
      <trkpt lat="45.68151" lon="5.85555">
        <ele>309</ele>
        <time>2015-05-14T10:12:00.000Z</time>
      </trkpt>
      <trkpt lat="45.68151" lon="5.85556">
        <ele>309</ele>
        <time>2015-05-14T10:12:07.000Z</time>
      </trkpt>
      <trkpt lat="45.68153" lon="5.85561">
        <ele>309</ele>
        <time>2015-05-14T10:12:14.000Z</time>
      </trkpt>
      <trkpt lat="45.68161" lon="5.85564">
        <ele>308</ele>
        <time>2015-05-14T10:12:22.000Z</time>
      </trkpt>
      <trkpt lat="45.68166" lon="5.85565">
        <ele>308</ele>
        <time>2015-05-14T10:12:28.000Z</time>
      </trkpt>
      <trkpt lat="45.68178" lon="5.85567">
        <ele>309</ele>
        <time>2015-05-14T10:12:38.000Z</time>
      </trkpt>
      <trkpt lat="45.68186" lon="5.85567">
        <ele>309</ele>
        <time>2015-05-14T10:12:45.000Z</time>
      </trkpt>
      <trkpt lat="45.68194" lon="5.8557">
        <ele>309</ele>
        <time>2015-05-14T10:12:52.000Z</time>
      </trkpt>
      <trkpt lat="45.68199" lon="5.85572">
        <ele>309</ele>
        <time>2015-05-14T10:12:57.000Z</time>
      </trkpt>
      <trkpt lat="45.682" lon="5.85572">
        <ele>309</ele>
        <time>2015-05-14T10:12:58.000Z</time>
      </trkpt>
      <trkpt lat="45.68211" lon="5.85574">
        <ele>309</ele>
        <time>2015-05-14T10:13:06.000Z</time>
      </trkpt>
      <trkpt lat="45.68214" lon="5.85574">
        <ele>309</ele>
        <time>2015-05-14T10:13:09.000Z</time>
      </trkpt>
      <trkpt lat="45.68218" lon="5.85574">
        <ele>309</ele>
        <time>2015-05-14T10:13:12.000Z</time>
      </trkpt>
      <trkpt lat="45.68225" lon="5.85573">
        <ele>308</ele>
        <time>2015-05-14T10:13:17.000Z</time>
      </trkpt>
      <trkpt lat="45.68232" lon="5.85574">
        <ele>308</ele>
        <time>2015-05-14T10:13:22.000Z</time>
      </trkpt>
      <trkpt lat="45.68245" lon="5.85574">
        <ele>306</ele>
        <time>2015-05-14T10:13:32.000Z</time>
      </trkpt>
      <trkpt lat="45.68255" lon="5.85576">
        <ele>306</ele>
        <time>2015-05-14T10:13:40.000Z</time>
      </trkpt>
      <trkpt lat="45.68268" lon="5.85581">
        <ele>308</ele>
        <time>2015-05-14T10:13:49.000Z</time>
      </trkpt>
      <trkpt lat="45.68276" lon="5.85587">
        <ele>302</ele>
        <time>2015-05-14T10:13:56.000Z</time>
      </trkpt>
      <trkpt lat="45.68284" lon="5.85596">
        <ele>301</ele>
        <time>2015-05-14T10:14:04.000Z</time>
      </trkpt>
      <trkpt lat="45.6829" lon="5.85606">
        <ele>301</ele>
        <time>2015-05-14T10:14:11.000Z</time>
      </trkpt>
      <trkpt lat="45.683" lon="5.85613">
        <ele>301</ele>
        <time>2015-05-14T10:14:18.000Z</time>
      </trkpt>
      <trkpt lat="45.68309" lon="5.85619">
        <ele>300</ele>
        <time>2015-05-14T10:14:25.000Z</time>
      </trkpt>
      <trkpt lat="45.68318" lon="5.85624">
        <ele>300</ele>
        <time>2015-05-14T10:14:32.000Z</time>
      </trkpt>
      <trkpt lat="45.68328" lon="5.85628">
        <ele>300</ele>
        <time>2015-05-14T10:14:41.000Z</time>
      </trkpt>
      <trkpt lat="45.68329" lon="5.85627">
        <ele>300</ele>
        <time>2015-05-14T10:14:42.000Z</time>
      </trkpt>
      <trkpt lat="45.68332" lon="5.85625">
        <ele>300</ele>
        <time>2015-05-14T10:14:45.000Z</time>
      </trkpt>
      <trkpt lat="45.68334" lon="5.85624">
        <ele>300</ele>
        <time>2015-05-14T10:14:47.000Z</time>
      </trkpt>
      <trkpt lat="45.68336" lon="5.85623">
        <ele>300</ele>
        <time>2015-05-14T10:14:49.000Z</time>
      </trkpt>
      <trkpt lat="45.68338" lon="5.85617">
        <ele>300</ele>
        <time>2015-05-14T10:14:53.000Z</time>
      </trkpt>
      <trkpt lat="45.68339" lon="5.85615">
        <ele>300</ele>
        <time>2015-05-14T10:14:54.000Z</time>
      </trkpt>
      <trkpt lat="45.68342" lon="5.85605">
        <ele>301</ele>
        <time>2015-05-14T10:15:01.000Z</time>
      </trkpt>
      <trkpt lat="45.68345" lon="5.85592">
        <ele>302</ele>
        <time>2015-05-14T10:15:09.000Z</time>
      </trkpt>
      <trkpt lat="45.68346" lon="5.85591">
        <ele>302</ele>
        <time>2015-05-14T10:15:10.000Z</time>
      </trkpt>
      <trkpt lat="45.68352" lon="5.85586">
        <ele>302</ele>
        <time>2015-05-14T10:15:17.000Z</time>
      </trkpt>
      <trkpt lat="45.6836" lon="5.85586">
        <ele>302</ele>
        <time>2015-05-14T10:15:25.000Z</time>
      </trkpt>
      <trkpt lat="45.68365" lon="5.85585">
        <ele>302</ele>
        <time>2015-05-14T10:15:30.000Z</time>
      </trkpt>
      <trkpt lat="45.68366" lon="5.85584">
        <ele>302</ele>
        <time>2015-05-14T10:15:32.000Z</time>
      </trkpt>
      <trkpt lat="45.68369" lon="5.85577">
        <ele>314</ele>
        <time>2015-05-14T10:15:37.000Z</time>
      </trkpt>
      <trkpt lat="45.68372" lon="5.85571">
        <ele>314</ele>
        <time>2015-05-14T10:15:41.000Z</time>
      </trkpt>
      <trkpt lat="45.68374" lon="5.85568">
        <ele>315</ele>
        <time>2015-05-14T10:15:44.000Z</time>
      </trkpt>
      <trkpt lat="45.68379" lon="5.85565">
        <ele>315</ele>
        <time>2015-05-14T10:15:50.000Z</time>
      </trkpt>
      <trkpt lat="45.68381" lon="5.85566">
        <ele>315</ele>
        <time>2015-05-14T10:15:52.000Z</time>
      </trkpt>
      <trkpt lat="45.68387" lon="5.85567">
        <ele>315</ele>
        <time>2015-05-14T10:15:58.000Z</time>
      </trkpt>
      <trkpt lat="45.68389" lon="5.85567">
        <ele>315</ele>
        <time>2015-05-14T10:16:00.000Z</time>
      </trkpt>
      <trkpt lat="45.68392" lon="5.85566">
        <ele>315</ele>
        <time>2015-05-14T10:16:04.000Z</time>
      </trkpt>
    </trkseg>
  </trk>
</gpx>